[[{"header":{"parameterUnit":"m.s-1","parameterCategory":1,"la1":31.0,"la2":29.5877,"lo1":-88.7671,"lo2":-86.6584,"dy":0.0162,"dx":0.0185,"nx":115,"ny":88,"refTime":"2024-04-06T06:00:00:Z","depth":0,"parameterNumber":2,"parameterNumberName":"U-component_of_WINDS"},"data":[0.0,0.0,0.0,0.0,0.0,0.0,0.0,0.0,0.0,0.0,0.0,0.0,0.0,0.0,0.0,0.0,0.0,0.0,0.0,0.0,0.0,0.0,0.0,0.0,0.0,0.0,0.0,0.0,0.0,0.0,0.0,0.0,0.0,0.0,0.0,0.0,0.0,0.0,0.0,0.0,0.0,0.0,0.0,0.0,0.0,0.0,0.0,0.0,0.0,0.0,0.0,0.0,0.0,0.0,0.0,0.0,0.0,0.0,0.0,0.0,0.0,0.0,0.0,0.0,0.0,0.0,0.0,0.0,0.0,0.0,0.0,0.0,0.0,0.0,0.0,0.0,0.0,0.0,0.0,0.0,0.0,0.0,0.0,0.0,0.0,0.0,0.0,0.0,0.0,0.0,0.0,0.0,0.0,0.0,0.0,0.0,0.0,0.0,0.0,0.0,0.0,0.0,0.0,0.0,0.0,0.0,0.0,0.0,0.0,0.0,0.0,0.0,0.0,0.0,0.0,0.0,0.0,0.0,0.0,0.0,0.0,0.0,0.0,0.0,0.0,0.0,0.0,0.0,0.0,0.0,0.0,0.0,0.0,0.0,0.0,0.0,0.0,0.0,0.0,0.0,0.0,0.0,0.0,0.0,0.0,0.0,0.0,0.0,0.0,0.0,0.0,0.0,0.0,0.0,0.0,0.0,0.0,0.0,0.0,0.0,0.0,0.0,0.0,0.0,0.0,0.0,0.0,0.0,0.0,0.0,0.0,0.0,0.0,0.0,0.0,0.0,0.0,0.0,0.0,0.0,0.0,0.0,0.0,0.0,0.0,0.0,0.0,0.0,0.0,0.0,0.0,0.0,0.0,0.0,0.0,0.0,0.0,0.0,0.0,0.0,0.0,0.0,0.0,0.0,0.0,0.0,0.0,0.0,0.0,0.0,0.0,0.0,0.0,0.0,0.0,0.0,0.0,0.0,0.0,0.0,0.0,0.0,0.0,0.0,0.0,0.0,0.0,0.0,0.0,0.0,0.0,0.0,0.0,0.0,0.0,0.0,0.0,0.0,0.0,0.0,0.0,0.0,0.0,0.0,0.0,0.0,0.0,0.0,0.0,0.0,0.0,0.0,0.0,0.0,0.0,0.0,0.0,0.0,0.0,0.0,0.0,0.0,0.0,0.0,0.0,0.0,0.0,0.0,0.0,0.0,0.0,0.0,0.0,0.0,0.0,0.0,0.0,0.0,0.0,0.0,0.0,0.0,0.0,0.0,0.0,0.0,0.0,0.0,0.0,0.0,0.0,0.0,0.0,0.0,0.0,0.0,0.0,0.0,0.0,0.0,0.0,0.0,0.0,0.0,0.0,0.0,0.0,0.0,0.0,0.0,0.0,0.0,0.0,0.0,0.0,0.0,0.0,0.0,0.0,0.0,0.0,0.0,0.0,0.0,0.0,0.0,0.0,0.0,0.0,0.0,0.0,0.0,0.0,0.0,0.0,0.0,0.0,0.0,0.0,0.0,0.0,0.0,0.0,0.0,0.0,0.0,0.0,0.0,0.0,0.0,0.0,0.0,0.0,0.0,0.0,0.0,0.0,0.0,0.0,0.0,0.0,0.0,0.0,0.0,0.0,0.0,0.0,0.0,0.0,0.0,0.0,0.0,0.0,0.0,0.0,0.0,0.0,0.0,0.0,0.0,0.0,0.0,0.0,0.0,0.0,0.0,0.0,0.0,0.0,0.0,0.0,0.0,0.0,0.0,0.0,0.0,0.0,0.0,0.0,0.0,0.0,0.0,0.0,0.0,0.0,0.0,0.0,0.0,0.0,0.0,0.0,0.0,0.0,0.0,0.0,0.0,0.0,0.0,0.0,0.0,0.0,0.0,0.0,0.0,0.0,0.0,0.0,0.0,0.0,0.0,0.0,0.0,0.0,0.0,0.0,0.0,0.0,0.0,0.0,0.0,0.0,0.0,0.0,0.0,0.0,0.0,0.0,0.0,0.0,0.0,0.0,0.0,0.0,0.0,0.0,0.0,0.0,0.0,0.0,0.0,0.0,0.0,0.0,0.0,0.0,0.0,0.0,0.0,0.0,0.0,0.0,0.0,0.0,0.0,0.0,0.0,0.0,0.0,0.0,0.0,0.0,0.0,0.0,0.0,0.0,0.0,0.0,0.0,0.0,0.0,0.0,0.0,0.0,0.0,0.0,0.0,0.0,0.0,0.0,0.0,0.0,0.0,0.0,0.0,0.0,0.0,0.0,0.0,0.0,0.0,0.0,0.0,0.0,0.0,0.0,0.0,0.0,0.0,0.0,0.0,0.0,0.0,0.0,0.0,0.0,0.0,0.0,0.0,0.0,0.0,0.0,0.0,0.0,0.0,0.0,0.0,0.0,0.0,0.0,0.0,0.0,0.0,0.0,0.0,0.0,0.0,0.0,0.0,0.0,0.0,0.0,0.0,0.0,0.0,0.0,0.0,0.0,0.0,0.0,0.0,0.0,0.0,0.0,0.0,0.0,0.0,0.0,0.0,0.0,0.0,0.0,0.0,0.0,0.0,0.0,0.0,0.0,0.0,0.0,0.0,0.0,0.0,0.0,0.0,0.0,0.0,0.0,0.0,0.0,0.0,0.0,0.0,0.0,0.0,0.0,0.0,0.0,0.0,0.0,0.0,0.0,0.0,0.0,0.0,0.0,0.0,0.0,0.0,0.0,0.0,0.0,0.0,0.0,0.0,0.0,0.0,0.0,0.0,0.0,0.0,0.0,0.0,0.0,0.0,0.0,0.0,0.0,0.0,0.0,0.0,0.0,0.0,0.0,0.0,0.0,0.0,0.0,0.0,0.0,0.0,0.0,0.0,0.0,0.0,0.0,0.0,0.0,0.0,0.0,0.0,0.0,0.0,0.0,0.0,0.0,0.0,0.0,0.0,0.0,0.0,0.0,0.0,0.0,0.0,0.0,0.0,0.0,0.0,0.0,0.0,0.0,0.0,0.0,0.0,0.0,0.0,0.0,0.0,0.0,0.0,0.0,0.0,0.0,0.0,0.0,0.0,0.0,0.0,0.0,0.0,0.0,0.0,0.0,0.0,0.0,0.0,0.0,0.0,0.0,0.0,0.0,0.0,0.0,0.0,0.0,0.0,0.0,0.0,0.0,0.0,0.0,0.0,0.0,0.0,0.0,0.0,0.0,0.0,0.0,0.0,0.0,0.0,0.0,0.0,0.0,0.0,0.0,0.0,0.0,0.0,0.0,0.0,0.0,0.0,0.0,0.0,0.0,0.0,0.0,0.0,0.0,0.0,0.0,0.0,0.0,0.0,0.0,0.0,0.0,0.0,0.0,0.0,0.0,0.0,0.0,0.0,0.0,0.0,0.0,0.0,0.0,0.0,0.0,0.0,0.0,0.0,0.0,0.0,0.0,0.0,0.0,0.0,0.0,0.0,0.0,0.0,0.0,0.0,0.0,0.0,0.0,0.0,0.0,0.0,0.0,0.0,0.0,0.0,0.0,0.0,0.0,0.0,0.0,0.0,0.0,0.0,0.0,0.0,0.0,0.0,0.0,0.0,0.0,0.0,0.0,0.0,0.0,0.0,0.0,0.0,0.0,0.0,0.0,0.0,0.0,0.0,0.0,0.0,0.0,0.0,0.0,0.0,0.0,0.0,0.0,0.0,0.0,0.0,0.0,0.0,0.0,0.0,0.0,0.0,0.0,0.0,0.0,0.0,0.0,0.0,0.0,0.0,0.0,0.0,0.0,0.0,0.0,0.0,0.0,0.0,0.0,0.0,0.0,0.0,0.0,0.0,0.0,0.0,0.0,0.0,0.0,0.0,0.0,0.0,0.0,0.0,0.0,0.0,0.0,0.0,0.0,0.0,0.0,0.0,0.0,0.0,0.0,0.0,0.0,0.0,0.0,0.0,0.0,0.0,0.0,0.0,0.0,0.0,0.0,0.0,0.0,0.0,0.0,0.0,0.0,0.0,0.0,0.0,0.0,0.0,0.0,0.0,0.0,0.0,0.0,0.0,0.0,0.0,0.0,0.0,0.0,0.0,0.0,0.0,0.0,0.0,0.0,0.0,0.0,0.0,0.0,0.0,0.0,0.0,0.0,0.0,0.0,0.0,0.0,0.0,0.0,0.0,0.0,0.0,0.0,0.0,0.0,0.0,0.0,0.0,0.0,0.0,0.0,0.0,0.0,0.0,0.0,0.0,0.0,0.0,0.0,0.0,0.0,0.0,0.0,0.0,0.0,0.0,0.0,0.0,0.0,0.0,0.0,0.0,0.0,0.0,1.1553,0.0,0.0,0.0,0.0,0.0,0.0,0.0,0.0,0.0,0.0,0.0,0.0,0.0,0.0,0.0,0.0,0.0,0.0,0.0,0.0,0.0,0.0,0.0,0.0,0.0,0.0,0.0,0.0,0.0,0.0,0.0,0.0,0.0,0.0,0.0,0.0,0.0,0.0,0.0,0.0,0.0,0.0,0.0,0.0,0.0,0.0,0.0,0.0,0.0,0.0,0.0,0.0,0.0,0.0,0.0,0.0,0.0,0.0,0.0,0.0,0.0,0.0,0.0,0.0,0.0,0.0,0.0,0.0,0.0,0.0,0.0,0.0,0.0,0.0,0.0,0.0,0.0,0.0,0.0,0.0,0.0,0.0,0.0,0.0,0.0,0.0,0.0,0.0,0.0,0.0,0.0,0.0,0.0,0.0,0.0,0.0,0.0,0.0,0.0,0.0,0.0,0.0,0.0,0.0,0.0,0.0,0.0,0.0,0.0,0.0,1.1929,1.1834,1.1677,1.1572,1.1537,0.0,0.0,0.0,0.0,0.0,0.0,0.0,0.0,0.0,0.0,0.0,0.0,0.0,0.0,0.0,0.0,0.0,0.0,0.0,0.0,0.0,0.0,0.0,0.0,0.0,0.0,0.0,0.0,0.0,0.0,0.0,0.0,0.0,0.0,0.0,0.0,0.0,0.0,0.0,0.0,0.0,0.0,0.0,0.0,0.0,0.0,0.0,0.0,0.0,0.0,0.0,0.0,0.0,0.0,0.0,0.0,0.0,0.0,0.0,0.0,0.0,0.0,0.0,0.0,0.0,0.0,0.0,0.0,0.0,0.0,0.0,0.0,0.0,0.0,0.0,0.0,0.0,0.0,0.0,0.0,0.0,0.0,0.0,0.0,0.0,0.0,0.0,0.0,0.0,0.0,0.0,0.0,0.0,0.0,0.0,0.0,0.0,0.0,0.0,0.0,0.0,0.0,0.0,0.0,0.0,0.0,0.0,0.0,0.0,0.0,0.0,0.0,1.1753,1.1661,1.1382,0.0,0.0,0.0,0.0,0.0,0.0,0.0,0.0,0.0,0.0,0.0,0.0,0.0,0.0,0.0,0.0,0.0,0.0,0.0,0.0,0.0,0.0,0.0,0.0,0.0,0.0,0.0,0.0,0.0,0.0,0.0,0.0,0.0,0.0,0.0,0.0,0.0,0.0,0.0,0.0,0.0,0.0,0.0,0.0,0.0,0.0,0.0,0.0,0.0,0.0,0.0,0.0,0.0,0.0,0.0,0.0,0.0,0.0,0.0,0.0,0.0,0.0,0.0,0.0,0.0,0.0,0.0,0.0,0.0,0.0,0.0,0.0,0.0,0.0,0.0,0.0,0.0,0.0,0.0,0.0,0.0,0.0,0.0,0.0,0.0,0.0,0.0,0.0,0.0,0.0,0.0,0.0,0.0,0.0,0.0,0.0,0.0,0.0,0.0,0.0,0.0,0.0,0.0,0.0,0.0,0.0,0.0,0.0,0.0,0.0,1.1592,1.1682,1.1551,0.0,1.1001,0.0,0.0,0.0,0.0,0.0,0.0,0.0,0.0,0.0,0.0,0.0,0.0,0.0,0.0,0.0,0.0,0.0,0.0,0.0,0.0,0.0,0.0,0.0,0.0,0.0,0.0,0.0,0.0,0.0,0.0,0.0,0.0,0.0,0.0,0.0,0.0,0.0,0.0,0.0,0.0,0.0,0.0,0.0,0.0,0.0,0.0,0.0,0.0,0.0,0.0,0.0,0.0,0.0,0.0,0.0,0.0,0.0,0.0,0.0,0.0,0.0,0.0,0.0,0.0,0.0,0.0,0.0,0.0,0.0,0.0,0.0,0.0,0.0,0.0,0.0,0.0,0.0,0.0,0.0,0.0,0.0,0.0,0.0,0.0,0.0,0.0,0.0,0.0,0.0,0.0,0.0,0.0,0.0,0.0,0.0,0.0,0.0,0.0,0.0,0.0,0.0,0.0,0.0,0.0,0.0,0.0,0.0,0.0,0.0,0.0,1.1217,1.1237,1.1534,1.143,0.0,0.0,0.0,0.0,0.0,0.0,0.0,0.0,0.0,0.0,0.0,0.0,0.0,0.0,0.0,0.0,0.0,0.0,0.0,0.0,0.0,0.0,0.0,0.0,0.0,0.0,0.0,0.0,0.0,0.0,0.0,0.0,0.0,0.0,0.0,0.0,0.0,0.0,0.0,0.0,0.0,0.0,0.0,0.0,0.0,0.0,0.0,0.0,0.0,0.0,0.0,0.0,0.0,0.0,0.0,0.0,0.0,0.0,0.0,0.0,0.0,0.0,0.0,0.0,0.0,0.0,0.0,0.0,0.0,0.0,0.0,0.0,0.0,0.0,0.0,0.0,0.0,0.0,0.0,0.0,0.0,0.0,0.0,0.0,0.0,0.0,0.0,0.0,0.0,0.0,0.0,0.0,0.0,0.0,0.0,0.0,0.0,0.0,0.0,0.0,0.0,0.0,0.0,0.0,0.0,0.0,0.0,0.0,0.0,0.0,1.0828,1.0911,1.0918,1.1375,1.1381,1.0871,0.0,0.0,0.0,0.0,0.0,0.0,0.0,0.0,0.0,0.0,0.0,0.0,0.0,0.0,0.0,0.0,0.0,0.0,0.0,0.0,0.0,0.0,0.0,0.0,0.0,0.0,0.0,0.0,0.0,0.0,0.0,0.0,0.0,0.0,0.0,0.0,0.0,0.0,0.0,0.0,0.0,0.0,0.0,0.0,0.0,0.0,0.0,0.0,0.0,0.0,0.0,0.0,0.0,0.0,0.0,0.0,0.0,0.0,0.0,0.0,0.0,0.0,0.0,0.0,0.0,0.0,0.0,0.0,0.0,0.0,0.0,0.0,0.0,0.0,0.0,0.0,0.0,0.0,0.0,0.0,0.0,0.0,0.0,0.0,0.0,0.0,0.0,0.0,0.0,0.0,0.0,0.0,0.0,0.0,0.0,0.0,0.0,0.0,0.0,0.0,0.0,0.0,0.0,0.0,0.0,0.0,0.0,0.0,1.0663,1.069,1.0769,1.0895,1.0917,1.0871,0.0,0.0,0.0,0.0,0.0,0.0,0.0,0.0,0.0,0.0,0.0,0.0,0.0,0.0,0.0,0.0,0.0,0.0,0.0,0.0,0.0,0.0,0.0,0.0,0.0,0.0,0.0,0.0,0.0,0.0,0.0,0.0,0.0,0.0,0.0,0.0,0.0,0.0,0.0,0.0,0.0,0.0,0.0,0.0,0.0,0.0,0.0,0.0,0.0,0.0,0.0,0.0,0.0,0.0,0.0,0.0,0.0,0.0,0.0,0.0,0.0,0.0,0.0,0.0,0.0,0.0,0.0,0.0,0.0,0.0,0.0,0.0,0.0,0.0,0.0,0.0,0.0,0.0,0.0,0.0,0.0,0.0,0.0,0.0,0.0,0.0,0.0,0.0,0.0,0.0,0.0,0.0,0.0,0.0,0.0,0.0,0.0,0.0,0.0,0.0,0.0,0.0,0.0,0.0,0.0,0.0,0.0,0.0,0.0,0.9869,1.041,1.0818,1.1019,1.1023,1.0922,0.0,0.0,0.0,0.0,0.0,0.0,0.0,0.0,0.0,0.0,0.0,0.0,0.0,0.0,0.0,0.0,0.0,0.0,0.0,0.0,0.0,0.0,0.0,0.0,0.0,0.0,0.0,0.0,0.0,0.0,0.0,0.0,0.0,0.0,0.0,0.0,0.0,0.0,0.0,0.0,0.0,0.0,0.0,0.0,0.0,0.0,0.0,0.0,0.0,0.0,0.0,0.0,0.0,0.0,0.0,0.0,0.0,0.0,0.0,0.0,0.0,0.0,0.0,0.0,0.0,0.0,0.0,0.0,0.0,0.0,0.0,0.0,0.0,0.0,0.0,0.0,0.0,0.0,0.0,0.0,0.0,0.0,0.0,0.0,0.0,0.0,0.0,0.0,0.0,0.0,0.0,0.0,0.0,0.0,0.0,0.0,0.0,0.0,0.0,0.0,0.0,0.0,0.0,0.0,0.0,0.0,0.0,0.0,0.0,0.9387,0.0,1.0616,1.0735,1.0807,1.0718,0.0,0.0,0.0,0.0,0.0,0.0,0.0,0.0,0.0,0.0,0.0,0.0,0.0,0.0,0.0,0.0,0.0,0.0,0.0,0.0,0.0,0.0,0.0,0.0,0.0,0.0,0.0,0.0,0.0,0.0,0.0,0.0,0.0,0.0,0.0,0.0,0.0,0.0,0.0,0.0,0.0,0.0,0.0,0.0,0.0,0.0,0.0,0.0,0.0,0.0,0.0,0.0,0.0,0.0,0.0,0.0,0.0,0.0,0.0,0.0,0.0,0.0,0.0,0.0,0.0,0.0,0.0,0.0,0.0,0.0,0.0,0.0,0.0,0.0,0.0,0.0,0.0,0.0,0.0,0.0,0.0,0.0,0.0,0.0,0.0,0.0,0.0,0.0,0.0,0.0,0.0,0.0,0.0,0.0,0.0,0.0,0.0,0.0,0.0,0.0,0.0,0.0,0.0,0.0,0.0,0.0,0.0,0.0,0.8553,0.9348,0.988,1.0115,1.0004,1.018,1.02,0.0,0.0,0.0,0.0,0.0,0.0,0.0,0.0,0.0,0.0,0.0,0.0,0.0,0.0,0.0,0.0,0.0,0.0,0.0,0.0,0.0,0.0,0.0,0.0,0.0,0.0,0.0,0.0,0.0,0.0,0.0,0.0,0.0,0.0,0.0,0.0,0.0,0.0,0.0,0.0,0.0,0.0,0.0,0.0,0.0,0.0,0.0,0.0,0.0,0.0,0.0,0.0,0.0,0.0,0.0,0.0,0.0,0.0,0.0,0.0,0.0,0.0,0.0,0.0,0.0,0.0,0.0,0.0,0.0,0.0,0.0,0.0,0.0,0.0,0.0,0.0,0.0,0.0,0.0,0.0,0.0,0.0,0.0,0.0,0.0,0.0,0.0,0.0,0.0,0.0,0.0,0.0,0.0,0.0,0.0,0.0,0.0,0.0,0.0,0.0,0.0,0.0,0.0,0.0,0.0,0.0,0.0,0.0,0.0,0.8475,0.8981,0.9393,0.9712,0.9686,0.9836,0.0,0.0,0.0,0.0,0.0,0.0,0.0,0.0,0.0,0.0,0.0,0.0,0.0,0.0,0.0,0.0,0.0,0.0,0.0,0.0,0.0,0.0,0.0,0.0,0.0,0.0,0.0,0.0,0.0,0.0,0.0,0.0,0.0,0.0,0.0,0.0,0.0,0.0,0.0,0.0,0.0,0.0,0.0,0.0,0.0,0.0,0.0,0.0,0.0,0.0,0.0,0.0,0.0,0.0,0.0,0.0,0.0,0.0,0.0,0.0,0.0,0.0,0.0,0.0,0.0,0.0,0.0,0.0,0.0,0.0,0.0,0.0,0.0,0.0,0.0,0.0,0.0,0.0,0.0,0.0,0.0,0.0,0.0,0.0,0.0,0.0,0.0,0.0,0.0,0.0,0.0,0.0,0.0,0.0,0.0,0.0,0.0,0.0,0.0,0.0,0.0,0.0,0.0,0.0,0.0,0.0,0.0,0.0,0.0,0.6414,0.6905,0.7875,0.9309,0.8685,0.9071,1.059,0.0,0.0,0.0,0.0,0.0,0.0,0.0,0.0,0.0,0.0,0.0,0.0,0.0,0.0,0.0,0.0,0.0,0.0,0.0,0.0,0.0,0.0,0.0,0.0,0.0,0.0,0.0,0.0,0.0,0.0,0.0,0.0,0.0,0.0,0.0,0.0,0.0,0.0,0.0,0.0,0.0,0.0,0.0,0.0,0.0,0.0,0.0,0.0,0.0,0.0,0.0,0.0,0.0,0.0,0.0,0.0,0.0,0.0,0.0,0.0,0.0,0.0,0.0,0.0,0.0,0.0,0.0,0.0,0.0,0.0,0.0,0.0,0.0,0.0,0.0,0.0,0.0,0.0,0.0,0.0,0.0,0.0,0.0,0.0,0.0,0.0,0.0,0.0,0.0,0.0,0.0,0.0,0.0,0.0,0.0,0.0,0.0,0.0,0.0,0.0,0.0,0.0,0.0,0.0,0.0,0.0,0.0,0.0,0.3477,0.3842,0.5622,0.8816,0.7323,0.8012,0.0,0.0,0.0,0.0,0.0,0.0,0.0,0.0,0.0,0.0,0.0,0.0,0.0,0.0,0.0,0.0,0.0,0.0,0.0,0.0,0.0,0.0,0.0,0.0,0.0,0.0,0.0,0.0,0.0,0.0,0.0,0.0,0.0,0.0,0.0,0.0,0.0,0.0,0.0,0.0,0.0,0.0,0.0,0.0,0.0,0.0,0.0,0.0,0.0,0.0,0.0,0.0,0.0,0.0,0.0,0.0,0.0,0.0,0.0,0.0,0.0,0.0,0.0,0.0,0.0,0.0,0.0,0.0,0.0,0.0,0.0,0.0,0.0,0.0,0.0,0.0,0.0,0.0,0.0,0.0,0.0,0.0,0.0,0.0,0.0,0.0,0.0,0.0,0.0,0.0,0.0,0.0,0.0,0.0,0.0,0.0,0.0,0.0,0.0,0.0,0.0,0.0,0.0,0.0,0.0,0.0,0.0,0.0,0.0,0.1813,0.0588,0.2882,0.8776,0.6983,0.8101,0.0,0.0,0.0,0.0,0.0,0.0,0.0,0.0,0.0,0.0,0.0,0.0,0.0,0.0,0.0,0.0,0.0,0.0,0.0,0.0,0.0,0.0,0.0,0.0,0.0,0.0,0.0,0.0,0.0,0.0,0.0,0.0,0.0,0.0,0.0,0.0,0.0,0.0,0.0,0.0,0.0,0.0,0.0,0.0,0.0,0.0,0.0,0.0,0.0,0.0,0.0,0.0,0.0,0.0,0.0,0.0,0.0,0.0,0.0,0.0,0.0,0.0,0.0,0.0,0.0,0.0,0.0,0.0,0.0,0.0,0.0,0.0,0.0,0.0,0.0,0.0,0.0,0.0,0.0,0.0,0.0,0.0,0.0,0.0,0.0,0.0,0.0,0.0,0.0,0.0,0.0,0.0,0.0,0.0,0.0,0.0,0.0,0.0,0.0,0.0,0.0,0.0,0.0,0.0,0.0,0.0,0.0,0.0,0.2865,0.0015,-0.1672,0.1071,0.8591,0.597,0.747,0.0,0.0,0.0,0.0,0.0,0.0,0.0,0.0,0.0,0.0,0.0,0.0,0.0,0.0,0.0,0.0,0.0,0.0,0.0,0.0,0.0,0.0,0.0,0.0,0.0,0.0,0.0,0.0,0.0,0.0,0.0,0.0,0.0,0.0,0.0,0.0,0.0,0.0,0.0,0.0,0.0,0.0,0.0,0.0,0.0,0.0,0.0,0.0,0.0,0.0,0.0,0.0,0.0,0.0,0.0,0.0,0.0,0.0,0.0,0.0,0.0,0.0,0.0,0.0,0.0,0.0,0.0,0.0,0.0,0.0,0.0,0.0,0.0,0.0,0.0,0.0,0.0,0.0,0.0,0.0,0.0,0.0,0.0,0.0,0.0,0.0,0.0,0.0,0.0,0.0,0.0,0.0,0.0,0.0,0.0,0.0,0.0,0.0,0.0,0.0,0.0,0.0,0.0,0.0,0.0,0.0,0.0,0.0,0.2324,-0.0836,-0.2105,0.0977,0.8277,0.4857,0.6591,0.0,0.0,0.0,0.0,0.0,0.0,0.0,0.0,0.0,0.0,0.0,0.0,0.0,0.0,0.0,0.0,0.0,0.0,0.0,0.0,0.0,0.0,0.0,0.0,0.0,0.0,0.0,0.0,0.0,0.0,0.0,0.0,0.0,0.0,0.0,0.0,0.0,0.0,0.0,0.0,0.0,0.0,0.0,0.0,0.0,0.0,0.0,0.0,0.0,0.0,0.0,0.0,0.0,0.0,0.0,0.0,0.0,0.0,0.0,0.0,0.0,0.0,0.0,0.0,0.0,0.0,0.0,0.0,0.0,0.0,0.0,0.0,0.0,0.0,0.0,0.0,0.0,0.0,0.0,0.0,0.0,0.0,0.0,0.0,0.0,0.0,0.0,0.0,0.0,0.0,0.0,0.0,0.0,0.0,0.0,0.0,0.0,0.0,0.0,0.0,0.0,0.0,0.0,0.0,0.0,0.0,0.0,0.0,0.4145,0.3567,0.403,0.7017,1.2573,0.5533,0.6608,0.0,0.0,0.0,0.0,0.0,0.0,0.0,0.0,0.0,0.0,0.0,0.0,0.0,0.0,0.0,0.0,0.0,0.0,0.0,0.0,0.0,0.0,0.0,0.0,0.0,0.0,0.0,0.0,0.0,0.0,0.0,0.0,0.0,0.0,0.0,0.0,0.0,0.0,0.0,0.0,0.0,0.0,0.0,0.0,0.0,0.0,0.0,0.0,1.7815,0.0,0.0,0.0,0.0,0.0,0.0,0.0,0.0,0.0,0.0,0.0,0.0,0.0,0.0,0.0,0.0,0.0,0.0,0.0,0.0,0.0,0.0,0.0,0.0,0.0,0.0,0.0,0.0,0.0,0.0,0.0,0.0,0.0,0.0,0.0,0.0,0.0,0.0,0.0,0.0,0.0,0.0,0.0,0.0,0.0,0.0,0.0,0.0,0.0,0.0,0.0,0.0,0.0,0.0,0.0,0.0,0.0,0.0,0.0,0.4431,0.428,0.5047,0.7938,1.2711,0.7964,0.9003,0.0,0.0,0.0,0.0,0.0,0.0,0.0,0.0,0.0,0.0,0.0,0.0,0.0,0.0,0.0,0.0,0.0,0.0,0.0,0.0,0.0,0.0,0.0,0.0,0.0,0.0,0.0,0.0,0.0,0.0,0.0,0.0,0.0,0.0,0.0,0.0,0.0,0.0,0.0,0.0,0.0,0.0,0.0,0.0,0.0,0.0,0.0,0.0,0.0,0.0,0.0,0.0,0.0,0.0,0.0,0.0,0.0,0.0,0.0,0.0,0.0,0.0,0.0,0.0,0.0,0.0,0.0,0.0,0.0,0.0,0.0,0.0,0.0,0.0,0.0,0.0,0.0,0.0,0.0,0.0,0.0,0.0,0.0,0.0,0.0,0.0,0.0,0.0,0.0,0.0,0.0,0.0,0.0,0.0,0.0,0.0,0.0,0.0,0.0,0.0,0.0,0.0,0.0,0.0,0.0,0.0,0.0,0.4563,0.4581,0.4546,0.5437,0.8282,1.3001,1.1803,1.2731,1.6266,0.0,0.0,0.0,0.0,0.0,0.0,0.0,0.0,0.0,0.0,0.0,0.0,0.0,0.0,0.0,0.0,0.0,0.0,0.0,0.0,0.0,0.0,0.0,0.0,0.0,0.0,0.0,0.0,0.0,0.0,0.0,0.0,0.0,0.0,0.0,0.0,0.0,0.0,1.4692,1.5085,0.0,0.0,0.0,0.0,0.0,0.0,0.0,0.0,1.7593,0.0,0.0,0.0,0.0,0.0,0.0,0.0,0.0,0.0,0.0,0.0,0.0,0.0,0.0,0.0,0.0,0.0,0.0,0.0,0.0,0.0,0.0,0.0,0.0,0.0,0.0,0.0,0.0,0.0,0.0,0.0,0.0,0.0,0.0,0.0,0.0,0.0,0.0,0.0,0.0,0.0,0.0,0.0,0.0,0.0,0.0,0.0,0.0,0.0,0.0,0.0,0.0,0.0,0.0,0.0,0.0,0.4878,0.5286,0.6608,0.892,1.1831,1.4604,1.7202,1.76,1.7391,1.6466,0.0,0.0,0.0,0.0,0.0,0.0,0.0,0.0,0.0,0.0,0.0,0.0,0.0,0.0,0.0,0.0,0.0,0.0,0.0,0.0,0.0,0.0,0.0,0.0,0.0,0.0,0.0,0.0,0.0,0.0,0.0,0.0,0.0,0.0,0.0,0.0,0.0,0.0,0.0,1.4014,1.4186,0.0,0.0,0.0,0.0,0.0,0.0,0.0,0.0,1.7908,0.0,0.0,0.0,0.0,0.0,0.0,0.0,0.0,0.0,0.0,0.0,0.0,0.0,0.0,0.0,0.0,0.0,0.0,0.0,0.0,0.0,0.0,0.0,0.0,0.0,0.0,0.0,0.0,0.0,0.0,0.0,0.0,0.0,0.0,0.0,0.0,0.0,0.0,0.0,0.0,0.0,0.0,0.0,0.0,0.0,0.0,0.0,0.0,0.0,0.0,0.0,0.0,0.0,0.0,0.0,0.4888,0.5467,0.7107,0.9909,1.2716,1.5043,1.6841,1.7939,1.7467,0.0,0.0,0.0,0.0,0.0,0.0,0.0,0.0,0.0,0.0,0.0,0.0,0.0,0.0,0.0,0.0,0.0,0.0,0.0,0.0,0.0,0.0,0.0,0.0,0.0,0.0,0.0,0.0,0.0,0.0,0.0,0.0,0.0,0.0,0.0,0.0,0.0,0.0,0.0,0.0,1.2556,1.1849,1.3237,0.0,0.0,0.0,0.0,0.0,0.0,1.6818,1.7204,0.0,0.0,0.0,0.0,0.0,0.0,0.0,0.0,0.0,0.0,0.0,0.0,0.0,0.0,0.0,0.0,0.0,0.0,0.0,0.0,0.0,0.0,0.0,0.0,0.0,0.0,0.0,0.0,0.0,0.0,0.0,0.0,0.0,0.0,0.0,0.0,0.0,0.0,0.0,0.0,0.0,0.0,0.0,0.0,0.0,0.0,0.0,0.0,0.0,0.0,0.0,0.0,0.0,0.0,0.0,0.494,0.5579,0.7152,0.9687,1.1959,1.3886,1.5466,1.6481,1.6051,0.0,0.0,0.0,0.0,0.0,0.0,0.0,0.0,0.0,0.0,0.0,0.0,0.0,0.0,0.0,0.0,0.0,0.0,0.0,0.0,0.0,0.0,0.0,0.0,0.0,0.0,0.0,0.0,0.0,0.0,0.0,0.0,0.0,0.0,0.0,0.0,0.0,0.0,0.0,0.0,0.0,0.9748,1.0225,0.981,0.0,0.0,0.0,0.0,1.4601,1.4349,0.0,0.0,0.0,0.0,0.0,0.0,0.0,0.0,0.0,0.0,0.0,0.0,0.0,0.0,0.0,0.0,0.0,0.0,0.0,0.0,0.0,0.0,0.0,0.0,0.0,0.0,0.0,0.0,0.0,0.0,0.0,0.0,0.0,0.0,0.0,0.0,0.0,0.0,0.0,0.0,0.0,0.0,0.0,0.0,0.0,0.0,0.0,0.0,0.0,0.0,0.0,0.0,0.0,0.0,0.0,0.0,0.5414,0.603,0.7244,0.9114,1.1384,1.3416,1.5078,1.4798,1.4553,0.0,0.0,0.0,0.0,0.0,0.0,0.0,0.0,0.0,0.0,0.0,0.0,0.0,0.0,0.0,0.0,0.0,0.0,0.0,0.0,0.0,0.0,0.0,0.0,0.0,0.0,0.0,0.0,0.0,0.0,0.0,0.0,0.0,0.0,0.0,0.0,0.0,0.0,0.0,0.0,0.0,0.8838,0.9818,0.8158,0.7311,0.0,0.0,0.9006,0.8556,0.8119,0.0,0.0,0.0,0.0,0.0,0.0,0.0,0.0,0.0,0.0,0.0,0.0,0.0,0.0,0.0,0.0,0.0,0.0,0.0,0.0,0.0,0.0,0.0,0.0,0.0,0.0,0.0,0.0,0.0,0.0,0.0,0.0,0.0,0.0,0.0,0.0,0.0,0.0,0.0,0.0,0.0,0.0,0.0,0.0,0.0,0.0,0.0,0.0,0.0,0.0,0.0,0.0,0.0,0.0,0.0,0.4972,0.5393,0.5978,0.7049,0.8666,1.0835,1.2519,1.3598,1.385,1.3688,0.0,0.0,0.0,0.0,0.0,0.0,0.0,0.0,0.0,0.0,0.0,0.0,0.0,0.0,0.0,0.0,0.0,0.0,0.0,0.0,0.0,0.0,0.0,0.0,0.0,0.0,0.0,0.0,0.0,0.0,0.0,0.0,0.0,0.0,0.0,0.0,0.0,0.0,0.0,0.0,0.0,0.0,0.6318,0.5009,0.0,0.0,0.0,0.6568,0.7189,0.0,0.0,0.0,0.0,0.0,0.0,0.0,0.0,0.0,0.0,0.0,0.0,0.0,0.0,0.0,0.0,0.0,0.0,0.0,0.0,0.0,0.0,0.0,0.0,0.0,0.0,0.0,0.0,0.0,0.0,0.0,0.0,0.0,0.0,0.0,0.0,0.0,0.0,0.0,0.0,0.0,0.0,0.0,0.0,0.0,0.0,0.0,0.0,0.0,0.0,0.0,0.0,0.0,0.0,0.0,0.0,0.0,0.5304,0.5814,0.672,0.8003,0.9418,1.0487,1.1102,1.1292,0.0,0.0,0.0,0.0,0.0,0.0,0.0,0.0,0.0,0.0,0.0,0.0,0.0,0.0,0.0,0.0,0.0,0.0,0.0,0.0,0.0,0.0,0.0,0.0,0.0,0.0,0.0,0.0,0.0,0.0,0.0,0.0,0.0,0.0,0.0,0.0,0.0,0.0,0.0,0.0,0.0,0.0,0.459,0.3464,0.2531,0.182,0.0,0.0,0.3826,0.4847,0.3858,0.3716,0.0,0.0,0.0,0.0,0.0,0.0,0.0,0.0,0.0,0.0,0.0,0.0,0.0,0.0,0.0,0.0,0.0,0.0,0.0,0.0,0.0,0.0,0.0,0.0,0.0,0.0,0.0,0.0,0.0,0.0,0.0,0.0,0.0,0.0,0.0,0.0,0.0,0.0,0.0,0.0,0.0,0.0,0.0,0.0,0.0,0.0,0.0,0.0,0.0,0.0,0.0,0.0,0.0,0.0,0.0,0.5307,0.5654,0.6208,0.6968,0.6583,0.6701,0.7306,0.5685,0.5312,0.0,0.0,0.0,0.0,0.0,0.0,0.0,0.0,0.0,0.0,0.0,0.0,0.0,0.0,0.0,0.0,0.0,0.0,0.0,0.0,0.0,0.0,0.0,0.0,0.0,0.0,0.0,0.0,0.0,0.0,0.0,0.0,0.0,0.0,0.0,0.0,0.0,0.0,0.0,0.0,0.0,0.4804,0.2764,0.1781,0.1092,0.0,0.0,0.0107,-0.0758,-0.2091,-0.1864,0.1785,0.0,0.0,0.0,0.0,0.0,0.0,0.0,0.0,0.0,0.0,0.0,0.0,0.0,0.0,0.0,0.0,0.0,0.0,0.0,0.0,0.0,0.0,0.0,0.0,0.0,0.0,0.0,0.0,0.0,0.0,0.0,0.0,0.0,0.0,0.0,0.0,0.0,0.0,0.0,0.0,0.0,0.0,0.0,0.0,0.0,0.0,0.0,0.0,0.0,0.0,0.0,0.0,0.0,0.5032,0.5126,0.5227,0.5534,0.6022,0.6135,0.6231,0.6305,0.5075,0.4603,0.0,0.0,0.0,0.0,0.0,0.0,0.0,0.0,0.0,0.0,0.0,0.0,0.0,0.0,0.0,0.0,0.0,0.0,0.0,0.0,0.0,0.0,0.0,0.0,0.0,0.0,0.0,0.0,0.7463,0.771,0.7745,0.0,0.0,0.0,0.0,0.0,0.0,0.0,0.0,0.0,0.0,0.4878,0.3027,0.1875,0.0,0.0,-0.0428,-0.1174,-0.1668,-0.2746,-0.3011,-0.15,-0.1138,0.0,0.0,0.0,0.0,0.0,0.0,0.0,0.0,0.0,0.0,0.0,0.0,0.0,0.0,0.0,0.0,0.0,0.0,0.0,0.0,0.0,0.0,0.0,0.0,0.0,0.0,0.0,0.0,0.0,0.0,0.0,0.0,0.0,0.0,0.0,0.0,0.0,0.0,0.0,0.0,0.0,0.0,0.0,0.0,0.0,0.0,0.0,0.0,0.0,0.0,0.0,0.0,0.4877,0.4907,0.4821,0.49,0.5139,0.4969,0.467,0.4245,0.3127,0.2588,0.0,0.0,0.0,0.0,0.0,0.0,0.0,0.0,0.0,0.0,0.0,0.0,0.0,0.0,0.0,0.0,0.0,0.0,0.0,0.0,0.0,0.0,0.0,0.0,0.0,0.0,0.0,0.0,0.6821,0.7055,0.707,0.0,0.0,0.0,0.0,0.0,0.0,0.0,0.0,0.0,0.0,0.4847,0.3342,0.2137,0.1165,0.0565,-0.0546,-0.1376,-0.1455,-0.2282,-0.2874,-0.288,0.0,0.0,0.0,0.0,0.0,0.0,0.0,0.0,0.0,0.0,0.0,0.0,0.0,0.0,0.0,0.0,0.0,0.0,0.0,0.0,0.0,0.0,0.0,0.0,0.0,0.0,0.0,0.0,0.0,0.0,0.0,0.0,0.0,0.0,0.0,0.0,0.0,0.0,0.0,0.0,0.0,0.0,0.0,0.0,0.0,0.0,0.0,0.0,0.0,0.0,0.0,0.0,0.0,0.4585,0.4703,0.4457,0.4306,0.4264,0.2568,0.1333,0.0588,-0.1168,-0.1799,-0.1111,0.0,0.0,0.0,0.0,0.0,0.0,0.0,0.0,0.0,0.0,0.0,0.0,0.0,0.0,0.0,0.0,0.0,0.0,0.0,0.0,0.0,0.0,0.0,0.0,0.0,0.0,0.5517,0.5544,0.5732,0.0,0.0,0.0,0.0,0.0,0.0,0.0,0.0,0.0,0.0,0.5732,0.4718,0.3626,0.2511,0.1571,0.0967,0.0091,-0.0547,-0.0564,-0.1219,-0.1765,0.0,0.0,0.0,0.0,0.0,0.0,0.0,0.0,0.0,0.0,0.0,0.0,0.0,0.0,0.0,0.0,0.0,0.0,0.0,0.0,0.0,0.0,0.0,0.0,0.0,0.0,0.0,-0.0022,0.0132,0.0,0.0,0.0,0.0,0.0,0.0,0.0,0.0,0.0,0.0,0.0,0.229,0.2336,0.0,0.0,0.0,0.0,0.0,0.0,0.0,0.0,0.0,0.0,0.0,0.0,0.4396,0.4426,0.4168,0.3816,0.3375,0.2286,0.1142,-0.0021,-0.1084,-0.1542,-0.1301,0.0,0.0,0.0,0.0,0.0,0.0,0.0,0.0,0.0,0.0,0.0,0.0,0.0,0.0,0.0,0.0,0.0,0.0,0.0,0.0,0.0,0.0,0.0,0.0,0.0,0.5029,0.0,0.0,0.0,0.0,0.0,0.0,0.0,0.0,0.0,0.0,0.0,0.6283,0.6167,0.577,0.5126,0.4122,0.3119,0.2083,0.0,0.0,0.0,0.0,0.0,0.0,0.0,0.0,0.0,0.0,0.0,0.0,0.0,0.0,0.5684,0.7281,0.733,0.7193,0.7321,0.0,0.0,0.0,0.0,0.0,0.0,0.0,0.0,0.0,0.0,0.0,0.0,0.0,0.0,-0.0023,0.0,0.0254,0.0,0.0,0.0,0.0,0.0,0.0,0.0,0.0,0.1078,0.1571,0.2189,0.2263,0.2554,0.0,0.3098,0.3378,0.0,0.0,0.0,0.0,0.0,0.0,0.0,0.0,0.4009,0.4007,0.3672,0.3295,0.2886,0.2013,0.1094,0.0087,-0.0722,-0.12,-0.1311,-0.0816,-0.023,0.0,0.0,0.0,0.0,0.0,0.0,0.0,0.0,0.0,0.0,0.0,0.0,0.0,0.0,0.0,0.0,0.0,0.0,0.0,0.0,0.0,0.0,0.0,0.4783,0.0,0.0,0.0,0.0,0.0,0.0,0.0,0.0,0.0,0.582,0.6065,0.6135,0.6017,0.5805,0.5297,0.4275,0.0,0.0,0.0,0.0,0.0,0.0,0.0,-0.0587,-0.0192,-0.0077,0.0291,0.128,0.2164,0.292,0.3402,0.0,0.0,0.5787,0.5731,0.5548,0.5806,0.5862,0.602,0.6551,0.7021,0.7473,0.0,0.0,0.0,0.0,0.0,0.0,0.0,0.0,-0.1011,-0.074,0.0,-0.0292,0.0,0.0,0.0,0.0,0.0,0.0322,0.0,0.0,0.1108,0.149,0.1994,0.2274,0.2653,0.3131,0.2924,0.3045,0.35,0.4029,0.0,0.0,0.0,0.0,0.0,0.0,0.3504,0.3528,0.3024,0.2775,0.2846,0.1749,0.1022,0.0739,-0.0307,-0.0999,-0.124,-0.0837,-0.0511,-0.0314,0.0641,0.0,0.0,0.0,0.0,0.0,0.0,0.0,0.0,0.0,0.0,0.0,0.0,0.0,0.0,0.0,0.0,0.0,0.0,0.0,0.0,0.4018,0.0,0.0,0.0,0.0,0.0,0.0,0.0,0.0,0.0,0.0,0.5875,0.6212,0.6402,0.6184,0.0,0.0,0.0,0.0,0.2543,0.2037,0.1283,0.0631,0.0357,0.0147,0.0021,0.0042,0.0,0.0,0.1977,0.2843,0.3483,0.3689,0.4103,0.4424,0.4513,0.4843,0.511,0.5348,0.5427,0.5564,0.5933,0.6461,0.6912,-0.1386,0.0,0.0,0.0,0.0,-0.0562,-0.0356,-0.0281,0.0025,0.0271,0.039,0.0588,0.0,0.0,0.0,0.0,0.0,0.0,0.1098,0.1456,0.1527,0.1749,0.2071,0.2203,0.2335,0.249,0.273,0.3064,0.3444,0.3739,0.3957,0.413,0.0,0.0,0.0,0.0,0.3818,0.3953,0.3471,0.303,0.2703,0.2018,0.1204,0.0267,-0.0218,-0.0577,-0.0793,-0.0673,-0.0584,-0.0584,0.0159,0.0,0.0,0.0,0.0,0.0,0.0,0.0,0.0,0.0,0.0,0.0,0.0,0.0,0.0,0.0,0.0,0.0,0.0,0.0,0.311,0.3218,0.3407,0.0,0.0,0.0,0.0,0.0,0.0,0.0,0.0,0.0,0.6139,0.5944,0.5694,0.0,0.0,0.4671,0.4078,0.3379,0.2646,0.1891,0.0,0.0,0.0,0.0653,0.0758,0.0905,0.1534,0.2153,0.2541,0.3331,0.3982,0.423,0.4577,0.4986,0.5481,0.5312,0.5156,0.5255,0.5438,0.5703,0.6093,0.6588,0.7116,-0.0964,-0.0872,-0.0715,-0.0656,-0.0631,-0.0189,0.0081,0.0216,0.0505,0.0678,0.0796,0.0957,0.1007,0.1001,0.1189,0.0,0.0,0.0,0.1344,0.1731,0.1628,0.1753,0.2023,0.2272,0.2538,0.277,0.3109,0.347,0.3789,0.3901,0.4102,0.4384,0.0,0.0,0.4409,0.3936,0.3761,0.39,0.3396,0.2959,0.2643,0.2084,0.1373,0.0506,0.0251,0.0045,-0.0153,-0.0193,-0.0295,-0.0481,0.0,0.0492,0.0,0.0,0.0,0.0,0.0,0.0,0.0,0.0,0.0,0.0,0.0,0.318,0.0,0.0,0.0,0.0,0.2651,0.2811,0.303,0.3054,0.0,0.0,0.0,0.0,0.0,0.0,0.0,0.5275,0.5761,0.6109,0.6123,0.5849,0.5627,0.5491,0.509,0.4583,0.3978,0.0,0.2823,0.2114,0.1855,0.1532,0.0972,0.1132,0.1492,0.1946,0.2596,0.3112,0.3385,0.3915,0.4367,0.4657,0.5024,0.5431,0.5931,0.5844,0.5752,0.5851,0.6032,0.6294,0.6687,0.7137,0.7574,-0.0443,-0.0472,-0.0498,-0.0486,-0.0433,-0.0114,0.02,0.049,0.0539,0.067,0.0909,0.0921,0.1086,0.1346,0.1342,0.0,0.2141,0.1351,0.1305,0.1814,0.156,0.1603,0.1911,0.2486,0.3037,0.3566,0.3851,0.415,0.4443,0.4403,0.4498,0.4731,0.4391,0.422,0.4248,0.3819,0.3581,0.3557,0.3059,0.2783,0.2704,0.2035,0.1532,0.1266,0.0986,0.0766,0.0556,0.0454,0.0245,-0.0109,0.0131,0.0496,0.0928,0.0,0.0,0.0,0.0,0.0,0.0,0.0,0.0,0.0,0.0,0.0,0.0,0.0,0.0,0.0,0.2782,0.0,0.3307,0.334,0.0,0.0,0.0,0.446,0.4831,0.5329,0.5732,0.5909,0.0,0.0,0.5944,0.0,0.5901,0.5908,0.5433,0.4744,0.3894,0.3487,0.3087,0.2661,0.2186,0.1758,0.1398,0.1646,0.216,0.2924,0.3552,0.3942,0.4271,0.4526,0.4769,0.5028,0.5439,0.5833,0.5966,0.646,0.6846,0.697,0.6984,0.7109,0.7556,0.7869,0.8254,-0.0866,-0.0833,-0.0598,-0.0371,-0.0091,0.0245,0.0425,0.0507,0.0772,0.0911,0.0984,0.1176,0.1426,0.1706,0.1734,0.1835,0.1952,0.1747,0.1722,0.1874,0.1809,0.1813,0.1944,0.2776,0.3238,0.3423,0.4211,0.4714,0.4943,0.4921,0.5049,0.529,0.5072,0.491,0.4891,0.4562,0.4309,0.4103,0.3771,0.3355,0.2866,0.2489,0.2151,0.1805,0.1554,0.1299,0.1042,0.0836,0.0569,0.0267,0.0329,0.0391,0.0475,0.0891,0.0,0.0,0.0,0.0,0.0,0.0,0.0,0.0,0.0,0.2591,0.24,0.0,0.276,0.0,0.3082,0.3431,0.3569,0.3607,0.0,0.0,0.4175,0.4667,0.5344,0.575,0.6066,0.6267,0.6268,0.6268,0.6281,0.6047,0.5907,0.5958,0.5254,0.4635,0.4399,0.3841,0.3407,0.3263,0.3003,0.2677,0.237,0.2242,0.2491,0.3262,0.3693,0.4116,0.4735,0.5084,0.5376,0.5644,0.5978,0.638,0.6784,0.7313,0.7727,0.7954,0.7817,0.7702,0.8135,0.8551,0.8991,-0.0569,-0.0536,-0.0369,-0.0099,0.0225,0.0256,0.0442,0.0746,0.0932,0.1171,0.1456,0.1573,0.1698,0.1862,0.1879,0.1894,0.1906,0.1906,0.1913,0.1955,0.1913,0.1913,0.1985,0.2874,0.322,0.3122,0.4221,0.4745,0.4705,0.4995,0.5226,0.5365,0.5346,0.5309,0.5284,0.4897,0.4576,0.4314,0.3889,0.3483,0.3132,0.287,0.2575,0.2269,0.1996,0.1753,0.1611,0.1327,0.104,0.0771,0.0642,0.0522,0.0363,0.0762,0.118,0.0,0.0,0.0,0.0,0.0,0.0,0.0,0.0,0.0,0.0,0.0,0.3386,0.0,0.3595,0.3806,0.4083,0.3968,0.4023,0.4394,0.4694,0.5212,0.6049,0.6378,0.6647,0.6952,0.6851,0.6807,0.6955,0.6676,0.6534,0.6653,0.6042,0.5405,0.4899,0.4429,0.4095,0.3883,0.3738,0.3537,0.3274,0.3137,0.3293,0.395,0.4394,0.488,0.5514,0.5945,0.6258,0.6459,0.6711,0.6953,0.7178,0.7637,0.8088,0.8347,0.8607,0.881,0.892,0.9163,0.9508,0.0035,0.007,0.007,0.0277,0.0574,0.0297,0.0488,0.1099,0.1132,0.1475,0.2021,0.1939,0.1903,0.1909,0.1909,0.1921,0.1912,0.1912,0.1954,0.1975,0.1949,0.1951,0.2036,0.291,0.3162,0.2959,0.4141,0.4583,0.4307,0.4871,0.5136,0.5162,0.5282,0.5328,0.533,0.4817,0.4484,0.4316,0.3728,0.3431,0.3424,0.3181,0.2937,0.2663,0.2329,0.2125,0.2098,0.1807,0.1526,0.1301,0.1087,0.0837,0.062,0.1025,0.1335,0.0,0.2263,0.0,0.0,0.0,0.0,0.0,0.0,0.0,0.0,0.386,0.4085,0.4456,0.4229,0.4249,0.4634,0.4443,0.4524,0.5097,0.5475,0.6007,0.673,0.7049,0.733,0.7668,0.7488,0.7439,0.7619,0.7437,0.7342,0.7414,0.7042,0.6458,0.5659,0.5284,0.4975,0.4556,0.446,0.4311,0.4118,0.4081,0.4275,0.4837,0.5297,0.5859,0.6396,0.681,0.711,0.7222,0.7371,0.7522,0.7425,0.7919,0.8368,0.8695,0.9458,0.9986,0.9842,0.9899,1.0082,0.0175,0.0491,0.0491,0.0699,0.1044,0.1004,0.1152,0.151,0.1772,0.1953,0.2087,0.2075,0.2067,0.2062,0.2062,0.2052,0.1971,0.1971,0.1993,0.2007,0.1971,0.1971,0.2068,0.3006,0.343,0.3439,0.4377,0.4798,0.4709,0.483,0.489,0.4858,0.4575,0.4477,0.4496,0.0,0.0,0.0,0.3886,0.353,0.3482,0.3425,0.3269,0.2931,0.2618,0.0,0.2124,0.1983,0.1896,0.1843,0.1811,0.0,0.0,0.0,0.0,0.0,0.0,0.0,0.0,0.0,0.0,0.0,0.4885,0.4764,0.3731,0.4268,0.4756,0.4884,0.5035,0.5094,0.5021,0.5186,0.5406,0.558,0.6261,0.6784,0.6975,0.7436,0.7745,0.7683,0.7657,0.7642,0.7694,0.7628,0.7633,0.768,0.7374,0.7168,0.7188,0.6378,0.5782,0.5656,0.5334,0.5017,0.496,0.4814,0.4947,0.5589,0.5842,0.6217,0.6917,0.7131,0.7278,0.7509,0.7737,0.8126,0.8596,0.9153,0.9563,0.9882,1.0452,1.0818,1.0641,1.0941,1.1279,0.0719,0.0,0.0894,0.1105,0.0,0.1452,0.1605,0.1903,0.189,0.1996,0.212,0.2118,0.2176,0.2355,0.2355,0.2409,0.2552,0.2552,0.2542,0.2526,0.2525,0.2452,0.2309,0.312,0.3323,0.3054,0.3976,0.4329,0.4177,0.445,0.46,0.46,0.4529,0.4421,0.4272,0.3708,0.362,0.4035,0.3895,0.3712,0.3542,0.3541,0.3388,0.3061,0.0,0.0,0.0,0.0,0.0,0.0,0.0,0.0,0.0,0.0,0.0,0.2495,0.3249,0.3843,0.4162,0.4844,0.5251,0.5302,0.5701,0.5625,0.484,0.5201,0.5553,0.5783,0.577,0.5785,0.5881,0.6053,0.6236,0.6451,0.6955,0.7396,0.7725,0.8132,0.8352,0.8315,0.8381,0.8411,0.8299,0.8146,0.813,0.8182,0.8104,0.8039,0.8003,0.7243,0.6619,0.6619,0.6154,0.5871,0.5976,0.5794,0.5842,0.6548,0.6833,0.7157,0.7696,0.7995,0.8148,0.8208,0.8492,0.8866,0.9098,0.9683,1.0225,1.0553,1.12,1.1742,1.1771,1.1788,1.1879,0.1256,0.1318,0.1315,0.1487,0.1795,0.1795,0.1961,0.218,0.0,0.0,0.0,0.212,0.2268,0.2536,0.2535,0.2662,0.2915,0.2914,0.2943,0.2936,0.2936,0.2789,0.2565,0.3101,0.3113,0.2675,0.3449,0.3761,0.3638,0.4091,0.4331,0.4327,0.4512,0.4381,0.3942,0.3391,0.3205,0.3371,0.3648,0.3676,0.3449,0.3449,0.3359,0.3124,0.3104,0.3052,0.292,0.2604,0.2354,0.2193,0.217,0.2057,0.1876,0.251,0.3009,0.3245,0.4203,0.4902,0.5212,0.5734,0.6107,0.6195,0.636,0.6335,0.6054,0.6097,0.6253,0.6515,0.6332,0.6321,0.6647,0.6723,0.6887,0.7184,0.7532,0.7962,0.8429,0.8733,0.8865,0.892,0.8985,0.909,0.8872,0.8699,0.8604,0.8703,0.8762,0.8878,0.8603,0.7903,0.7328,0.7276,0.6897,0.6735,0.6904,0.6814,0.6915,0.7524,0.7888,0.8226,0.86,0.8982,0.9163,0.9103,0.9373,0.9548,0.9651,1.0244,1.0753,1.1078,1.1909,1.2656,1.2851,1.2675,1.2576,0.141,0.1703,0.1721,0.1894,0.2217,0.2217,0.2239,0.228,0.219,0.2161,0.2186,0.2193,0.2213,0.2243,0.2243,0.226,0.2235,0.2234,0.2252,0.0,0.2258,0.2223,0.2186,0.254,0.2826,0.3046,0.346,0.378,0.3998,0.4048,0.4053,0.4046,0.381,0.336,0.2714,0.2797,0.274,0.2488,0.2807,0.2952,0.2923,0.2893,0.2989,0.3178,0.3127,0.2965,0.2672,0.3267,0.3392,0.291,0.3551,0.3926,0.39,0.3967,0.4075,0.4153,0.4763,0.5196,0.5304,0.5898,0.6466,0.6903,0.698,0.6723,0.6156,0.6508,0.6671,0.6402,0.6528,0.6568,0.6492,0.6883,0.7203,0.7339,0.7944,0.8401,0.854,0.8795,0.8964,0.8968,0.8923,0.8958,0.8975,0.8886,0.8879,0.8889,0.8979,0.9009,0.9104,0.8541,0.7927,0.7703,0.7598,0.7545,0.7625,0.7575,0.7782,0.8249,0.8657,0.9038,0.9564,0.9735,0.9917,1.0045,1.0067,1.0278,1.0907,1.1433,1.1815,1.2228,1.2872,1.3333,1.3434,1.3645,1.3844,0.1936,0.2059,0.2082,0.215,0.2296,0.2296,0.2289,0.2274,0.2268,0.223,0.2198,0.2201,0.229,0.2458,0.2492,0.255,0.2698,0.2699,0.2689,0.2706,0.2705,0.2596,0.2383,0.2546,0.2665,0.2839,0.2966,0.332,0.38,0.3808,0.3892,0.4015,0.368,0.3223,0.275,0.2654,0.2464,0.2147,0.2732,0.2943,0.2824,0.2795,0.2844,0.2969,0.3294,0.34,0.3206,0.3791,0.3954,0.3646,0.4061,0.4301,0.4303,0.448,0.4645,0.4785,0.5176,0.5585,0.5969,0.6581,0.7054,0.7304,0.7402,0.7256,0.6897,0.7,0.7059,0.6953,0.7015,0.702,0.7012,0.7439,0.7756,0.7786,0.8519,0.8989,0.9044,0.9403,0.9599,0.9461,0.9544,0.9568,0.9406,0.9379,0.9406,0.9375,0.9375,0.9506,0.9812,0.9394,0.8993,0.8838,0.8733,0.8652,0.8622,0.8625,0.883,0.923,0.9557,1.0017,1.0554,1.0746,1.0796,1.0914,1.0966,1.121,1.1746,1.2107,1.2497,1.2836,1.3473,1.3855,1.3991,1.4538,1.4942,0.2393,0.2307,0.2299,0.2296,0.2296,0.2296,0.2296,0.2293,0.2303,0.2264,0.2219,0.2182,0.2334,0.2571,0.2596,0.2726,0.296,0.296,0.2959,0.296,0.296,0.281,0.2552,0.2517,0.2568,0.2609,0.2606,0.2931,0.3448,0.3503,0.3653,0.393,0.3667,0.34,0.3102,0.2821,0.2512,0.2293,0.2868,0.2975,0.2648,0.2678,0.2792,0.2959,0.3492,0.3791,0.3732,0.4217,0.4419,0.423,0.4473,0.4589,0.4591,0.4847,0.5088,0.5295,0.5557,0.6007,0.6673,0.7237,0.757,0.76,0.7747,0.7793,0.7724,0.766,0.7584,0.761,0.7599,0.7614,0.7739,0.8068,0.8335,0.8414,0.8997,0.9382,0.9517,0.9929,1.0154,0.9886,1.0067,1.011,0.9883,0.9789,0.9844,0.9981,1.0005,1.0119,1.0363,1.0202,1.0036,1.0005,0.9761,0.9554,0.9655,0.9699,0.9913,1.0331,1.0696,1.1149,1.1626,1.1814,1.1841,1.1869,1.1881,1.2054,1.2288,1.2645,1.3072,1.346,1.4045,1.4508,1.4688,1.5207,1.5683,0.2403,0.2372,0.2308,0.2296,0.2296,0.2296,0.2296,0.2293,0.2303,0.2289,0.2276,0.2222,0.2196,0.2226,0.2235,0.229,0.2323,0.2289,0.2322,0.2323,0.2289,0.2254,0.225,0.2251,0.2385,0.2648,0.268,0.2843,0.3207,0.3174,0.3333,0.3614,0.3603,0.3545,0.3407,0.3181,0.3023,0.299,0.3006,0.2703,0.2152,0.2366,0.2745,0.3251,0.361,0.3793,0.3826,0.464,0.487,0.4423,0.5072,0.5457,0.5489,0.5496,0.5557,0.559,0.5886,0.6359,0.7067,0.7473,0.7755,0.7856,0.8149,0.834,0.8317,0.8447,0.8381,0.8137,0.8238,0.832,0.8349,0.851,0.8729,0.8912,0.9234,0.9485,0.9721,0.9975,1.0029,0.9827,1.0084,1.0032,0.998,0.9954,1.0119,1.0555,1.0637,1.0692,1.0911,1.0802,1.0692,1.0747,1.0335,1.0088,1.039,1.0582,1.0863,1.1552,1.1996,1.228,1.259,1.2803,1.2858,1.2888,1.2638,1.2752,1.3154,1.3455,1.3726,1.4304,1.4749,1.5124,1.5523,1.5801,1.5872,0.2395,0.2351,0.2301,0.2296,0.2296,0.2296,0.2296,0.2295,0.2285,0.2279,0.2275,0.2272,0.2234,0.22,0.2187,0.2206,0.2188,0.2188,0.2188,0.2188,0.2188,0.2188,0.2188,0.2188,0.229,0.2391,0.2391,0.2592,0.2892,0.3078,0.3213,0.3337,0.3525,0.3532,0.3297,0.3355,0.3292,0.3134,0.3083,0.2915,0.2688,0.2739,0.2891,0.318,0.3789,0.4144,0.424,0.5083,0.5505,0.5292,0.5593,0.5864,0.6043,0.6075,0.6165,0.6348,0.6679,0.7087,0.7584,0.7925,0.822,0.8452,0.861,0.8702,0.8702,0.8921,0.8952,0.8809,0.8672,0.8624,0.8715,0.8856,0.8945,0.906,0.944,0.9761,0.98,1.0204,1.0457,1.0539,1.0643,1.0754,1.085,1.0857,1.0966,1.1185,1.124,1.1276,1.1377,1.1295,1.1295,1.1322,1.1076,1.0884,1.0994,1.1295,1.1591,1.1946,1.2387,1.2849,1.3506,1.3685,1.3773,1.3963,1.3875,1.3908,1.4352,1.461,1.4881,1.5242,1.5356,1.5625,1.5957,1.6376,1.6629,0.2356,0.2311,0.2337,0.2296,0.2296,0.2296,0.2296,0.2296,0.2296,0.2296,0.2294,0.2275,0.2274,0.2228,0.2217,0.2196,0.2204,0.2201,0.2196,0.219,0.2188,0.2188,0.2188,0.2188,0.2188,0.2188,0.2188,0.2324,0.2593,0.2894,0.3046,0.3054,0.338,0.3453,0.3314,0.3534,0.3566,0.3405,0.3395,0.3489,0.3651,0.3638,0.349,0.3383,0.3986,0.4439,0.4562,0.5394,0.5888,0.5886,0.607,0.6285,0.6497,0.653,0.6681,0.7021,0.7355,0.7689,0.8022,0.8366,0.8644,0.8885,0.8946,0.9007,0.9068,0.9278,0.9427,0.9414,0.9182,0.9072,0.9098,0.9187,0.9245,0.9307,0.9795,1.0077,1.0224,1.0616,1.089,1.1058,1.1074,1.1291,1.1527,1.1623,1.1678,1.1678,1.1754,1.1749,1.1736,1.1694,1.167,1.1718,1.1705,1.165,1.1509,1.1755,1.2114,1.2627,1.3088,1.3576,1.4256,1.4385,1.4428,1.4523,1.4922,1.5153,1.5188,1.5466,1.577,1.5831,1.5937,1.6116,1.6397,1.6902,1.7223,0.2405,0.2373,0.2308,0.2296,0.2296,0.2296,0.2296,0.2296,0.2296,0.2296,0.2296,0.2293,0.2278,0.2284,0.2222,0.2192,0.2201,0.2196,0.2181,0.2193,0.219,0.2188,0.2188,0.2188,0.2188,0.2188,0.2188,0.2222,0.229,0.2559,0.2727,0.2724,0.3054,0.3368,0.3561,0.3653,0.385,0.4043,0.4034,0.4351,0.5014,0.5054,0.4661,0.41,0.4289,0.4666,0.494,0.555,0.5921,0.5921,0.6502,0.6839,0.69,0.69,0.7051,0.7355,0.7689,0.8022,0.8358,0.8699,0.8885,0.8946,0.9186,0.9281,0.9324,0.9571,0.9761,0.9775,0.9714,0.9657,0.961,0.961,0.9749,1.0102,1.0221,1.0542,1.1011,1.1028,1.1086,1.1138,1.1345,1.1597,1.1648,1.181,1.2019,1.2083,1.216,1.2251,1.2133,1.2003,1.2044,1.2101,1.2096,1.2091,1.2282,1.2332,1.2871,1.3386,1.3684,1.425,1.4659,1.4955,1.4991,1.5053,1.5247,1.5495,1.5742,1.6011,1.6236,1.6392,1.6564,1.6739,1.6838,1.6944,1.7277,0.2357,0.2348,0.2337,0.2296,0.2296,0.2296,0.2296,0.2296,0.2296,0.2296,0.2296,0.2296,0.2291,0.2281,0.2271,0.2239,0.2195,0.2209,0.2194,0.2182,0.2197,0.2188,0.2188,0.2188,0.2188,0.2188,0.2188,0.2188,0.2188,0.2324,0.2391,0.2458,0.2727,0.3052,0.3375,0.3639,0.3941,0.4239,0.4251,0.4385,0.4697,0.5035,0.5211,0.5182,0.5683,0.5987,0.6113,0.6467,0.6682,0.6682,0.6813,0.699,0.7204,0.7416,0.7566,0.7719,0.8027,0.8366,0.8699,0.9004,0.9244,0.9457,0.9548,0.9659,0.9732,0.9848,0.9974,1.0073,0.9981,0.9944,1.0026,1.0049,1.0111,1.029,1.055,1.0774,1.0939,1.1109,1.131,1.1685,1.2128,1.2489,1.2477,1.2641,1.2702,1.2735,1.2913,1.2965,1.3016,1.3083,1.3177,1.3231,1.3174,1.3109,1.3192,1.2895,1.2989,1.3554,1.404,1.4552,1.5014,1.5256,1.5303,1.5532,1.5661,1.6047,1.6404,1.6775,1.6946,1.7084,1.7244,1.7218,1.723,1.7437,1.7724,0.235,0.2301,0.2296,0.2296,0.2296,0.2296,0.2296,0.2296,0.2296,0.2296,0.2296,0.2296,0.2296,0.2296,0.2296,0.2277,0.2237,0.2208,0.2224,0.2213,0.2183,0.2204,0.2201,0.2193,0.2188,0.2188,0.2188,0.2188,0.2188,0.2188,0.2188,0.2223,0.2526,0.2861,0.3194,0.3599,0.3969,0.4239,0.4307,0.4407,0.4704,0.5298,0.5895,0.638,0.7012,0.7235,0.6983,0.7199,0.727,0.7265,0.7296,0.7365,0.7574,0.778,0.7933,0.8089,0.8366,0.8702,0.9004,0.9308,0.9571,0.9829,0.9866,0.993,1.0069,1.0124,1.0181,1.0229,1.0198,1.0185,1.032,1.043,1.0474,1.0569,1.0891,1.1206,1.1247,1.1383,1.1698,1.2181,1.256,1.2884,1.3065,1.306,1.3079,1.3098,1.3317,1.3471,1.3517,1.3733,1.3967,1.3992,1.3818,1.3714,1.3719,1.3482,1.3527,1.4034,1.431,1.4853,1.5309,1.5529,1.5716,1.5951,1.6318,1.6703,1.7095,1.7486,1.7683,1.7791,1.7829,1.7789,1.7879,1.8023,1.8228,0.2388,0.2302,0.2296,0.2296,0.2296,0.2296,0.2296,0.2296,0.2296,0.2296,0.2296,0.2296,0.2296,0.2296,0.2296,0.2294,0.2284,0.2297,0.2271,0.221,0.2214,0.22,0.2199,0.2206,0.2191,0.2189,0.2188,0.2188,0.2188,0.2188,0.2188,0.2256,0.2526,0.2861,0.3194,0.3599,0.3969,0.4239,0.4307,0.4642,0.5381,0.5975,0.6637,0.7372,0.8097,0.8103,0.7394,0.7596,0.771,0.7657,0.7874,0.8028,0.7874,0.7877,0.803,0.8322,0.8683,0.9013,0.9267,0.9585,0.9845,0.9988,0.9987,1.0086,1.0246,1.028,1.0297,1.0324,1.0339,1.0369,1.0536,1.0717,1.0877,1.101,1.131,1.1646,1.2006,1.2069,1.2143,1.2525,1.2733,1.2793,1.3022,1.3227,1.3279,1.3332,1.3481,1.3684,1.3793,1.4017,1.4031,1.4093,1.4189,1.4249,1.4161,1.4081,1.4323,1.4576,1.4752,1.5095,1.5604,1.5897,1.5977,1.6185,1.663,1.7047,1.7635,1.7979,1.8157,1.8264,1.8303,1.8297,1.8337,1.8434,1.8649,0.2381,0.2362,0.2305,0.2296,0.2296,0.2296,0.2296,0.2296,0.2296,0.2296,0.2296,0.2296,0.2296,0.2296,0.2296,0.2296,0.2295,0.2286,0.2305,0.2275,0.2245,0.2196,0.2191,0.22,0.2208,0.2192,0.2188,0.2188,0.2223,0.2223,0.2188,0.2256,0.2559,0.2861,0.3194,0.3599,0.3969,0.4273,0.4307,0.4644,0.5381,0.6051,0.675,0.7481,0.8218,0.8447,0.8217,0.8174,0.818,0.8138,0.8159,0.8122,0.8042,0.7946,0.8008,0.8237,0.8747,0.9103,0.9334,0.9817,1.0144,1.0195,1.0209,1.028,1.0399,1.0426,1.0473,1.0538,1.0497,1.0581,1.0898,1.1063,1.1217,1.1465,1.1701,1.202,1.2487,1.2697,1.2886,1.301,1.3229,1.3495,1.3726,1.3839,1.3844,1.405,1.4281,1.4502,1.4605,1.4746,1.506,1.5093,1.4988,1.4764,1.473,1.487,1.5227,1.5291,1.5345,1.5558,1.5985,1.6185,1.6264,1.653,1.6975,1.745,1.8062,1.8401,1.8528,1.8638,1.8654,1.8662,1.8657,1.8802,1.9067,0.2436,0.2377,0.2357,0.2306,0.2297,0.2296,0.2296,0.2296,0.2296,0.2296,0.2296,0.2296,0.2296,0.2296,0.2296,0.2296,0.2296,0.2296,0.2396,0.2448,0.2312,0.2228,0.2223,0.2196,0.2312,0.2393,0.2381,0.2476,0.2611,0.2464,0.2391,0.2425,0.2727,0.2995,0.3228,0.3699,0.4104,0.4307,0.4577,0.4945,0.5481,0.6351,0.7018,0.7514,0.8218,0.8587,0.8615,0.8516,0.8429,0.8375,0.8269,0.8166,0.8119,0.8051,0.8043,0.8257,0.8758,0.9229,0.9367,0.991,1.0342,1.0373,1.0358,1.0422,1.0541,1.0578,1.0629,1.0647,1.0636,1.0726,1.1057,1.1229,1.1436,1.1799,1.2035,1.238,1.2828,1.3174,1.335,1.3421,1.355,1.3838,1.4082,1.4207,1.4291,1.456,1.4769,1.5002,1.5086,1.5254,1.5418,1.5521,1.5389,1.5298,1.5359,1.5682,1.612,1.6079,1.6001,1.6238,1.6582,1.6513,1.653,1.6928,1.7371,1.7799,1.8331,1.8627,1.8793,1.8896,1.8993,1.8993,1.9019,1.9284,1.9542,0.2473,0.2423,0.2416,0.2361,0.2302,0.2298,0.2296,0.2296,0.2296,0.2296,0.2296,0.2296,0.2296,0.2296,0.2296,0.2296,0.2296,0.2296,0.2514,0.2687,0.2557,0.2399,0.246,0.2471,0.2593,0.279,0.2766,0.2922,0.315,0.2885,0.2729,0.2761,0.3062,0.3228,0.3396,0.3936,0.4273,0.4374,0.4911,0.5245,0.5515,0.665,0.7483,0.7615,0.8253,0.862,0.8584,0.8573,0.853,0.8399,0.8294,0.8229,0.8212,0.821,0.8183,0.8271,0.8916,0.9247,0.9471,0.9999,1.0388,1.0493,1.051,1.0558,1.0673,1.069,1.0697,1.0717,1.0704,1.0788,1.1043,1.1174,1.1504,1.2029,1.2394,1.2743,1.3194,1.3527,1.3658,1.3718,1.3748,1.3873,1.4262,1.4321,1.4441,1.465,1.4799,1.4972,1.5116,1.5324,1.5353,1.5426,1.5523,1.5626,1.563,1.5969,1.6431,1.687,1.6786,1.6944,1.7135,1.7032,1.7053,1.7444,1.7767,1.8182,1.8548,1.8862,1.9045,1.9131,1.9202,1.9264,1.942,1.9618,1.9957,0.2498,0.2441,0.2435,0.2373,0.2363,0.2343,0.2297,0.2296,0.2296,0.2296,0.2296,0.2296,0.2296,0.2296,0.2296,0.2296,0.2296,0.2296,0.2515,0.2842,0.28,0.2922,0.3152,0.3173,0.3187,0.323,0.3251,0.3261,0.3299,0.3216,0.3125,0.3096,0.3432,0.3599,0.3733,0.407,0.4273,0.4307,0.4475,0.5178,0.6049,0.6485,0.7252,0.8287,0.852,0.862,0.862,0.862,0.8579,0.8541,0.8402,0.8337,0.8329,0.8264,0.8256,0.8453,0.9018,0.9515,0.9687,1.0231,1.0586,1.0617,1.0643,1.064,1.0711,1.0721,1.0721,1.0721,1.0721,1.0932,1.1406,1.1504,1.191,1.2762,1.2961,1.3186,1.3609,1.3723,1.3783,1.4022,1.4067,1.4291,1.4665,1.4823,1.4942,1.518,1.5275,1.5304,1.5388,1.5418,1.5477,1.5512,1.562,1.5744,1.5935,1.6274,1.6745,1.7461,1.7621,1.7713,1.7763,1.7736,1.7849,1.8131,1.8234,1.8572,1.8881,1.9208,1.9279,1.9371,1.9305,1.9331,1.9609,1.9852,2.0223,0.2519,0.2505,0.2469,0.2401,0.2378,0.2358,0.2345,0.2298,0.2296,0.2296,0.2296,0.2296,0.2296,0.2296,0.2296,0.2296,0.2296,0.2296,0.2515,0.2917,0.3279,0.3447,0.3501,0.3497,0.3554,0.3706,0.3651,0.3732,0.3804,0.3663,0.3557,0.3531,0.3711,0.3801,0.38,0.4137,0.4307,0.4374,0.4575,0.5346,0.6319,0.6719,0.7452,0.8387,0.862,0.862,0.862,0.862,0.862,0.8607,0.8524,0.8489,0.8481,0.8394,0.8418,0.8522,0.9177,0.9615,0.9802,1.0323,1.0688,1.0717,1.0721,1.0721,1.0721,1.0721,1.0721,1.0721,1.0817,1.1149,1.1563,1.1753,1.2395,1.3274,1.3381,1.3519,1.4071,1.4106,1.416,1.4342,1.445,1.4575,1.5176,1.5178,1.5304,1.5477,1.5542,1.5542,1.5572,1.5601,1.5601,1.5601,1.5631,1.5779,1.6076,1.6426,1.6962,1.7669,1.8346,1.8426,1.83,1.8267,1.8367,1.8512,1.8706,1.8911,1.9213,1.9452,1.9539,1.9539,1.9415,1.9501,1.9799,2.0153,2.0532,0.2498,0.2512,0.2509,0.2474,0.2425,0.2416,0.2359,0.2299,0.2296,0.2296,0.2296,0.2296,0.2296,0.2296,0.2296,0.2296,0.2296,0.2296,0.2552,0.3025,0.3571,0.3894,0.3639,0.3746,0.3925,0.4096,0.4067,0.4222,0.4292,0.4114,0.4005,0.3949,0.3942,0.3882,0.3983,0.4179,0.4273,0.4441,0.4945,0.5614,0.6384,0.7018,0.7751,0.842,0.862,0.862,0.862,0.862,0.862,0.862,0.862,0.8576,0.8576,0.8612,0.8612,0.8673,0.9172,0.9579,0.9791,1.0256,1.0688,1.0684,1.0721,1.0721,1.0721,1.0721,1.0721,1.082,1.1019,1.1326,1.1685,1.2058,1.27,1.3481,1.3487,1.3703,1.4138,1.4418,1.4567,1.4821,1.4715,1.4927,1.5244,1.5348,1.5264,1.5537,1.5601,1.5601,1.5601,1.5601,1.5601,1.5601,1.5661,1.5779,1.6129,1.6561,1.7167,1.7864,1.8716,1.8979,1.8715,1.868,1.8727,1.8843,1.9012,1.9209,1.9498,1.9671,1.9759,1.9754,1.9629,1.9809,2.0069,2.0478,2.084,0.251,0.2503,0.2517,0.2448,0.2413,0.2426,0.2361,0.2297,0.2296,0.2296,0.2296,0.2296,0.2296,0.2296,0.2296,0.2296,0.2296,0.2296,0.2515,0.2953,0.3753,0.4044,0.4045,0.4228,0.4447,0.4549,0.4544,0.4548,0.4538,0.4474,0.4403,0.4355,0.4271,0.4275,0.4268,0.4265,0.4307,0.4441,0.5012,0.5683,0.6386,0.7085,0.7781,0.852,0.862,0.862,0.862,0.862,0.862,0.862,0.862,0.862,0.862,0.862,0.862,0.8687,0.8987,0.9389,0.9728,1.009,1.0422,1.0684,1.0721,1.0721,1.0721,1.0721,1.0853,1.1016,1.1181,1.1523,1.2038,1.2444,1.291,1.3406,1.3661,1.3916,1.4276,1.4395,1.4642,1.4993,1.5054,1.5165,1.5778,1.5592,1.5539,1.5612,1.5601,1.5601,1.5601,1.5601,1.5601,1.5601,1.5809,1.5981,1.6449,1.6915,1.759,1.8146,1.8887,1.9381,1.9085,1.9046,1.9089,1.9175,1.9304,1.9545,1.982,1.9869,1.995,1.9893,1.9941,2.0188,2.0487,2.0862,2.1253,0.2514,0.2512,0.2497,0.2465,0.2425,0.2405,0.2337,0.2302,0.2296,0.2296,0.2296,0.2296,0.2296,0.2296,0.2296,0.2296,0.2296,0.2296,0.2515,0.2953,0.3535,0.3899,0.4153,0.4482,0.4701,0.4701,0.47,0.4678,0.4653,0.4622,0.4552,0.4559,0.4467,0.4387,0.4401,0.4367,0.4337,0.4344,0.4678,0.5347,0.6319,0.675,0.7584,0.8387,0.862,0.862,0.862,0.862,0.862,0.862,0.862,0.862,0.862,0.862,0.862,0.8653,0.8917,0.9286,0.9658,1.0027,1.0359,1.0651,1.0721,1.0817,1.0883,1.0949,1.1115,1.1416,1.1648,1.1945,1.2441,1.2667,1.3005,1.3367,1.372,1.4039,1.4321,1.4547,1.4828,1.5267,1.5299,1.5482,1.57,1.5695,1.5634,1.5601,1.5601,1.5601,1.5601,1.5601,1.5601,1.5661,1.5952,1.6272,1.6767,1.7349,1.8058,1.8561,1.9039,1.9336,1.9287,1.9332,1.9417,1.9541,1.9689,1.9895,2.0137,2.0154,2.0206,2.0292,2.0426,2.0656,2.1006,2.1526,2.1887,0.2435,0.2514,0.2514,0.248,0.2429,0.2422,0.235,0.2301,0.2296,0.2296,0.2296,0.2296,0.2296,0.2296,0.2296,0.2296,0.2296,0.2296,0.2479,0.2807,0.3172,0.3609,0.3972,0.4336,0.4629,0.4665,0.4701,0.4696,0.4682,0.4653,0.4631,0.4612,0.4561,0.4484,0.444,0.4412,0.4386,0.4373,0.4601,0.5226,0.6254,0.6617,0.7419,0.832,0.862,0.862,0.862,0.862,0.862,0.862,0.862,0.862,0.862,0.862,0.862,0.862,0.8851,0.9153,0.9489,0.9891,1.0256,1.0588,1.0684,1.0886,1.1082,1.1214,1.1413,1.1776,1.2144,1.2441,1.277,1.2803,1.2939,1.3268,1.3621,1.401,1.4334,1.4742,1.5098,1.5443,1.5436,1.5534,1.5702,1.5782,1.5671,1.5601,1.5601,1.5601,1.5601,1.5601,1.5601,1.575,1.6011,1.6655,1.7173,1.776,1.8496,1.8771,1.9185,1.9366,1.9482,1.9683,1.9802,1.9961,2.0146,2.0321,2.0458,2.0482,2.0567,2.0712,2.0855,2.0973,2.1495,2.2198,2.2493,0.22,0.2514,0.2514,0.244,0.2428,0.2423,0.235,0.2302,0.2296,0.2296,0.2296,0.2296,0.2296,0.2296,0.2296,0.2296,0.2296,0.2296,0.2333,0.2515,0.2844,0.3245,0.3682,0.408,0.4409,0.4629,0.4701,0.4701,0.47,0.4689,0.4675,0.467,0.4624,0.4546,0.4523,0.4495,0.4476,0.4494,0.486,0.5585,0.631,0.7054,0.765,0.8554,0.862,0.862,0.862,0.862,0.862,0.862,0.862,0.862,0.862,0.862,0.862,0.862,0.8684,0.892,0.9319,0.9625,0.9927,1.0256,1.0588,1.0886,1.1118,1.128,1.1648,1.2078,1.2474,1.2737,1.277,1.2803,1.2803,1.3034,1.3461,1.3903,1.406,1.4401,1.4947,1.5403,1.5399,1.5437,1.5625,1.5761,1.5655,1.5601,1.5601,1.5601,1.5601,1.5601,1.5601,1.5809,1.61,1.6856,1.7613,1.8263,1.8852,1.8917,1.9214,1.9475,1.9678,2.0018,2.0221,2.0301,2.0466,2.0687,2.077,2.0817,2.0874,2.0968,2.1087,2.1273,2.1939,2.2594,2.2949,0.2003,0.2198,0.2419,0.2465,0.2425,0.2406,0.2374,0.23,0.2296,0.2296,0.2296,0.2296,0.2296,0.2296,0.2296,0.2296,0.2296,0.2296,0.2296,0.237,0.2698,0.3099,0.3501,0.3898,0.43,0.4592,0.4701,0.4701,0.4701,0.47,0.4701,0.4694,0.4667,0.4642,0.4611,0.4542,0.4532,0.4594,0.5027,0.5685,0.6487,0.7452,0.8256,0.849,0.8623,0.862,0.862,0.862,0.862,0.862,0.862,0.862,0.862,0.862,0.862,0.862,0.862,0.8853,0.9289,0.9628,0.9927,1.0422,1.0787,1.1115,1.1449,1.1714,1.2011,1.2408,1.2638,1.2803,1.2803,1.2803,1.2803,1.2902,1.3321,1.3635,1.3808,1.4134,1.463,1.5195,1.5175,1.5283,1.5634,1.5666,1.5618,1.5601,1.5601,1.5601,1.5601,1.5601,1.5601,1.6011,1.6419,1.7332,1.8087,1.8648,1.9062,1.9149,1.9243,1.9504,1.9793,2.0097,2.0349,2.0522,2.0752,2.0967,2.1016,2.1042,2.1115,2.1216,2.1463,2.178,2.2399,2.2921,2.3277,0.1686,0.1838,0.2169,0.2333,0.23,0.2389,0.2361,0.23,0.2296,0.2296,0.2296,0.2296,0.2296,0.2296,0.2296,0.2296,0.2296,0.2296,0.2296,0.237,0.2588,0.299,0.35,0.3827,0.4189,0.4665,0.4701,0.4701,0.4701,0.4701,0.4701,0.47,0.47,0.4681,0.4638,0.4631,0.4589,0.4662,0.4958,0.562,0.6713,0.7812,0.8558,0.8617,0.8603,0.862,0.862,0.862,0.862,0.862,0.862,0.862,0.862,0.862,0.862,0.862,0.8653,0.9056,0.9392,0.9794,1.006,1.0455,1.0953,1.1347,1.1747,1.2078,1.2507,1.2737,1.2803,1.2803,1.2803,1.2803,1.2803,1.2857,1.3124,1.342,1.3605,1.3911,1.4317,1.4682,1.4861,1.52,1.5595,1.5645,1.5607,1.5601,1.5601,1.5601,1.5601,1.5601,1.572,1.6212,1.6832,1.783,1.8538,1.901,1.9272,1.9301,1.9388,1.954,1.9851,2.0126,2.0385,2.0694,2.0938,2.1146,2.1211,2.1211,2.1196,2.1332,2.1767,2.2163,2.2558,2.3171,2.3695,0.0976,0.1391,0.1775,0.1865,0.194,0.2267,0.236,0.2298,0.2296,0.2296,0.2296,0.2296,0.2296,0.2296,0.2296,0.2296,0.2296,0.2296,0.2296,0.2333,0.2406,0.2807,0.3392,0.3537,0.4046,0.4519,0.4665,0.4701,0.4701,0.4701,0.4701,0.4701,0.4701,0.4694,0.4681,0.4677,0.4657,0.4679,0.5025,0.5911,0.7091,0.7922,0.8421,0.8655,0.8658,0.8637,0.8639,0.8634,0.862,0.862,0.862,0.862,0.862,0.862,0.862,0.8687,0.8853,0.9084,0.9319,0.9755,1.0127,1.0455,1.0916,1.1347,1.1879,1.2375,1.2704,1.277,1.2803,1.2803,1.2803,1.2803,1.2803,1.2841,1.2963,1.3272,1.3509,1.373,1.4155,1.4685,1.5009,1.5285,1.5619,1.559,1.5601,1.5601,1.5601,1.5607,1.5631,1.5661,1.5952,1.6473,1.7032,1.8006,1.8684,1.9191,1.9366,1.9395,1.9482,1.9597,1.9931,2.027,2.0594,2.0852,2.1089,2.1211,2.1211,2.1211,2.1211,2.1403,2.1746,2.2116,2.2526,2.3223,2.3963,0.0502,0.0954,0.1553,0.1802,0.1857,0.2176,0.2345,0.2299,0.2296,0.2296,0.2296,0.2296,0.2296,0.2296,0.2296,0.2296,0.2296,0.2296,0.2296,0.2296,0.2333,0.2625,0.3099,0.3391,0.3864,0.4263,0.4556,0.4701,0.4701,0.4701,0.4701,0.4701,0.4701,0.4701,0.4701,0.4701,0.4833,0.5162,0.5917,0.6833,0.7628,0.8248,0.8666,0.8835,0.8753,0.8729,0.8705,0.8647,0.8626,0.862,0.862,0.862,0.862,0.862,0.862,0.862,0.9123,0.9422,0.9525,0.9924,1.0223,1.0621,1.1118,1.178,1.2276,1.2572,1.2803,1.2803,1.2803,1.2803,1.2803,1.2803,1.2734,1.2763,1.2803,1.3029,1.3284,1.3636,1.4003,1.4583,1.5181,1.5505,1.5734,1.5728,1.572,1.5688,1.5661,1.5623,1.5731,1.5839,1.6242,1.682,1.7379,1.8052,1.8648,1.9185,1.9366,1.9424,1.943,1.9626,2.0075,2.0414,2.068,2.0945,2.1146,2.1211,2.1211,2.1211,2.1211,2.1432,2.1689,2.2088,2.2513,2.3296,2.398,0.0304,0.0675,0.1341,0.1706,0.1847,0.2159,0.2297,0.2296,0.2296,0.2296,0.2296,0.2296,0.2296,0.2296,0.2296,0.2296,0.2296,0.2296,0.2296,0.2296,0.2333,0.2552,0.2953,0.3318,0.3717,0.408,0.4519,0.4665,0.4701,0.4701,0.4701,0.4701,0.4701,0.4701,0.4701,0.4738,0.4876,0.5418,0.6384,0.7254,0.7943,0.8351,0.8693,0.8847,0.8867,0.8806,0.8753,0.8686,0.8623,0.862,0.862,0.862,0.862,0.862,0.862,0.8723,0.9225,0.9628,0.9794,1.006,1.0425,1.082,1.1383,1.2011,1.2605,1.2803,1.2803,1.2803,1.2803,1.2803,1.2791,1.2767,1.2702,1.2641,1.2584,1.2771,1.3034,1.3524,1.4135,1.485,1.5412,1.5809,1.5954,1.5905,1.5849,1.5795,1.5731,1.5671,1.5758,1.5896,1.6224,1.6744,1.7349,1.7941,1.8544,1.9017,1.9227,1.9459,1.9466,1.9684,2.0162,2.0443,2.0701,2.0938,2.1175,2.1211,2.1211,2.1211,2.1239,2.1403,2.1632,2.2031,2.257,2.3352,2.4024,0.0592,0.0622,0.1073,0.1475,0.1826,0.2152,0.2296,0.2296,0.2296,0.2296,0.2296,0.2296,0.2296,0.2296,0.2296,0.2296,0.2296,0.2296,0.2296,0.2296,0.2333,0.2515,0.2881,0.3281,0.3682,0.4044,0.4482,0.4665,0.4701,0.4701,0.4701,0.4701,0.4701,0.4701,0.4774,0.4845,0.5136,0.5682,0.6458,0.7219,0.781,0.8217,0.8485,0.893,0.8913,0.8803,0.88,0.8702,0.8626,0.8626,0.862,0.862,0.862,0.862,0.862,0.8756,0.9292,0.9661,0.9797,1.0226,1.0621,1.092,1.138,1.2074,1.2704,1.2803,1.2803,1.2803,1.2803,1.2803,1.2755,1.2706,1.2657,1.26,1.2595,1.279,1.3102,1.3564,1.4206,1.5047,1.5659,1.6081,1.6322,1.6297,1.6129,1.607,1.5962,1.5928,1.5785,1.5867,1.6079,1.6525,1.7156,1.7778,1.8359,1.8803,1.9312,1.958,1.9645,1.9901,2.0277,2.0529,2.0752,2.0996,2.1211,2.1211,2.1211,2.1211,2.1239,2.1346,2.1632,2.2144,2.2711,2.3408,2.408,0.0738,0.0986,0.1393,0.1647,0.1822,0.215,0.2296,0.2296,0.2296,0.2296,0.2296,0.2296,0.2296,0.2296,0.2296,0.2296,0.2296,0.2296,0.2296,0.2296,0.2333,0.2406,0.2734,0.3136,0.3574,0.3864,0.4337,0.4701,0.4701,0.4701,0.4701,0.4701,0.4701,0.4701,0.4774,0.51,0.5536,0.5936,0.6662,0.7496,0.7926,0.8374,0.8699,0.9146,0.9065,0.8922,0.8883,0.8764,0.8707,0.8642,0.8626,0.862,0.862,0.862,0.862,0.8687,0.9292,0.9628,0.983,1.0326,1.085,1.1383,1.1714,1.2111,1.2737,1.2803,1.2803,1.2803,1.2803,1.2803,1.2783,1.2771,1.2718,1.2629,1.2687,1.2851,1.3242,1.3712,1.4428,1.5351,1.5922,1.6408,1.6594,1.6754,1.6538,1.6344,1.6226,1.6127,1.599,1.5956,1.6204,1.6602,1.7274,1.7915,1.8515,1.9041,1.9511,1.9706,1.9843,2.0143,2.0405,2.0551,2.078,2.1024,2.1211,2.1211,2.1211,2.1211,2.1268,2.1354,2.1803,2.24,2.2965,2.3528,2.4136,0.103,0.1423,0.1787,0.1932,0.1968,0.2187,0.2296,0.2296,0.2296,0.2296,0.2296,0.2296,0.2296,0.2296,0.2296,0.2296,0.2296,0.2296,0.2296,0.2296,0.2296,0.2296,0.2588,0.3026,0.3537,0.3718,0.4265,0.4701,0.4701,0.4701,0.4701,0.4701,0.4701,0.4701,0.4883,0.5391,0.5863,0.6226,0.6843,0.7677,0.8041,0.8329,0.8791,0.9169,0.9136,0.9054,0.8941,0.8856,0.8765,0.8694,0.8617,0.8623,0.862,0.862,0.862,0.8856,0.9225,0.9664,0.9861,1.0323,1.1016,1.1582,1.1751,1.2177,1.2605,1.2803,1.2803,1.2803,1.2803,1.2803,1.2795,1.2726,1.2686,1.2596,1.2781,1.3003,1.3468,1.3975,1.4822,1.565,1.6121,1.6571,1.6775,1.6883,1.6737,1.6554,1.65,1.6349,1.6171,1.6226,1.6472,1.6961,1.7529,1.8171,1.878,1.9334,1.9859,1.9994,2.0144,2.0325,2.0568,2.0701,2.0845,2.1081,2.1211,2.1211,2.1211,2.1211,2.1296,2.1382,2.1953,2.2541,2.3247,2.3801,2.4295,0.1387,0.1822,0.215,0.226,0.226,0.2296,0.2296,0.2296,0.2296,0.2296,0.2296,0.2296,0.2296,0.2296,0.2296,0.2296,0.2296,0.2296,0.2296,0.2296,0.2296,0.2296,0.2552,0.299,0.3428,0.3682,0.4192,0.4592,0.4701,0.4701,0.4701,0.4738,0.4738,0.4774,0.4809,0.5426,0.5972,0.6375,0.6809,0.7425,0.7969,0.8189,0.862,0.91,0.9184,0.9114,0.9027,0.894,0.8852,0.8768,0.8688,0.865,0.859,0.862,0.862,0.8653,0.9292,0.9628,0.9764,1.0356,1.1052,1.1648,1.1817,1.2111,1.2605,1.2803,1.2803,1.2803,1.2803,1.2803,1.2746,1.2706,1.2641,1.2779,1.2973,1.3264,1.377,1.4138,1.4891,1.5669,1.6183,1.6591,1.6807,1.6969,1.6861,1.6785,1.6715,1.6575,1.6361,1.6496,1.6772,1.7211,1.778,1.8538,1.916,1.9743,2.0147,2.0278,2.0405,2.0586,2.0762,2.0938,2.1068,2.1197,2.1211,2.1211,2.1211,2.1211,2.1411,2.1639,2.2059,2.2683,2.3416,2.4052,2.4518,0.1422,0.1822,0.215,0.2296,0.2296,0.2296,0.2296,0.2296,0.2296,0.2296,0.2296,0.2296,0.2296,0.2296,0.2296,0.2296,0.2296,0.2296,0.2296,0.2296,0.2296,0.2296,0.2479,0.2843,0.3245,0.3573,0.4046,0.4482,0.4701,0.4701,0.4701,0.4738,0.4885,0.503,0.5248,0.5758,0.6303,0.6448,0.6811,0.7317,0.7971,0.8152,0.8476,0.9268,0.9258,0.9174,0.9114,0.9022,0.8932,0.8852,0.8728,0.8682,0.8628,0.8609,0.8595,0.8659,0.9125,0.9558,0.999,1.0654,1.1247,1.1615,1.1879,1.2144,1.2671,1.277,1.2803,1.2803,1.2803,1.2803,1.2775,1.2763,1.2828,1.3127,1.3356,1.3641,1.4042,1.4283,1.4805,1.5549,1.6169,1.6526,1.6845,1.6969,1.6926,1.6899,1.684,1.678,1.6581,1.6836,1.7099,1.7462,1.8007,1.8822,1.9531,2.0104,2.0498,2.0682,2.0717,2.0746,2.095,2.1133,2.1155,2.1233,2.1218,2.1211,2.1239,2.1296,2.1632,2.1945,2.223,2.2768,2.3528,2.4144,2.4637,0.1641,0.2005,0.2187,0.2296,0.2296,0.2296,0.2296,0.2296,0.2296,0.2296,0.2296,0.2296,0.2296,0.2296,0.2296,0.2296,0.2296,0.2296,0.2296,0.2296,0.2296,0.2296,0.2406,0.2698,0.3136,0.35,0.3899,0.43,0.4665,0.4701,0.4701,0.4774,0.503,0.5247,0.5539,0.6012,0.6484,0.6629,0.699,0.7353,0.7863,0.8189,0.8512,0.9088,0.9288,0.9269,0.9204,0.91,0.9027,0.8924,0.8845,0.8796,0.8725,0.8674,0.866,0.875,0.9109,0.9667,1.0323,1.0817,1.1347,1.1747,1.1879,1.2243,1.2671,1.277,1.2803,1.2803,1.2803,1.2803,1.2803,1.2803,1.3067,1.3367,1.3687,1.3969,1.4231,1.4469,1.4894,1.5649,1.6099,1.6456,1.6839,1.6904,1.698,1.6985,1.699,1.6888,1.6861,1.713,1.7498,1.797,1.848,1.9337,1.9975,2.0435,2.0786,2.1051,2.1059,2.1037,2.1134,2.1305,2.1285,2.124,2.1225,2.1211,2.1268,2.1403,2.1603,2.186,2.208,2.2732,2.3585,2.4172,2.4674,0.2005,0.226,0.2296,0.2296,0.2296,0.2296,0.2296,0.2296,0.2296,0.2296,0.2296,0.2296,0.2296,0.2296,0.2296,0.2296,0.2296,0.2296,0.2296,0.2296,0.2296,0.2296,0.2406,0.2661,0.3063,0.3464,0.3864,0.4191,0.4629,0.4701,0.4701,0.4774,0.503,0.5356,0.5756,0.6157,0.6555,0.6809,0.699,0.7425,0.7933,0.8116,0.8548,0.9052,0.9299,0.9296,0.9253,0.9165,0.9114,0.9038,0.8976,0.893,0.8873,0.8837,0.883,0.8974,0.9393,0.9943,1.0555,1.1016,1.1479,1.1879,1.2177,1.2474,1.2671,1.2803,1.2803,1.2803,1.2803,1.2803,1.2803,1.3034,1.3268,1.3593,1.3949,1.4207,1.4436,1.4768,1.5225,1.5681,1.6071,1.6423,1.6839,1.7001,1.7001,1.7001,1.7001,1.6985,1.7012,1.7349,1.7829,1.8575,1.9169,1.9897,2.0423,2.0709,2.0904,2.1106,2.1355,2.1385,2.1451,2.1461,2.1503,2.1467,2.1284,2.1218,2.1239,2.1318,2.1489,2.1717,2.2002,2.2619,2.3444,2.4061,2.459,0.2005,0.2296,0.2296,0.2296,0.2296,0.2296,0.2296,0.2296,0.2296,0.2296,0.2296,0.2296,0.2296,0.2296,0.2296,0.2296,0.2296,0.2296,0.2296,0.2296,0.2296,0.2296,0.2333,0.2479,0.2917,0.3318,0.3718,0.4083,0.4592,0.4701,0.4701,0.4738,0.4994,0.5392,0.579,0.6192,0.6591,0.6881,0.699,0.7425,0.7897,0.808,0.8584,0.9052,0.9304,0.9304,0.9283,0.9269,0.9217,0.9098,0.9071,0.9022,0.8908,0.891,0.8912,0.9169,0.9542,0.9994,1.0651,1.1284,1.1784,1.2114,1.2441,1.2638,1.277,1.2803,1.2803,1.2803,1.2803,1.2803,1.2836,1.3034,1.3363,1.3752,1.4048,1.431,1.4534,1.4833,1.529,1.5811,1.6169,1.6586,1.6969,1.7001,1.7001,1.7001,1.7001,1.7001,1.7163,1.7491,1.798,1.8731,1.9494,2.0125,2.0507,2.0821,2.0968,2.1112,2.1417,2.1632,2.1619,2.1644,2.1735,2.1664,2.1437,2.1291,2.1211,2.1325,2.1411,2.166,2.1974,2.2598,2.3247,2.3893,2.4507,0.2114,0.2296,0.2296,0.2296,0.2296,0.2296,0.2296,0.2296,0.2296,0.2296,0.2296,0.2296,0.2296,0.2296,0.2296,0.2296,0.2296,0.2296,0.2296,0.2296,0.2296,0.2296,0.2296,0.237,0.2807,0.3245,0.361,0.3937,0.4519,0.4701,0.4701,0.4701,0.4957,0.532,0.5718,0.6045,0.6446,0.6773,0.7099,0.7462,0.7788,0.8116,0.8584,0.9088,0.9268,0.9304,0.9304,0.9304,0.9261,0.9174,0.9168,0.9138,0.903,0.8984,0.9354,0.965,0.9958,1.0534,1.122,1.1818,1.2109,1.2324,1.2601,1.2737,1.2803,1.2803,1.2803,1.2803,1.2803,1.2803,1.2869,1.2964,1.3387,1.3814,1.4076,1.4338,1.4604,1.4833,1.5355,1.5941,1.6391,1.6812,1.7001,1.7001,1.7001,1.7001,1.7001,1.7001,1.7227,1.7582,1.8013,1.8603,1.943,2.0195,2.0545,2.0831,2.1014,2.1222,2.1613,2.1783,2.1753,2.187,2.2049,2.1854,2.1554,2.1437,2.1335,2.1269,2.1325,2.162,2.1943,2.2425,2.3118,2.3893,2.4443,0.2296,0.2296,0.2296,0.2296,0.2296,0.2296,0.2296,0.2296,0.2296,0.2296,0.2296,0.2296,0.2296,0.2296,0.2296,0.2296,0.2296,0.2296,0.2296,0.2296,0.2296,0.2296,0.2296,0.2333,0.277,0.3245,0.361,0.3902,0.4483,0.4701,0.4701,0.4701,0.4738,0.5065,0.5574,0.5827,0.6263,0.6881,0.7061,0.7315,0.7824,0.815,0.844,0.9088,0.9268,0.9304,0.9304,0.9304,0.9302,0.9302,0.9296,0.9285,0.9215,0.9071,0.9562,1.0081,1.0389,1.1022,1.1671,1.2276,1.2359,1.2496,1.2601,1.2737,1.2803,1.2803,1.2803,1.2803,1.2803,1.2803,1.2836,1.3099,1.3494,1.3851,1.4141,1.4436,1.4735,1.5029,1.5518,1.6071,1.6521,1.6904,1.7001,1.7001,1.7001,1.7001,1.7001,1.7001,1.7227,1.7582,1.8007,1.8501,1.9302,2.003,2.045,2.0736,2.0982,2.131,2.1699,2.1888,2.1845,2.2079,2.238,2.2111,2.1818,2.1613,2.1481,2.1423,2.1502,2.1749,2.206,2.2312,2.2942,2.3787,2.4356,0.2296,0.2296,0.2296,0.2296,0.2296,0.2296,0.2296,0.2296,0.2296,0.2295,0.2296,0.2296,0.2295,0.2293,0.2295,0.2295,0.2293,0.2295,0.2296,0.2296,0.2296,0.2296,0.2296,0.2333,0.2807,0.3282,0.361,0.3973,0.4519,0.4701,0.4701,0.4701,0.4701,0.4956,0.5392,0.5609,0.619,0.6845,0.7097,0.7278,0.7677,0.8041,0.8367,0.8835,0.9052,0.9268,0.9304,0.9304,0.9304,0.9302,0.9302,0.9302,0.9291,0.9041,0.9579,1.0461,1.0688,1.1328,1.2034,1.2558,1.2631,1.2665,1.2737,1.277,1.2803,1.2803,1.2803,1.2803,1.2803,1.2803,1.2869,1.3202,1.3531,1.3851,1.4207,1.4539,1.4866,1.5323,1.5746,1.6196,1.6645,1.6839,1.6969,1.7001,1.7001,1.7001,1.7001,1.7034,1.7227,1.7518,1.7808,1.8334,1.9136,1.9807,2.0259,2.0704,2.0976,2.1292,2.1688,2.1853,2.1985,2.2305,2.2601,2.2374,2.2118,2.192,2.1767,2.1708,2.1803,2.1965,2.22,2.2446,2.3005,2.3801,2.4258,0.2005,0.226,0.2296,0.2289,0.2282,0.2291,0.2296,0.2294,0.2283,0.2278,0.2281,0.2289,0.229,0.2284,0.229,0.2286,0.2284,0.2292,0.2295,0.2296,0.2296,0.2296,0.2296,0.2296,0.2844,0.3355,0.3901,0.4337,0.4665,0.4701,0.4701,0.4701,0.4701,0.4847,0.5212,0.561,0.6117,0.6702,0.7025,0.7385,0.7638,0.7967,0.8295,0.8693,0.9052,0.9268,0.9304,0.9304,0.9304,0.9304,0.9304,0.9304,0.9341,0.9313,0.9818,1.0585,1.1101,1.1514,1.2338,1.275,1.2781,1.2798,1.2803,1.2803,1.2803,1.2803,1.2803,1.2803,1.2803,1.2803,1.2902,1.3169,1.3527,1.3851,1.4244,1.4572,1.5062,1.5588,1.5946,1.6336,1.6683,1.6904,1.7001,1.7001,1.7001,1.7001,1.7001,1.7001,1.7195,1.7459,1.7749,1.8264,1.9066,1.9679,2.0132,2.0609,2.1039,2.1355,2.1677,2.2114,2.2409,2.2627,2.276,2.2571,2.2381,2.2235,2.2103,2.2023,2.1986,2.2105,2.2334,2.258,2.3217,2.381,2.424,0.1605,0.2187,0.2219,0.2244,0.23,0.2281,0.229,0.2286,0.2303,0.2288,0.2288,0.2272,0.2268,0.2266,0.2277,0.2304,0.2306,0.2287,0.2294,0.2296,0.2296,0.2296,0.2296,0.2333,0.2881,0.3464,0.4083,0.441,0.4701,0.4701,0.4701,0.4701,0.4774,0.4848,0.5212,0.561,0.6081,0.6736,0.7206,0.7602,0.782,0.8003,0.8367,0.8729,0.9052,0.9268,0.9304,0.9304,0.9304,0.9304,0.9341,0.9377,0.9449,0.9574,1.0211,1.0857,1.1385,1.1929,1.2585,1.2912,1.2906,1.2856,1.2819,1.2807,1.2807,1.2803,1.2803,1.2803,1.2803,1.2836,1.2939,1.3231,1.3588,1.3916,1.431,1.4702,1.5262,1.5784,1.6109,1.6434,1.6721,1.6974,1.7001,1.7001,1.7001,1.7001,1.7001,1.7001,1.7104,1.7427,1.7723,1.8366,1.913,1.9654,2.0074,2.0577,2.1102,2.1418,2.1772,2.2362,2.2841,2.2925,2.2923,2.2784,2.2608,2.2469,2.2403,2.2337,2.2308,2.2323,2.2568,2.2892,2.3466,2.4031,2.4356,0.1496,0.1894,0.1839,0.1983,0.2246,0.2307,0.2299,0.2298,0.2292,0.2277,0.2224,0.2221,0.2222,0.222,0.2286,0.2293,0.2298,0.2283,0.2293,0.2296,0.2296,0.2296,0.2333,0.2406,0.2843,0.3427,0.4046,0.4336,0.4629,0.4701,0.4701,0.4701,0.4701,0.4883,0.5212,0.5683,0.6226,0.6916,0.746,0.782,0.8362,0.8509,0.8548,0.8837,0.9088,0.9232,0.9304,0.9304,0.9304,0.9304,0.9341,0.9521,0.9703,0.9894,1.0479,1.1111,1.1633,1.2109,1.2588,1.2942,1.2973,1.2836,1.2811,1.2823,1.2819,1.2803,1.2803,1.2803,1.2803,1.2803,1.2968,1.3486,1.3875,1.4109,1.4436,1.4931,1.5458,1.5816,1.6136,1.6461,1.6785,1.6942,1.7001,1.7001,1.7001,1.7001,1.7001,1.7001,1.7039,1.7368,1.7728,1.8463,1.92,1.9654,2.0074,2.0672,2.1166,2.1488,2.1859,2.2456,2.2856,2.3043,2.301,2.2908,2.282,2.2696,2.2645,2.263,2.2703,2.274,2.2893,2.3207,2.3764,2.4271,2.4666]},{"header":{"parameterUnit":"m.s-1","parameterCategory":1,"la1":31.0,"la2":29.5877,"lo1":-88.7671,"lo2":-86.6584,"dy":0.0162,"dx":0.0185,"nx":115,"ny":88,"refTime":"2024-04-06T06:00:00:Z","depth":0,"parameterNumber":3,"parameterNumberName":"V-component_of_WINDS"},"data":[0.0,0.0,0.0,0.0,0.0,0.0,0.0,0.0,0.0,0.0,0.0,0.0,0.0,0.0,0.0,0.0,0.0,0.0,0.0,0.0,0.0,0.0,0.0,0.0,0.0,0.0,0.0,0.0,0.0,0.0,0.0,0.0,0.0,0.0,0.0,0.0,0.0,0.0,0.0,0.0,0.0,0.0,0.0,0.0,0.0,0.0,0.0,0.0,0.0,0.0,0.0,0.0,0.0,0.0,0.0,0.0,0.0,0.0,0.0,0.0,0.0,0.0,0.0,0.0,0.0,0.0,0.0,0.0,0.0,0.0,0.0,0.0,0.0,0.0,0.0,0.0,0.0,0.0,0.0,0.0,0.0,0.0,0.0,0.0,0.0,0.0,0.0,0.0,0.0,0.0,0.0,0.0,0.0,0.0,0.0,0.0,0.0,0.0,0.0,0.0,0.0,0.0,0.0,0.0,0.0,0.0,0.0,0.0,0.0,0.0,0.0,0.0,0.0,0.0,0.0,0.0,0.0,0.0,0.0,0.0,0.0,0.0,0.0,0.0,0.0,0.0,0.0,0.0,0.0,0.0,0.0,0.0,0.0,0.0,0.0,0.0,0.0,0.0,0.0,0.0,0.0,0.0,0.0,0.0,0.0,0.0,0.0,0.0,0.0,0.0,0.0,0.0,0.0,0.0,0.0,0.0,0.0,0.0,0.0,0.0,0.0,0.0,0.0,0.0,0.0,0.0,0.0,0.0,0.0,0.0,0.0,0.0,0.0,0.0,0.0,0.0,0.0,0.0,0.0,0.0,0.0,0.0,0.0,0.0,0.0,0.0,0.0,0.0,0.0,0.0,0.0,0.0,0.0,0.0,0.0,0.0,0.0,0.0,0.0,0.0,0.0,0.0,0.0,0.0,0.0,0.0,0.0,0.0,0.0,0.0,0.0,0.0,0.0,0.0,0.0,0.0,0.0,0.0,0.0,0.0,0.0,0.0,0.0,0.0,0.0,0.0,0.0,0.0,0.0,0.0,0.0,0.0,0.0,0.0,0.0,0.0,0.0,0.0,0.0,0.0,0.0,0.0,0.0,0.0,0.0,0.0,0.0,0.0,0.0,0.0,0.0,0.0,0.0,0.0,0.0,0.0,0.0,0.0,0.0,0.0,0.0,0.0,0.0,0.0,0.0,0.0,0.0,0.0,0.0,0.0,0.0,0.0,0.0,0.0,0.0,0.0,0.0,0.0,0.0,0.0,0.0,0.0,0.0,0.0,0.0,0.0,0.0,0.0,0.0,0.0,0.0,0.0,0.0,0.0,0.0,0.0,0.0,0.0,0.0,0.0,0.0,0.0,0.0,0.0,0.0,0.0,0.0,0.0,0.0,0.0,0.0,0.0,0.0,0.0,0.0,0.0,0.0,0.0,0.0,0.0,0.0,0.0,0.0,0.0,0.0,0.0,0.0,0.0,0.0,0.0,0.0,0.0,0.0,0.0,0.0,0.0,0.0,0.0,0.0,0.0,0.0,0.0,0.0,0.0,0.0,0.0,0.0,0.0,0.0,0.0,0.0,0.0,0.0,0.0,0.0,0.0,0.0,0.0,0.0,0.0,0.0,0.0,0.0,0.0,0.0,0.0,0.0,0.0,0.0,0.0,0.0,0.0,0.0,0.0,0.0,0.0,0.0,0.0,0.0,0.0,0.0,0.0,0.0,0.0,0.0,0.0,0.0,0.0,0.0,0.0,0.0,0.0,0.0,0.0,0.0,0.0,0.0,0.0,0.0,0.0,0.0,0.0,0.0,0.0,0.0,0.0,0.0,0.0,0.0,0.0,0.0,0.0,0.0,0.0,0.0,0.0,0.0,0.0,0.0,0.0,0.0,0.0,0.0,0.0,0.0,0.0,0.0,0.0,0.0,0.0,0.0,0.0,0.0,0.0,0.0,0.0,0.0,0.0,0.0,0.0,0.0,0.0,0.0,0.0,0.0,0.0,0.0,0.0,0.0,0.0,0.0,0.0,0.0,0.0,0.0,0.0,0.0,0.0,0.0,0.0,0.0,0.0,0.0,0.0,0.0,0.0,0.0,0.0,0.0,0.0,0.0,0.0,0.0,0.0,0.0,0.0,0.0,0.0,0.0,0.0,0.0,0.0,0.0,0.0,0.0,0.0,0.0,0.0,0.0,0.0,0.0,0.0,0.0,0.0,0.0,0.0,0.0,0.0,0.0,0.0,0.0,0.0,0.0,0.0,0.0,0.0,0.0,0.0,0.0,0.0,0.0,0.0,0.0,0.0,0.0,0.0,0.0,0.0,0.0,0.0,0.0,0.0,0.0,0.0,0.0,0.0,0.0,0.0,0.0,0.0,0.0,0.0,0.0,0.0,0.0,0.0,0.0,0.0,0.0,0.0,0.0,0.0,0.0,0.0,0.0,0.0,0.0,0.0,0.0,0.0,0.0,0.0,0.0,0.0,0.0,0.0,0.0,0.0,0.0,0.0,0.0,0.0,0.0,0.0,0.0,0.0,0.0,0.0,0.0,0.0,0.0,0.0,0.0,0.0,0.0,0.0,0.0,0.0,0.0,0.0,0.0,0.0,0.0,0.0,0.0,0.0,0.0,0.0,0.0,0.0,0.0,0.0,0.0,0.0,0.0,0.0,0.0,0.0,0.0,0.0,0.0,0.0,0.0,0.0,0.0,0.0,0.0,0.0,0.0,0.0,0.0,0.0,0.0,0.0,0.0,0.0,0.0,0.0,0.0,0.0,0.0,0.0,0.0,0.0,0.0,0.0,0.0,0.0,0.0,0.0,0.0,0.0,0.0,0.0,0.0,0.0,0.0,0.0,0.0,0.0,0.0,0.0,0.0,0.0,0.0,0.0,0.0,0.0,0.0,0.0,0.0,0.0,0.0,0.0,0.0,0.0,0.0,0.0,0.0,0.0,0.0,0.0,0.0,0.0,0.0,0.0,0.0,0.0,0.0,0.0,0.0,0.0,0.0,0.0,0.0,0.0,0.0,0.0,0.0,0.0,0.0,0.0,0.0,0.0,0.0,0.0,0.0,0.0,0.0,0.0,0.0,0.0,0.0,0.0,0.0,0.0,0.0,0.0,0.0,0.0,0.0,0.0,0.0,0.0,0.0,0.0,0.0,0.0,0.0,0.0,0.0,0.0,0.0,0.0,0.0,0.0,0.0,0.0,0.0,0.0,0.0,0.0,0.0,0.0,0.0,0.0,0.0,0.0,0.0,0.0,0.0,0.0,0.0,0.0,0.0,0.0,0.0,0.0,0.0,0.0,0.0,0.0,0.0,0.0,0.0,0.0,0.0,0.0,0.0,0.0,0.0,0.0,0.0,0.0,0.0,0.0,0.0,0.0,0.0,0.0,0.0,0.0,0.0,0.0,0.0,0.0,0.0,0.0,0.0,0.0,0.0,0.0,0.0,0.0,0.0,0.0,0.0,0.0,0.0,0.0,0.0,0.0,0.0,0.0,0.0,0.0,0.0,0.0,0.0,0.0,0.0,0.0,0.0,0.0,0.0,0.0,0.0,0.0,0.0,0.0,0.0,0.0,0.0,0.0,0.0,0.0,0.0,0.0,0.0,0.0,0.0,0.0,0.0,0.0,0.0,0.0,0.0,0.0,0.0,0.0,0.0,0.0,0.0,0.0,0.0,0.0,0.0,0.0,0.0,0.0,0.0,0.0,0.0,0.0,0.0,0.0,0.0,0.0,0.0,0.0,0.0,0.0,0.0,0.0,0.0,0.0,0.0,0.0,0.0,0.0,0.0,0.0,0.0,0.0,0.0,0.0,0.0,0.0,0.0,0.0,0.0,0.0,0.0,0.0,0.0,0.0,0.0,0.0,0.0,0.0,0.0,0.0,0.0,0.0,0.0,0.0,0.0,0.0,0.0,0.0,0.0,0.0,0.0,0.0,0.0,0.0,0.0,0.0,0.0,0.0,0.0,0.0,0.0,0.0,0.0,0.0,0.0,0.0,0.0,0.0,0.0,0.0,0.0,0.0,0.0,0.0,0.0,0.0,0.0,0.0,0.0,0.0,0.0,0.0,0.0,0.0,0.0,0.0,0.0,0.0,0.0,0.0,0.0,0.0,0.0,0.0,0.0,0.0,0.0,0.0,0.0,0.0,0.0,0.0,0.0,0.0,0.0,0.0,0.0,0.0,0.0,0.0,0.0,0.0,0.0,0.0,0.0,0.0,0.0,0.0,0.0,0.0,0.0,0.0,0.0,0.0,0.0,0.0,0.0,0.0,0.0,0.0,0.0,0.0,0.0,0.0,2.4222,0.0,0.0,0.0,0.0,0.0,0.0,0.0,0.0,0.0,0.0,0.0,0.0,0.0,0.0,0.0,0.0,0.0,0.0,0.0,0.0,0.0,0.0,0.0,0.0,0.0,0.0,0.0,0.0,0.0,0.0,0.0,0.0,0.0,0.0,0.0,0.0,0.0,0.0,0.0,0.0,0.0,0.0,0.0,0.0,0.0,0.0,0.0,0.0,0.0,0.0,0.0,0.0,0.0,0.0,0.0,0.0,0.0,0.0,0.0,0.0,0.0,0.0,0.0,0.0,0.0,0.0,0.0,0.0,0.0,0.0,0.0,0.0,0.0,0.0,0.0,0.0,0.0,0.0,0.0,0.0,0.0,0.0,0.0,0.0,0.0,0.0,0.0,0.0,0.0,0.0,0.0,0.0,0.0,0.0,0.0,0.0,0.0,0.0,0.0,0.0,0.0,0.0,0.0,0.0,0.0,0.0,0.0,0.0,0.0,0.0,2.7313,2.6309,2.5586,2.471,2.3687,0.0,0.0,0.0,0.0,0.0,0.0,0.0,0.0,0.0,0.0,0.0,0.0,0.0,0.0,0.0,0.0,0.0,0.0,0.0,0.0,0.0,0.0,0.0,0.0,0.0,0.0,0.0,0.0,0.0,0.0,0.0,0.0,0.0,0.0,0.0,0.0,0.0,0.0,0.0,0.0,0.0,0.0,0.0,0.0,0.0,0.0,0.0,0.0,0.0,0.0,0.0,0.0,0.0,0.0,0.0,0.0,0.0,0.0,0.0,0.0,0.0,0.0,0.0,0.0,0.0,0.0,0.0,0.0,0.0,0.0,0.0,0.0,0.0,0.0,0.0,0.0,0.0,0.0,0.0,0.0,0.0,0.0,0.0,0.0,0.0,0.0,0.0,0.0,0.0,0.0,0.0,0.0,0.0,0.0,0.0,0.0,0.0,0.0,0.0,0.0,0.0,0.0,0.0,0.0,0.0,0.0,0.0,0.0,0.0,0.0,0.0,0.0,2.553,2.4689,2.3176,0.0,0.0,0.0,0.0,0.0,0.0,0.0,0.0,0.0,0.0,0.0,0.0,0.0,0.0,0.0,0.0,0.0,0.0,0.0,0.0,0.0,0.0,0.0,0.0,0.0,0.0,0.0,0.0,0.0,0.0,0.0,0.0,0.0,0.0,0.0,0.0,0.0,0.0,0.0,0.0,0.0,0.0,0.0,0.0,0.0,0.0,0.0,0.0,0.0,0.0,0.0,0.0,0.0,0.0,0.0,0.0,0.0,0.0,0.0,0.0,0.0,0.0,0.0,0.0,0.0,0.0,0.0,0.0,0.0,0.0,0.0,0.0,0.0,0.0,0.0,0.0,0.0,0.0,0.0,0.0,0.0,0.0,0.0,0.0,0.0,0.0,0.0,0.0,0.0,0.0,0.0,0.0,0.0,0.0,0.0,0.0,0.0,0.0,0.0,0.0,0.0,0.0,0.0,0.0,0.0,0.0,0.0,0.0,0.0,0.0,2.6821,2.582,2.5021,0.0,2.3359,0.0,0.0,0.0,0.0,0.0,0.0,0.0,0.0,0.0,0.0,0.0,0.0,0.0,0.0,0.0,0.0,0.0,0.0,0.0,0.0,0.0,0.0,0.0,0.0,0.0,0.0,0.0,0.0,0.0,0.0,0.0,0.0,0.0,0.0,0.0,0.0,0.0,0.0,0.0,0.0,0.0,0.0,0.0,0.0,0.0,0.0,0.0,0.0,0.0,0.0,0.0,0.0,0.0,0.0,0.0,0.0,0.0,0.0,0.0,0.0,0.0,0.0,0.0,0.0,0.0,0.0,0.0,0.0,0.0,0.0,0.0,0.0,0.0,0.0,0.0,0.0,0.0,0.0,0.0,0.0,0.0,0.0,0.0,0.0,0.0,0.0,0.0,0.0,0.0,0.0,0.0,0.0,0.0,0.0,0.0,0.0,0.0,0.0,0.0,0.0,0.0,0.0,0.0,0.0,0.0,0.0,0.0,0.0,0.0,0.0,2.6068,2.5164,2.4079,2.3435,0.0,0.0,0.0,0.0,0.0,0.0,0.0,0.0,0.0,0.0,0.0,0.0,0.0,0.0,0.0,0.0,0.0,0.0,0.0,0.0,0.0,0.0,0.0,0.0,0.0,0.0,0.0,0.0,0.0,0.0,0.0,0.0,0.0,0.0,0.0,0.0,0.0,0.0,0.0,0.0,0.0,0.0,0.0,0.0,0.0,0.0,0.0,0.0,0.0,0.0,0.0,0.0,0.0,0.0,0.0,0.0,0.0,0.0,0.0,0.0,0.0,0.0,0.0,0.0,0.0,0.0,0.0,0.0,0.0,0.0,0.0,0.0,0.0,0.0,0.0,0.0,0.0,0.0,0.0,0.0,0.0,0.0,0.0,0.0,0.0,0.0,0.0,0.0,0.0,0.0,0.0,0.0,0.0,0.0,0.0,0.0,0.0,0.0,0.0,0.0,0.0,0.0,0.0,0.0,0.0,0.0,0.0,0.0,0.0,0.0,2.5703,2.5243,2.4343,2.3419,2.3046,2.3313,0.0,0.0,0.0,0.0,0.0,0.0,0.0,0.0,0.0,0.0,0.0,0.0,0.0,0.0,0.0,0.0,0.0,0.0,0.0,0.0,0.0,0.0,0.0,0.0,0.0,0.0,0.0,0.0,0.0,0.0,0.0,0.0,0.0,0.0,0.0,0.0,0.0,0.0,0.0,0.0,0.0,0.0,0.0,0.0,0.0,0.0,0.0,0.0,0.0,0.0,0.0,0.0,0.0,0.0,0.0,0.0,0.0,0.0,0.0,0.0,0.0,0.0,0.0,0.0,0.0,0.0,0.0,0.0,0.0,0.0,0.0,0.0,0.0,0.0,0.0,0.0,0.0,0.0,0.0,0.0,0.0,0.0,0.0,0.0,0.0,0.0,0.0,0.0,0.0,0.0,0.0,0.0,0.0,0.0,0.0,0.0,0.0,0.0,0.0,0.0,0.0,0.0,0.0,0.0,0.0,0.0,0.0,0.0,2.4818,2.4806,2.4367,2.3431,2.3312,2.3313,0.0,0.0,0.0,0.0,0.0,0.0,0.0,0.0,0.0,0.0,0.0,0.0,0.0,0.0,0.0,0.0,0.0,0.0,0.0,0.0,0.0,0.0,0.0,0.0,0.0,0.0,0.0,0.0,0.0,0.0,0.0,0.0,0.0,0.0,0.0,0.0,0.0,0.0,0.0,0.0,0.0,0.0,0.0,0.0,0.0,0.0,0.0,0.0,0.0,0.0,0.0,0.0,0.0,0.0,0.0,0.0,0.0,0.0,0.0,0.0,0.0,0.0,0.0,0.0,0.0,0.0,0.0,0.0,0.0,0.0,0.0,0.0,0.0,0.0,0.0,0.0,0.0,0.0,0.0,0.0,0.0,0.0,0.0,0.0,0.0,0.0,0.0,0.0,0.0,0.0,0.0,0.0,0.0,0.0,0.0,0.0,0.0,0.0,0.0,0.0,0.0,0.0,0.0,0.0,0.0,0.0,0.0,0.0,0.0,2.4198,2.4012,2.3703,2.3265,2.3241,2.3289,0.0,0.0,0.0,0.0,0.0,0.0,0.0,0.0,0.0,0.0,0.0,0.0,0.0,0.0,0.0,0.0,0.0,0.0,0.0,0.0,0.0,0.0,0.0,0.0,0.0,0.0,0.0,0.0,0.0,0.0,0.0,0.0,0.0,0.0,0.0,0.0,0.0,0.0,0.0,0.0,0.0,0.0,0.0,0.0,0.0,0.0,0.0,0.0,0.0,0.0,0.0,0.0,0.0,0.0,0.0,0.0,0.0,0.0,0.0,0.0,0.0,0.0,0.0,0.0,0.0,0.0,0.0,0.0,0.0,0.0,0.0,0.0,0.0,0.0,0.0,0.0,0.0,0.0,0.0,0.0,0.0,0.0,0.0,0.0,0.0,0.0,0.0,0.0,0.0,0.0,0.0,0.0,0.0,0.0,0.0,0.0,0.0,0.0,0.0,0.0,0.0,0.0,0.0,0.0,0.0,0.0,0.0,0.0,0.0,2.3907,0.0,2.343,2.3354,2.3342,2.3383,0.0,0.0,0.0,0.0,0.0,0.0,0.0,0.0,0.0,0.0,0.0,0.0,0.0,0.0,0.0,0.0,0.0,0.0,0.0,0.0,0.0,0.0,0.0,0.0,0.0,0.0,0.0,0.0,0.0,0.0,0.0,0.0,0.0,0.0,0.0,0.0,0.0,0.0,0.0,0.0,0.0,0.0,0.0,0.0,0.0,0.0,0.0,0.0,0.0,0.0,0.0,0.0,0.0,0.0,0.0,0.0,0.0,0.0,0.0,0.0,0.0,0.0,0.0,0.0,0.0,0.0,0.0,0.0,0.0,0.0,0.0,0.0,0.0,0.0,0.0,0.0,0.0,0.0,0.0,0.0,0.0,0.0,0.0,0.0,0.0,0.0,0.0,0.0,0.0,0.0,0.0,0.0,0.0,0.0,0.0,0.0,0.0,0.0,0.0,0.0,0.0,0.0,0.0,0.0,0.0,0.0,0.0,0.0,2.4238,2.3922,2.3707,2.365,2.3676,2.3623,2.3635,0.0,0.0,0.0,0.0,0.0,0.0,0.0,0.0,0.0,0.0,0.0,0.0,0.0,0.0,0.0,0.0,0.0,0.0,0.0,0.0,0.0,0.0,0.0,0.0,0.0,0.0,0.0,0.0,0.0,0.0,0.0,0.0,0.0,0.0,0.0,0.0,0.0,0.0,0.0,0.0,0.0,0.0,0.0,0.0,0.0,0.0,0.0,0.0,0.0,0.0,0.0,0.0,0.0,0.0,0.0,0.0,0.0,0.0,0.0,0.0,0.0,0.0,0.0,0.0,0.0,0.0,0.0,0.0,0.0,0.0,0.0,0.0,0.0,0.0,0.0,0.0,0.0,0.0,0.0,0.0,0.0,0.0,0.0,0.0,0.0,0.0,0.0,0.0,0.0,0.0,0.0,0.0,0.0,0.0,0.0,0.0,0.0,0.0,0.0,0.0,0.0,0.0,0.0,0.0,0.0,0.0,0.0,0.0,0.0,2.4183,2.402,2.3883,2.3776,2.3787,2.3747,0.0,0.0,0.0,0.0,0.0,0.0,0.0,0.0,0.0,0.0,0.0,0.0,0.0,0.0,0.0,0.0,0.0,0.0,0.0,0.0,0.0,0.0,0.0,0.0,0.0,0.0,0.0,0.0,0.0,0.0,0.0,0.0,0.0,0.0,0.0,0.0,0.0,0.0,0.0,0.0,0.0,0.0,0.0,0.0,0.0,0.0,0.0,0.0,0.0,0.0,0.0,0.0,0.0,0.0,0.0,0.0,0.0,0.0,0.0,0.0,0.0,0.0,0.0,0.0,0.0,0.0,0.0,0.0,0.0,0.0,0.0,0.0,0.0,0.0,0.0,0.0,0.0,0.0,0.0,0.0,0.0,0.0,0.0,0.0,0.0,0.0,0.0,0.0,0.0,0.0,0.0,0.0,0.0,0.0,0.0,0.0,0.0,0.0,0.0,0.0,0.0,0.0,0.0,0.0,0.0,0.0,0.0,0.0,0.0,2.4688,2.4434,2.4282,2.4251,2.4025,2.3903,2.3891,0.0,0.0,0.0,0.0,0.0,0.0,0.0,0.0,0.0,0.0,0.0,0.0,0.0,0.0,0.0,0.0,0.0,0.0,0.0,0.0,0.0,0.0,0.0,0.0,0.0,0.0,0.0,0.0,0.0,0.0,0.0,0.0,0.0,0.0,0.0,0.0,0.0,0.0,0.0,0.0,0.0,0.0,0.0,0.0,0.0,0.0,0.0,0.0,0.0,0.0,0.0,0.0,0.0,0.0,0.0,0.0,0.0,0.0,0.0,0.0,0.0,0.0,0.0,0.0,0.0,0.0,0.0,0.0,0.0,0.0,0.0,0.0,0.0,0.0,0.0,0.0,0.0,0.0,0.0,0.0,0.0,0.0,0.0,0.0,0.0,0.0,0.0,0.0,0.0,0.0,0.0,0.0,0.0,0.0,0.0,0.0,0.0,0.0,0.0,0.0,0.0,0.0,0.0,0.0,0.0,0.0,0.0,0.0,2.5447,2.496,2.472,2.4767,2.4189,2.4032,0.0,0.0,0.0,0.0,0.0,0.0,0.0,0.0,0.0,0.0,0.0,0.0,0.0,0.0,0.0,0.0,0.0,0.0,0.0,0.0,0.0,0.0,0.0,0.0,0.0,0.0,0.0,0.0,0.0,0.0,0.0,0.0,0.0,0.0,0.0,0.0,0.0,0.0,0.0,0.0,0.0,0.0,0.0,0.0,0.0,0.0,0.0,0.0,0.0,0.0,0.0,0.0,0.0,0.0,0.0,0.0,0.0,0.0,0.0,0.0,0.0,0.0,0.0,0.0,0.0,0.0,0.0,0.0,0.0,0.0,0.0,0.0,0.0,0.0,0.0,0.0,0.0,0.0,0.0,0.0,0.0,0.0,0.0,0.0,0.0,0.0,0.0,0.0,0.0,0.0,0.0,0.0,0.0,0.0,0.0,0.0,0.0,0.0,0.0,0.0,0.0,0.0,0.0,0.0,0.0,0.0,0.0,0.0,0.0,2.7205,2.6282,2.4814,2.2824,2.3435,2.3527,0.0,0.0,0.0,0.0,0.0,0.0,0.0,0.0,0.0,0.0,0.0,0.0,0.0,0.0,0.0,0.0,0.0,0.0,0.0,0.0,0.0,0.0,0.0,0.0,0.0,0.0,0.0,0.0,0.0,0.0,0.0,0.0,0.0,0.0,0.0,0.0,0.0,0.0,0.0,0.0,0.0,0.0,0.0,0.0,0.0,0.0,0.0,0.0,0.0,0.0,0.0,0.0,0.0,0.0,0.0,0.0,0.0,0.0,0.0,0.0,0.0,0.0,0.0,0.0,0.0,0.0,0.0,0.0,0.0,0.0,0.0,0.0,0.0,0.0,0.0,0.0,0.0,0.0,0.0,0.0,0.0,0.0,0.0,0.0,0.0,0.0,0.0,0.0,0.0,0.0,0.0,0.0,0.0,0.0,0.0,0.0,0.0,0.0,0.0,0.0,0.0,0.0,0.0,0.0,0.0,0.0,0.0,0.0,2.7841,2.7656,2.6862,2.484,2.1533,2.2826,2.312,0.0,0.0,0.0,0.0,0.0,0.0,0.0,0.0,0.0,0.0,0.0,0.0,0.0,0.0,0.0,0.0,0.0,0.0,0.0,0.0,0.0,0.0,0.0,0.0,0.0,0.0,0.0,0.0,0.0,0.0,0.0,0.0,0.0,0.0,0.0,0.0,0.0,0.0,0.0,0.0,0.0,0.0,0.0,0.0,0.0,0.0,0.0,0.0,0.0,0.0,0.0,0.0,0.0,0.0,0.0,0.0,0.0,0.0,0.0,0.0,0.0,0.0,0.0,0.0,0.0,0.0,0.0,0.0,0.0,0.0,0.0,0.0,0.0,0.0,0.0,0.0,0.0,0.0,0.0,0.0,0.0,0.0,0.0,0.0,0.0,0.0,0.0,0.0,0.0,0.0,0.0,0.0,0.0,0.0,0.0,0.0,0.0,0.0,0.0,0.0,0.0,0.0,0.0,0.0,0.0,0.0,0.0,0.0,2.797,2.737,2.693,2.4864,2.1216,2.2489,2.2797,0.0,0.0,0.0,0.0,0.0,0.0,0.0,0.0,0.0,0.0,0.0,0.0,0.0,0.0,0.0,0.0,0.0,0.0,0.0,0.0,0.0,0.0,0.0,0.0,0.0,0.0,0.0,0.0,0.0,0.0,0.0,0.0,0.0,0.0,0.0,0.0,0.0,0.0,0.0,0.0,0.0,0.0,0.0,0.0,0.0,0.0,0.0,0.0,0.0,0.0,0.0,0.0,0.0,0.0,0.0,0.0,0.0,0.0,0.0,0.0,0.0,0.0,0.0,0.0,0.0,0.0,0.0,0.0,0.0,0.0,0.0,0.0,0.0,0.0,0.0,0.0,0.0,0.0,0.0,0.0,0.0,0.0,0.0,0.0,0.0,0.0,0.0,0.0,0.0,0.0,0.0,0.0,0.0,0.0,0.0,0.0,0.0,0.0,0.0,0.0,0.0,0.0,0.0,0.0,0.0,0.0,0.0,0.0,2.9259,2.7799,2.6571,2.4727,2.2194,2.2936,2.2487,0.0,0.0,0.0,0.0,0.0,0.0,0.0,0.0,0.0,0.0,0.0,0.0,0.0,0.0,0.0,0.0,0.0,0.0,0.0,0.0,0.0,0.0,0.0,0.0,0.0,0.0,0.0,0.0,0.0,0.0,0.0,0.0,0.0,0.0,0.0,0.0,0.0,0.0,0.0,0.0,0.0,0.0,0.0,0.0,0.0,0.0,0.0,0.0,1.8609,0.0,0.0,0.0,0.0,0.0,0.0,0.0,0.0,0.0,0.0,0.0,0.0,0.0,0.0,0.0,0.0,0.0,0.0,0.0,0.0,0.0,0.0,0.0,0.0,0.0,0.0,0.0,0.0,0.0,0.0,0.0,0.0,0.0,0.0,0.0,0.0,0.0,0.0,0.0,0.0,0.0,0.0,0.0,0.0,0.0,0.0,0.0,0.0,0.0,0.0,0.0,0.0,0.0,0.0,0.0,0.0,0.0,0.0,0.0,2.9987,2.8963,2.8264,2.6533,2.3812,2.415,2.3113,0.0,0.0,0.0,0.0,0.0,0.0,0.0,0.0,0.0,0.0,0.0,0.0,0.0,0.0,0.0,0.0,0.0,0.0,0.0,0.0,0.0,0.0,0.0,0.0,0.0,0.0,0.0,0.0,0.0,0.0,0.0,0.0,0.0,0.0,0.0,0.0,0.0,0.0,0.0,0.0,0.0,0.0,0.0,0.0,0.0,0.0,0.0,0.0,0.0,0.0,0.0,0.0,0.0,0.0,0.0,0.0,0.0,0.0,0.0,0.0,0.0,0.0,0.0,0.0,0.0,0.0,0.0,0.0,0.0,0.0,0.0,0.0,0.0,0.0,0.0,0.0,0.0,0.0,0.0,0.0,0.0,0.0,0.0,0.0,0.0,0.0,0.0,0.0,0.0,0.0,0.0,0.0,0.0,0.0,0.0,0.0,0.0,0.0,0.0,0.0,0.0,0.0,0.0,0.0,0.0,0.0,0.0,3.1112,3.0537,3.0305,3.0158,2.8529,2.5379,2.5421,2.4133,2.127,0.0,0.0,0.0,0.0,0.0,0.0,0.0,0.0,0.0,0.0,0.0,0.0,0.0,0.0,0.0,0.0,0.0,0.0,0.0,0.0,0.0,0.0,0.0,0.0,0.0,0.0,0.0,0.0,0.0,0.0,0.0,0.0,0.0,0.0,0.0,0.0,0.0,0.0,2.1328,2.0859,0.0,0.0,0.0,0.0,0.0,0.0,0.0,0.0,1.8846,0.0,0.0,0.0,0.0,0.0,0.0,0.0,0.0,0.0,0.0,0.0,0.0,0.0,0.0,0.0,0.0,0.0,0.0,0.0,0.0,0.0,0.0,0.0,0.0,0.0,0.0,0.0,0.0,0.0,0.0,0.0,0.0,0.0,0.0,0.0,0.0,0.0,0.0,0.0,0.0,0.0,0.0,0.0,0.0,0.0,0.0,0.0,0.0,0.0,0.0,0.0,0.0,0.0,0.0,0.0,0.0,3.2882,3.1909,3.1342,3.1171,2.9514,2.8091,2.6904,2.5728,2.4923,2.4585,0.0,0.0,0.0,0.0,0.0,0.0,0.0,0.0,0.0,0.0,0.0,0.0,0.0,0.0,0.0,0.0,0.0,0.0,0.0,0.0,0.0,0.0,0.0,0.0,0.0,0.0,0.0,0.0,0.0,0.0,0.0,0.0,0.0,0.0,0.0,0.0,0.0,0.0,0.0,2.1918,2.1457,0.0,0.0,0.0,0.0,0.0,0.0,0.0,0.0,1.9565,0.0,0.0,0.0,0.0,0.0,0.0,0.0,0.0,0.0,0.0,0.0,0.0,0.0,0.0,0.0,0.0,0.0,0.0,0.0,0.0,0.0,0.0,0.0,0.0,0.0,0.0,0.0,0.0,0.0,0.0,0.0,0.0,0.0,0.0,0.0,0.0,0.0,0.0,0.0,0.0,0.0,0.0,0.0,0.0,0.0,0.0,0.0,0.0,0.0,0.0,0.0,0.0,0.0,0.0,0.0,3.371,3.3225,3.2733,3.2222,3.1178,2.9885,2.8343,2.7264,2.6359,0.0,0.0,0.0,0.0,0.0,0.0,0.0,0.0,0.0,0.0,0.0,0.0,0.0,0.0,0.0,0.0,0.0,0.0,0.0,0.0,0.0,0.0,0.0,0.0,0.0,0.0,0.0,0.0,0.0,0.0,0.0,0.0,0.0,0.0,0.0,0.0,0.0,0.0,0.0,0.0,2.245,2.2169,2.2305,0.0,0.0,0.0,0.0,0.0,0.0,1.954,1.9489,0.0,0.0,0.0,0.0,0.0,0.0,0.0,0.0,0.0,0.0,0.0,0.0,0.0,0.0,0.0,0.0,0.0,0.0,0.0,0.0,0.0,0.0,0.0,0.0,0.0,0.0,0.0,0.0,0.0,0.0,0.0,0.0,0.0,0.0,0.0,0.0,0.0,0.0,0.0,0.0,0.0,0.0,0.0,0.0,0.0,0.0,0.0,0.0,0.0,0.0,0.0,0.0,0.0,0.0,0.0,3.4334,3.4256,3.3922,3.3368,3.3081,3.1936,2.991,2.9093,2.8012,0.0,0.0,0.0,0.0,0.0,0.0,0.0,0.0,0.0,0.0,0.0,0.0,0.0,0.0,0.0,0.0,0.0,0.0,0.0,0.0,0.0,0.0,0.0,0.0,0.0,0.0,0.0,0.0,0.0,0.0,0.0,0.0,0.0,0.0,0.0,0.0,0.0,0.0,0.0,0.0,0.0,2.3,2.3411,2.2867,0.0,0.0,0.0,0.0,1.9664,2.0209,0.0,0.0,0.0,0.0,0.0,0.0,0.0,0.0,0.0,0.0,0.0,0.0,0.0,0.0,0.0,0.0,0.0,0.0,0.0,0.0,0.0,0.0,0.0,0.0,0.0,0.0,0.0,0.0,0.0,0.0,0.0,0.0,0.0,0.0,0.0,0.0,0.0,0.0,0.0,0.0,0.0,0.0,0.0,0.0,0.0,0.0,0.0,0.0,0.0,0.0,0.0,0.0,0.0,0.0,0.0,0.0,3.4302,3.4199,3.4262,3.454,3.3778,3.2897,3.2061,3.0637,2.9757,0.0,0.0,0.0,0.0,0.0,0.0,0.0,0.0,0.0,0.0,0.0,0.0,0.0,0.0,0.0,0.0,0.0,0.0,0.0,0.0,0.0,0.0,0.0,0.0,0.0,0.0,0.0,0.0,0.0,0.0,0.0,0.0,0.0,0.0,0.0,0.0,0.0,0.0,0.0,0.0,0.0,2.4448,2.3775,2.3735,2.3498,0.0,0.0,2.2755,2.2218,2.3169,0.0,0.0,0.0,0.0,0.0,0.0,0.0,0.0,0.0,0.0,0.0,0.0,0.0,0.0,0.0,0.0,0.0,0.0,0.0,0.0,0.0,0.0,0.0,0.0,0.0,0.0,0.0,0.0,0.0,0.0,0.0,0.0,0.0,0.0,0.0,0.0,0.0,0.0,0.0,0.0,0.0,0.0,0.0,0.0,0.0,0.0,0.0,0.0,0.0,0.0,0.0,0.0,0.0,0.0,0.0,3.5099,3.5037,3.4902,3.4841,3.4837,3.404,3.3207,3.2378,3.0927,3.0036,0.0,0.0,0.0,0.0,0.0,0.0,0.0,0.0,0.0,0.0,0.0,0.0,0.0,0.0,0.0,0.0,0.0,0.0,0.0,0.0,0.0,0.0,0.0,0.0,0.0,0.0,0.0,0.0,0.0,0.0,0.0,0.0,0.0,0.0,0.0,0.0,0.0,0.0,0.0,0.0,0.0,0.0,2.6443,2.6225,0.0,0.0,0.0,2.489,2.3699,0.0,0.0,0.0,0.0,0.0,0.0,0.0,0.0,0.0,0.0,0.0,0.0,0.0,0.0,0.0,0.0,0.0,0.0,0.0,0.0,0.0,0.0,0.0,0.0,0.0,0.0,0.0,0.0,0.0,0.0,0.0,0.0,0.0,0.0,0.0,0.0,0.0,0.0,0.0,0.0,0.0,0.0,0.0,0.0,0.0,0.0,0.0,0.0,0.0,0.0,0.0,0.0,0.0,0.0,0.0,0.0,0.0,3.5623,3.5701,3.5502,3.5015,3.4621,3.3903,3.2822,3.1452,0.0,0.0,0.0,0.0,0.0,0.0,0.0,0.0,0.0,0.0,0.0,0.0,0.0,0.0,0.0,0.0,0.0,0.0,0.0,0.0,0.0,0.0,0.0,0.0,0.0,0.0,0.0,0.0,0.0,0.0,0.0,0.0,0.0,0.0,0.0,0.0,0.0,0.0,0.0,0.0,0.0,0.0,2.7708,2.8344,2.805,2.7772,0.0,0.0,2.6799,2.5381,2.5432,2.4959,0.0,0.0,0.0,0.0,0.0,0.0,0.0,0.0,0.0,0.0,0.0,0.0,0.0,0.0,0.0,0.0,0.0,0.0,0.0,0.0,0.0,0.0,0.0,0.0,0.0,0.0,0.0,0.0,0.0,0.0,0.0,0.0,0.0,0.0,0.0,0.0,0.0,0.0,0.0,0.0,0.0,0.0,0.0,0.0,0.0,0.0,0.0,0.0,0.0,0.0,0.0,0.0,0.0,0.0,0.0,3.5642,3.634,3.6249,3.5335,3.5846,3.5506,3.4189,3.2871,3.2063,0.0,0.0,0.0,0.0,0.0,0.0,0.0,0.0,0.0,0.0,0.0,0.0,0.0,0.0,0.0,0.0,0.0,0.0,0.0,0.0,0.0,0.0,0.0,0.0,0.0,0.0,0.0,0.0,0.0,0.0,0.0,0.0,0.0,0.0,0.0,0.0,0.0,0.0,0.0,0.0,0.0,2.8326,2.8067,2.8108,2.8182,0.0,0.0,2.8027,2.7802,2.8341,2.7965,2.5524,0.0,0.0,0.0,0.0,0.0,0.0,0.0,0.0,0.0,0.0,0.0,0.0,0.0,0.0,0.0,0.0,0.0,0.0,0.0,0.0,0.0,0.0,0.0,0.0,0.0,0.0,0.0,0.0,0.0,0.0,0.0,0.0,0.0,0.0,0.0,0.0,0.0,0.0,0.0,0.0,0.0,0.0,0.0,0.0,0.0,0.0,0.0,0.0,0.0,0.0,0.0,0.0,0.0,3.7279,3.7207,3.7489,3.7445,3.6974,3.6539,3.6028,3.542,3.3959,3.2882,0.0,0.0,0.0,0.0,0.0,0.0,0.0,0.0,0.0,0.0,0.0,0.0,0.0,0.0,0.0,0.0,0.0,0.0,0.0,0.0,0.0,0.0,0.0,0.0,0.0,0.0,0.0,0.0,2.592,2.6132,2.6041,0.0,0.0,0.0,0.0,0.0,0.0,0.0,0.0,0.0,0.0,3.0372,3.0396,3.0939,0.0,0.0,3.1403,3.1169,3.056,3.0247,2.9574,2.8046,2.8571,0.0,0.0,0.0,0.0,0.0,0.0,0.0,0.0,0.0,0.0,0.0,0.0,0.0,0.0,0.0,0.0,0.0,0.0,0.0,0.0,0.0,0.0,0.0,0.0,0.0,0.0,0.0,0.0,0.0,0.0,0.0,0.0,0.0,0.0,0.0,0.0,0.0,0.0,0.0,0.0,0.0,0.0,0.0,0.0,0.0,0.0,0.0,0.0,0.0,0.0,0.0,0.0,3.8009,3.8241,3.8232,3.8183,3.8073,3.7583,3.7031,3.6374,3.5076,3.3827,0.0,0.0,0.0,0.0,0.0,0.0,0.0,0.0,0.0,0.0,0.0,0.0,0.0,0.0,0.0,0.0,0.0,0.0,0.0,0.0,0.0,0.0,0.0,0.0,0.0,0.0,0.0,0.0,2.7044,2.7528,2.7968,0.0,0.0,0.0,0.0,0.0,0.0,0.0,0.0,0.0,0.0,3.2314,3.2308,3.288,3.3358,3.3394,3.3394,3.3175,3.2506,3.1891,3.1274,3.0607,0.0,0.0,0.0,0.0,0.0,0.0,0.0,0.0,0.0,0.0,0.0,0.0,0.0,0.0,0.0,0.0,0.0,0.0,0.0,0.0,0.0,0.0,0.0,0.0,0.0,0.0,0.0,0.0,0.0,0.0,3.873,0.0,0.0,0.0,0.0,0.0,0.0,0.0,0.0,0.0,0.0,0.0,0.0,0.0,0.0,0.0,0.0,0.0,0.0,0.0,0.0,0.0,0.0,3.7514,3.8306,3.8375,3.8353,3.8357,3.9174,3.8786,3.7163,3.629,3.5051,3.338,0.0,0.0,0.0,0.0,0.0,0.0,0.0,0.0,0.0,0.0,0.0,0.0,0.0,0.0,0.0,0.0,0.0,0.0,0.0,0.0,0.0,0.0,0.0,0.0,0.0,0.0,2.7738,2.7713,2.8332,0.0,0.0,0.0,0.0,0.0,0.0,0.0,0.0,0.0,0.0,3.3577,3.3971,3.3279,3.3304,3.3479,3.3443,3.3437,3.3413,3.3374,3.3337,3.3332,0.0,0.0,0.0,0.0,0.0,0.0,0.0,0.0,0.0,0.0,0.0,0.0,0.0,0.0,0.0,0.0,0.0,0.0,0.0,0.0,0.0,0.0,0.0,0.0,0.0,0.0,0.0,3.9766,4.0234,0.0,0.0,0.0,0.0,0.0,0.0,0.0,0.0,0.0,0.0,0.0,4.1949,4.1947,0.0,0.0,0.0,0.0,0.0,0.0,0.0,0.0,0.0,0.0,0.0,0.0,3.9738,4.001,4.0077,4.0092,4.0092,3.9876,3.9495,3.8906,3.7504,3.6217,3.5054,0.0,0.0,0.0,0.0,0.0,0.0,0.0,0.0,0.0,0.0,0.0,0.0,0.0,0.0,0.0,0.0,0.0,0.0,0.0,0.0,0.0,0.0,0.0,0.0,0.0,2.9754,0.0,0.0,0.0,0.0,0.0,0.0,0.0,0.0,0.0,0.0,0.0,3.4213,3.4532,3.4363,3.4168,3.4029,3.4567,3.4997,0.0,0.0,0.0,0.0,0.0,0.0,0.0,0.0,0.0,0.0,0.0,0.0,0.0,0.0,3.5762,3.4254,3.3584,3.3394,3.3986,0.0,0.0,0.0,0.0,0.0,0.0,0.0,0.0,0.0,0.0,0.0,0.0,0.0,0.0,4.1523,0.0,4.2323,0.0,0.0,0.0,0.0,0.0,0.0,0.0,0.0,4.3893,4.4308,4.4556,4.4571,4.4556,0.0,4.362,4.2326,0.0,0.0,0.0,0.0,0.0,0.0,0.0,0.0,4.0937,4.0917,4.0694,4.0726,4.0953,4.0516,4.0102,3.9785,3.7825,3.666,3.6402,3.5596,3.5136,0.0,0.0,0.0,0.0,0.0,0.0,0.0,0.0,0.0,0.0,0.0,0.0,0.0,0.0,0.0,0.0,0.0,0.0,0.0,0.0,0.0,0.0,0.0,3.1534,0.0,0.0,0.0,0.0,0.0,0.0,0.0,0.0,0.0,3.7006,3.661,3.6539,3.6816,3.6395,3.5979,3.5781,0.0,0.0,0.0,0.0,0.0,0.0,0.0,3.5874,3.5273,3.5176,3.5546,3.6657,3.775,3.8444,3.8404,0.0,0.0,3.6537,3.5932,3.5783,3.6276,3.6366,3.6341,3.6229,3.5703,3.5252,0.0,0.0,0.0,0.0,0.0,0.0,0.0,0.0,4.4129,4.3744,0.0,4.455,0.0,0.0,0.0,0.0,0.0,4.5428,0.0,0.0,4.5143,4.5522,4.6246,4.6292,4.6272,4.6222,4.5375,4.4955,4.4785,4.2328,0.0,0.0,0.0,0.0,0.0,0.0,4.1081,4.1099,4.0395,4.0315,4.1015,4.1095,4.0729,3.9837,3.7499,3.6607,3.7264,3.6514,3.6031,3.6034,3.6733,0.0,0.0,0.0,0.0,0.0,0.0,0.0,0.0,0.0,0.0,0.0,0.0,0.0,0.0,0.0,0.0,0.0,0.0,0.0,0.0,3.3175,0.0,0.0,0.0,0.0,0.0,0.0,0.0,0.0,0.0,0.0,3.9606,4.0068,4.0276,3.946,0.0,0.0,0.0,0.0,3.8471,3.8462,3.8553,3.8569,3.8553,3.8574,3.8516,3.8457,0.0,0.0,3.8523,3.8548,3.8593,3.8535,3.863,3.8457,3.8486,3.8407,3.8333,3.8359,3.8309,3.823,3.8135,3.7851,3.7751,4.8867,0.0,0.0,0.0,0.0,4.6852,4.662,4.6796,4.5937,4.5214,4.4647,4.4898,0.0,0.0,0.0,0.0,0.0,0.0,4.6823,4.6833,4.7436,4.7839,4.8041,4.8055,4.8068,4.8021,4.7167,4.6755,4.6689,4.5295,4.412,4.3142,0.0,0.0,0.0,0.0,4.2838,4.2767,4.2613,4.2333,4.1944,4.2002,4.1623,4.0741,4.0019,3.9195,3.8253,3.7396,3.6929,3.6909,3.6543,0.0,0.0,0.0,0.0,0.0,0.0,0.0,0.0,0.0,0.0,0.0,0.0,0.0,0.0,0.0,0.0,0.0,0.0,0.0,3.3253,3.3812,3.4402,0.0,0.0,0.0,0.0,0.0,0.0,0.0,0.0,0.0,4.3001,4.1155,3.9731,0.0,0.0,3.8566,3.8397,3.8387,3.8444,3.8489,0.0,0.0,0.0,3.8608,3.8606,3.8583,3.9032,3.9433,3.943,4.0351,4.1116,4.1111,4.1585,4.1931,4.181,4.0867,4.0355,4.0776,4.0456,3.9789,3.9158,3.8463,3.7932,5.3546,5.1575,5.0405,5.0093,5.0308,4.9472,4.9297,4.957,4.8689,4.7827,4.7063,4.7393,4.7333,4.704,4.7387,0.0,0.0,0.0,4.9278,4.9579,4.9739,5.0204,5.078,5.0144,4.9994,5.0236,4.9081,4.8489,4.8485,4.7575,4.6597,4.5531,0.0,0.0,4.5019,4.4435,4.4098,4.4027,4.3755,4.3336,4.2829,4.2899,4.2654,4.2145,4.1796,4.1152,4.0136,3.9277,3.8651,3.8337,3.7832,3.7594,0.0,0.0,0.0,0.0,0.0,0.0,0.0,0.0,0.0,0.0,0.0,3.3404,0.0,0.0,0.0,0.0,3.4645,3.4985,3.53,3.5807,0.0,0.0,0.0,0.0,0.0,0.0,0.0,4.2959,4.3211,4.3637,4.4443,4.2805,4.1515,4.1533,4.0541,3.9835,3.9939,0.0,3.945,3.9514,3.9527,3.9541,3.9578,3.9886,4.0207,4.052,4.0972,4.1269,4.1287,4.2103,4.2668,4.2735,4.3048,4.3451,4.376,4.2944,4.2267,4.247,4.2089,4.1498,4.0922,4.035,3.9893,5.7986,5.7654,5.3689,5.242,5.2928,5.2226,5.2304,5.283,5.2048,5.1206,5.048,5.1163,5.1043,5.0353,5.1232,0.0,5.1616,5.1603,5.2015,5.2762,5.1988,5.2456,5.3892,5.2343,5.1982,5.2653,5.1066,5.0278,5.0155,4.9394,4.8954,4.8853,4.7218,4.6763,4.7368,4.5955,4.519,4.5192,4.4446,4.3935,4.3823,4.3859,4.3879,4.3771,4.3016,4.2571,4.2496,4.1658,4.0839,4.0039,3.9941,3.9509,3.868,0.0,0.0,0.0,0.0,0.0,0.0,0.0,0.0,0.0,0.0,0.0,0.0,0.0,0.0,0.0,3.6887,0.0,3.853,3.8664,0.0,0.0,0.0,4.1558,4.2401,4.244,4.2998,4.4512,0.0,0.0,4.4586,0.0,4.4631,4.4689,4.3273,4.2254,4.238,4.169,4.1232,4.1281,4.129,4.1291,4.1324,4.1901,4.2543,4.3163,4.3606,4.3415,4.3364,4.3515,4.3548,4.3499,4.3509,4.3753,4.4563,4.4554,4.4318,4.3547,4.3327,4.3208,4.2854,4.2719,4.2586,5.8822,5.8724,5.7751,5.6698,5.5722,5.6152,5.5721,5.4705,5.4467,5.3879,5.3057,5.2584,5.2266,5.212,5.2979,5.3386,5.3382,5.337,5.3488,5.3678,5.3465,5.3602,5.3969,5.3522,5.3417,5.3563,5.3134,5.2562,5.1933,5.17,5.155,5.1408,4.9821,4.8757,4.8308,4.7928,4.7755,4.7793,4.7585,4.6872,4.5633,4.5596,4.53,4.471,4.4504,4.4082,4.3405,4.255,4.1695,4.0858,4.0213,3.9803,3.9567,3.8896,0.0,0.0,0.0,0.0,0.0,0.0,0.0,0.0,0.0,3.7352,3.756,0.0,3.7692,0.0,3.8627,3.946,4.0291,4.0974,0.0,0.0,4.3354,4.4168,4.4937,4.5005,4.5121,4.5488,4.4778,4.4601,4.5407,4.4986,4.4867,4.5451,4.4181,4.3189,4.3214,4.3091,4.299,4.2962,4.2942,4.3003,4.2981,4.3223,4.3444,4.3569,4.3574,4.3497,4.3454,4.3984,4.4383,4.4369,4.4838,4.5216,4.5394,4.5371,4.5263,4.4966,4.4474,4.382,4.3106,4.2866,4.2756,6.1403,6.1423,6.1444,6.0469,5.8867,5.8593,5.7908,5.6987,5.6984,5.6492,5.5606,5.4391,5.3645,5.3327,5.3795,5.4225,5.4576,5.4576,5.4791,5.5121,5.4771,5.4771,5.512,5.4279,5.4103,5.4461,5.4015,5.356,5.3112,5.3086,5.3063,5.2991,5.1677,5.0778,5.027,4.9171,4.8633,4.8696,4.8732,4.8292,4.7396,4.7354,4.7156,4.6703,4.6305,4.5884,4.5421,4.4218,4.3347,4.2845,4.2046,4.1598,4.158,4.1106,4.0823,0.0,0.0,0.0,0.0,0.0,0.0,0.0,0.0,0.0,0.0,0.0,4.0484,0.0,4.1348,4.1917,4.3147,4.3707,4.431,4.5118,4.5618,4.6191,4.6936,4.6675,4.6559,4.687,4.5838,4.5549,4.6712,4.5864,4.5411,4.6242,4.5322,4.4418,4.4064,4.3741,4.3519,4.3558,4.3551,4.3724,4.4058,4.4166,4.4311,4.4591,4.4608,4.4558,4.4503,4.5157,4.5608,4.5244,4.576,4.6179,4.5808,4.5635,4.5577,4.5451,4.5064,4.4547,4.4087,4.3578,4.3224,6.4297,6.4297,6.4297,6.3417,6.1931,6.0468,5.9627,5.9267,5.9266,5.877,5.7875,5.6412,5.5358,5.4654,5.4654,5.5005,5.5612,5.5631,5.5962,5.6547,5.5806,5.5864,5.6526,5.4962,5.4635,5.5311,5.4511,5.4083,5.3969,5.398,5.3955,5.3914,5.3038,5.2621,5.2641,5.0317,4.9092,4.9029,4.9077,4.906,4.8962,4.894,4.8896,4.8775,4.7951,4.7491,4.7454,4.6,4.5111,4.4981,4.4283,4.382,4.3706,4.3699,4.371,0.0,4.3633,0.0,0.0,0.0,0.0,0.0,0.0,0.0,0.0,4.2265,4.3421,4.4995,4.4428,4.4642,4.6272,4.6409,4.6715,4.7501,4.7596,4.7847,4.8461,4.7882,4.7623,4.8242,4.6946,4.6637,4.7933,4.6954,4.6356,4.6977,4.66,4.5955,4.5273,4.4433,4.3879,4.3807,4.3816,4.4263,4.4811,4.4952,4.5169,4.578,4.5828,4.5858,4.5687,4.6259,4.653,4.592,4.6213,4.6505,4.5907,4.5785,4.5705,4.5664,4.5472,4.5279,4.5091,4.4538,4.3996,6.4296,6.4295,6.4295,6.4117,6.378,6.3468,6.2118,6.0157,6.015,5.9655,5.885,5.8518,5.8284,5.8147,5.8127,5.7854,5.7329,5.7329,5.7074,5.6585,5.643,5.643,5.6564,5.6189,5.6086,5.6223,5.6001,5.5535,5.4857,5.4866,5.486,5.4844,5.3986,5.3877,5.4463,0.0,0.0,0.0,5.0789,5.0482,4.98,4.9765,4.9462,4.8799,4.7956,0.0,4.7452,4.6579,4.5722,4.504,4.4846,0.0,0.0,0.0,0.0,0.0,0.0,0.0,0.0,0.0,0.0,0.0,4.6973,4.6298,4.4316,4.4836,4.573,4.6718,4.6682,4.699,4.8019,4.808,4.839,4.9216,4.9213,4.9242,4.9432,4.9207,4.8902,4.8338,4.8006,4.791,4.8238,4.7991,4.7852,4.7983,4.7912,4.7786,4.7565,4.6301,4.5454,4.545,4.5489,4.5584,4.5747,4.5802,4.5867,4.5931,4.5919,4.587,4.5769,4.5835,4.5951,4.5636,4.5776,4.6086,4.6378,4.6411,4.6228,4.6241,4.6075,4.583,4.519,4.4817,4.441,6.5953,0.0,6.558,6.5342,0.0,6.4925,6.3945,6.2295,6.1866,6.0963,5.9767,5.9728,5.9511,5.9113,5.9113,5.8857,5.846,5.844,5.8226,5.7855,5.7835,5.7604,5.718,5.7141,5.6876,5.6499,5.6422,5.6181,5.5801,5.576,5.5728,5.5728,5.4872,5.4646,5.5049,5.3876,5.259,5.1267,5.1278,5.1076,5.0657,5.0638,5.0433,5.0043,0.0,0.0,0.0,0.0,0.0,0.0,0.0,0.0,0.0,0.0,0.0,4.6163,4.6096,4.6247,4.669,4.7076,4.7464,4.793,4.9084,4.8896,4.6781,4.7018,4.7587,4.8406,4.8525,4.8877,4.9692,4.975,4.9885,5.0271,5.0283,5.024,5.019,5.0106,4.9911,4.9522,4.9094,4.895,4.9425,4.8678,4.8424,4.8732,4.8428,4.8201,4.8148,4.7577,4.7096,4.7096,4.7139,4.7175,4.7182,4.7185,4.6942,4.6593,4.6414,4.6167,4.5684,4.593,4.6062,4.5675,4.5821,4.6148,4.6003,4.5924,4.5766,4.5712,4.5557,4.53,4.4808,4.4379,4.395,6.7723,6.7096,6.696,6.6487,6.5815,6.5815,6.5342,6.4455,0.0,0.0,0.0,6.0705,6.0231,5.9575,5.9555,5.9472,5.9342,5.9323,5.9243,5.9107,5.9107,5.8723,5.8029,5.7964,5.7592,5.6988,5.6907,5.6907,5.6935,5.6728,5.6612,5.6553,5.5775,5.5276,5.5074,5.4465,5.3361,5.1863,5.1766,5.1764,5.176,5.176,5.1688,5.1546,5.0745,4.9907,4.9054,4.8172,4.7383,4.6726,4.7333,4.7709,4.7736,4.8392,4.8755,4.87,4.8647,4.8679,4.8824,4.8903,4.9074,4.9339,5.0657,5.068,4.8865,4.8997,4.9371,4.9908,4.9991,5.0347,5.1132,5.1063,5.1022,5.1119,5.097,5.0806,5.071,5.0659,5.0596,5.0587,5.0,4.9802,5.0476,4.9495,4.8798,4.9356,4.9067,4.8491,4.8481,4.8362,4.8137,4.8145,4.8121,4.8302,4.8357,4.8291,4.806,4.7335,4.7137,4.6802,4.6258,4.6345,4.6329,4.5763,4.6068,4.6032,4.5651,4.5502,4.5223,4.5165,4.4933,4.4688,4.4449,4.3931,4.341,6.8032,6.7869,6.7126,6.675,6.6623,6.6623,6.6173,6.5292,6.3712,6.2853,6.2598,6.1836,6.1464,6.1346,6.1346,6.0915,6.0232,6.0212,5.9821,0.0,5.9117,5.904,5.8924,5.891,5.8838,5.873,5.8667,5.8648,5.8555,5.7886,5.7513,5.7416,5.6708,5.5934,5.5246,5.5085,5.456,5.3634,5.3559,5.3532,5.3533,5.3535,5.3158,5.2423,5.1585,5.0753,4.9948,4.9032,4.8514,4.8448,4.8503,4.8533,4.8535,4.8706,4.8716,4.869,4.8634,4.8924,4.9679,5.03,5.1273,5.2655,5.3019,5.2166,4.9915,5.0933,5.1543,5.0986,5.0872,5.1182,5.1939,5.1416,5.1254,5.1807,5.1243,5.0715,5.0692,5.0688,5.0678,5.0697,5.0606,5.0481,5.0577,5.0394,5.0197,5.0414,5.012,5.0134,4.9879,4.9067,4.8339,4.8296,4.8312,4.8321,4.8486,4.8336,4.8283,4.8007,4.7876,4.7746,4.7404,4.6931,4.6533,4.6266,4.5881,4.5654,4.587,4.5963,4.5684,4.5535,4.5357,4.5102,4.446,4.4028,4.3658,6.8254,6.739,6.696,6.6801,6.6796,6.6796,6.6601,6.6152,6.496,6.3867,6.295,6.207,6.1715,6.1709,6.1707,6.147,6.1034,6.1054,6.0819,6.0467,6.0447,6.0217,5.9816,5.9809,5.955,5.9111,5.9066,5.9028,5.896,5.8587,5.8405,5.8338,5.7597,5.6764,5.5968,5.5894,5.5746,5.5408,5.4404,5.3904,5.3891,5.3892,5.3714,5.3316,5.2905,5.2311,5.1502,5.1012,5.0588,5.018,5.054,5.0755,5.0775,5.1211,5.147,5.1458,5.14,5.1514,5.1884,5.2184,5.2694,5.3448,5.3948,5.3534,5.1946,5.2071,5.2299,5.2372,5.197,5.2009,5.2818,5.2108,5.1707,5.2097,5.125,5.0654,5.0644,5.0579,5.0562,5.0588,5.0572,5.0548,5.0598,5.0603,5.0598,5.0584,5.0584,5.052,5.0481,4.9925,4.9423,4.949,4.9529,4.9543,4.9528,4.9548,4.9293,4.8763,4.86,4.8288,4.7854,4.725,4.6878,4.6349,4.5896,4.5595,4.5521,4.5284,4.5158,4.5043,4.4856,4.4535,4.4206,4.3926,4.3625,6.8513,6.7109,6.6874,6.6796,6.6796,6.6796,6.6796,6.6718,6.5936,6.4843,6.3555,6.2481,6.1987,6.1978,6.1781,6.1658,6.1628,6.1628,6.1609,6.1628,6.1628,6.1283,6.0728,6.069,6.0336,5.9748,5.9689,5.9654,5.9568,5.9408,5.9204,5.8971,5.8381,5.7654,5.681,5.6785,5.6819,5.677,5.5297,5.4489,5.4506,5.4504,5.4401,5.4197,5.4184,5.3792,5.2954,5.284,5.249,5.1937,5.2446,5.2789,5.2808,5.3394,5.3764,5.3763,5.3717,5.3767,5.3865,5.3832,5.3865,5.4078,5.4688,5.48,5.41,5.3241,5.2916,5.3307,5.2815,5.2715,5.317,5.2608,5.2071,5.2019,5.1188,5.0622,5.0577,5.0637,5.0613,5.0566,5.061,5.0681,5.0547,5.0505,5.0495,5.0468,5.0443,5.044,5.0371,5.0424,5.0457,5.0443,5.0511,5.0471,5.0551,5.0483,5.0123,4.94,4.9262,4.8901,4.8308,4.7941,4.7491,4.684,4.6252,4.5783,4.5074,4.465,4.4486,4.4371,4.4209,4.3998,4.3897,4.3699,4.3531,6.8825,6.7927,6.7128,6.6796,6.6796,6.6796,6.6796,6.6699,6.5956,6.5546,6.5175,6.3633,6.2891,6.2773,6.2069,6.1715,6.1694,6.1696,6.1675,6.1694,6.1696,6.1658,6.1541,6.156,6.1555,6.1408,6.1387,6.1282,6.1185,6.0561,5.9849,5.9089,5.8913,5.8486,5.7771,5.7686,5.7675,5.7657,5.6756,5.6283,5.6346,5.6298,5.587,5.5119,5.5077,5.4673,5.3868,5.3706,5.3646,5.3587,5.3589,5.361,5.3626,5.3704,5.3717,5.3753,5.3741,5.3982,5.4603,5.4687,5.4963,5.5679,5.5775,5.5806,5.5651,5.4881,5.4061,5.3644,5.3332,5.328,5.3275,5.2617,5.2165,5.2035,5.1225,5.0563,5.0598,5.1166,5.1294,5.0558,5.0985,5.1313,5.0607,5.0473,5.044,5.0331,5.0314,5.0302,5.0255,5.0278,5.0302,5.029,5.0376,5.0427,5.0365,5.0325,5.0165,4.9911,4.9846,4.9596,4.9236,4.8737,4.8197,4.7683,4.6962,4.608,4.55,4.4882,4.4289,4.4188,4.4,4.3769,4.3609,4.3488,4.3462,6.8571,6.7322,6.6933,6.6796,6.6796,6.6796,6.6796,6.6757,6.6464,6.6308,6.6172,6.5058,6.3965,6.2989,6.2618,6.2207,6.1699,6.1699,6.1699,6.1699,6.1699,6.1699,6.1699,6.1699,6.1715,6.1711,6.1711,6.1684,6.1612,6.129,6.0677,5.9927,5.9779,5.9348,5.8618,5.8517,5.854,5.8568,5.8219,5.8052,5.7945,5.7024,5.6332,5.6003,5.5946,5.5764,5.5424,5.5314,5.5273,5.5274,5.5245,5.5217,5.5178,5.5194,5.5184,5.5183,5.5144,5.5231,5.55,5.5511,5.5626,5.5927,5.5943,5.5929,5.5929,5.5538,5.5157,5.4844,5.4371,5.426,5.4641,5.4005,5.3278,5.2723,5.1882,5.1107,5.0563,5.0722,5.069,5.0394,5.0612,5.0728,5.0368,5.0267,5.0243,5.0194,5.0182,5.0214,5.0151,5.017,5.017,5.0164,5.0219,5.0261,5.0237,5.017,5.0082,4.9999,4.9912,4.9795,4.9539,4.9348,4.8837,4.8295,4.7507,4.6765,4.6221,4.5813,4.5294,4.4741,4.3895,4.3593,4.3472,4.3295,4.3178,6.8534,6.7226,6.6912,6.6796,6.6796,6.6796,6.6796,6.6796,6.6796,6.6796,6.6738,6.6191,6.5116,6.3809,6.3477,6.2891,6.2129,6.2051,6.1914,6.1738,6.1699,6.1699,6.1699,6.1699,6.1699,6.1699,6.1699,6.1714,6.1703,6.1651,6.1311,6.0822,6.0687,6.0233,5.9517,5.9367,5.9366,5.9395,5.9219,5.9155,5.9165,5.7933,5.7061,5.6833,5.6559,5.6407,5.6398,5.6344,5.6314,5.6295,5.6275,5.6251,5.6208,5.6223,5.6186,5.6164,5.6102,5.6037,5.5971,5.598,5.5957,5.59,5.589,5.588,5.587,5.5816,5.5771,5.5694,5.5238,5.5137,5.5292,5.4901,5.4158,5.3295,5.2532,5.1842,5.1256,5.1036,5.0959,5.0663,5.0739,5.0411,5.0177,5.0095,5.0082,5.0082,5.0285,5.0266,5.0209,5.0279,5.0425,5.0133,5.0076,5.0089,5.0101,5.0044,4.9978,4.9831,4.9712,4.9581,4.941,4.9352,4.9299,4.864,4.8151,4.7607,4.6919,4.6561,4.5963,4.5095,4.4311,4.3684,4.335,4.3114,4.2965,6.8884,6.7947,6.7128,6.6796,6.6796,6.6796,6.6796,6.6796,6.6796,6.6796,6.6796,6.6718,6.6269,6.5409,6.4649,6.3771,6.3028,6.2891,6.2462,6.1836,6.1738,6.1699,6.1699,6.1699,6.1699,6.1699,6.1699,6.1698,6.1715,6.1705,6.1678,6.1619,6.1487,6.1079,6.0383,6.026,6.0248,6.0177,5.9551,5.9431,5.9947,5.9257,5.8408,5.7726,5.687,5.6526,5.6464,5.6348,5.633,5.633,5.6246,5.6206,5.6199,5.6199,5.6161,5.6102,5.6037,5.5971,5.5922,5.5909,5.59,5.589,5.5831,5.5835,5.5907,5.5885,5.5892,5.5791,5.5801,5.5474,5.5026,5.4848,5.4248,5.3369,5.3048,5.2845,5.265,5.2447,5.2295,5.1705,5.1439,5.1123,5.033,5.0031,5.0182,5.0328,5.0771,5.103,5.0537,5.0849,5.0899,5.0404,5.0144,5.0004,4.9958,4.9925,4.9769,4.9633,4.9551,4.9391,4.9292,4.9203,4.9131,4.8949,4.8356,4.7867,4.7478,4.6831,4.6008,4.5268,4.4748,4.4181,4.3579,4.3223,4.2965,6.8573,6.7244,6.6932,6.6796,6.6796,6.6796,6.6796,6.6796,6.6796,6.6796,6.6796,6.6796,6.664,6.6367,6.6055,6.5137,6.3849,6.3262,6.2833,6.2481,6.1953,6.1699,6.1699,6.1699,6.1699,6.1699,6.1699,6.1699,6.1699,6.1714,6.1711,6.1709,6.1678,6.1448,6.1196,6.1142,6.1143,6.1103,6.0789,6.0799,6.0952,6.02,5.9558,5.9227,5.8357,5.7875,5.7861,5.7312,5.6992,5.6992,5.6505,5.6168,5.6141,5.6094,5.6054,5.6033,5.601,5.598,5.5909,5.5861,5.5802,5.5766,5.5751,5.6029,5.6452,5.6571,5.6747,5.7126,5.6786,5.6574,5.6679,5.5921,5.5056,5.4685,5.4118,5.3556,5.3024,5.2829,5.2646,5.2304,5.2143,5.1897,5.1599,5.1539,5.1544,5.1556,5.1793,5.176,5.1606,5.1751,5.1767,5.139,5.0941,5.0575,5.0553,5.0085,4.9778,4.9607,4.9472,4.9324,4.9205,4.9131,4.9096,4.8983,4.847,4.822,4.7894,4.7371,4.648,4.6075,4.5515,4.4709,4.395,4.3637,4.3121,6.8377,6.6933,6.6796,6.6796,6.6796,6.6796,6.6796,6.6796,6.6796,6.6796,6.6796,6.6796,6.6796,6.6796,6.6796,6.625,6.5079,6.4239,6.3691,6.336,6.252,6.2129,6.207,6.1836,6.1699,6.1699,6.1699,6.1699,6.1699,6.1699,6.1699,6.1718,6.1706,6.1672,6.1597,6.1594,6.1591,6.1592,6.1588,6.1581,6.148,6.0942,6.0534,6.0386,5.9805,5.9188,5.8727,5.811,5.7649,5.7354,5.6858,5.6416,5.6112,5.6025,5.6003,5.6001,5.598,5.5929,5.5861,5.5811,5.5885,5.6099,5.6132,5.6497,5.7286,5.7415,5.7742,5.8011,5.7838,5.7761,5.8154,5.732,5.6339,5.6003,5.5384,5.4624,5.3778,5.341,5.3042,5.2632,5.2443,5.2404,5.24,5.2381,5.2336,5.2411,5.2558,5.268,5.2386,5.2511,5.247,5.222,5.1681,5.1405,5.1201,5.0759,4.9939,4.9656,4.9395,4.9254,4.9115,4.9066,4.9006,4.891,4.8768,4.8596,4.8273,4.78,4.7374,4.6958,4.6295,4.5451,4.4744,4.4053,4.3736,6.8376,6.6972,6.6796,6.6796,6.6796,6.6796,6.6796,6.6796,6.6796,6.6796,6.6796,6.6796,6.6796,6.6796,6.6796,6.6738,6.6445,6.578,6.5038,6.4278,6.3399,6.3008,6.2969,6.2207,6.1777,6.1719,6.1699,6.1699,6.1699,6.1699,6.1699,6.1716,6.1706,6.1672,6.1597,6.1594,6.1591,6.1592,6.1588,6.1563,6.1503,6.135,6.1223,6.1139,6.0988,6.0278,5.8893,5.869,5.8321,5.7677,5.7392,5.6897,5.6248,5.6051,5.6029,5.6105,5.601,5.5919,5.5937,5.5962,5.6373,5.6824,5.7003,5.7382,5.8107,5.83,5.8396,5.855,5.8448,5.8621,5.9187,5.8539,5.7635,5.6973,5.6536,5.5989,5.5153,5.444,5.3663,5.2933,5.2783,5.2527,5.2471,5.2681,5.2769,5.2856,5.3201,5.3391,5.2859,5.3123,5.3059,5.2598,5.2268,5.2151,5.1831,5.1427,5.0468,4.9704,4.9407,4.9181,4.9022,4.8927,4.8901,4.8812,4.8642,4.8476,4.8287,4.7847,4.7612,4.7195,4.6613,4.6154,4.5528,4.4919,4.4746,6.8181,6.7634,6.705,6.6796,6.6796,6.6796,6.6796,6.6796,6.6796,6.6796,6.6796,6.6796,6.6796,6.6796,6.6796,6.6796,6.6777,6.6504,6.5995,6.5155,6.4297,6.3888,6.3732,6.3008,6.2265,6.1797,6.1699,6.1699,6.1718,6.1718,6.1699,6.1716,6.1705,6.1672,6.1597,6.1594,6.1591,6.159,6.1588,6.1583,6.1503,6.1441,6.1329,6.1204,6.113,6.0822,6.0381,5.9815,5.938,5.9071,5.8516,5.7791,5.6994,5.6317,5.6308,5.6808,5.6831,5.7071,5.7509,5.7508,5.753,5.7819,5.7896,5.83,5.8973,5.9127,5.9396,5.9762,5.9531,5.9437,5.9895,5.8971,5.8047,5.764,5.7035,5.6249,5.5327,5.4858,5.4593,5.4323,5.419,5.4124,5.4046,5.3997,5.3895,5.3841,5.4124,5.4005,5.3916,5.3857,5.4075,5.3741,5.3365,5.29,5.2666,5.218,5.1303,5.0407,4.9901,4.9344,4.9104,4.8812,4.8786,4.8697,4.8523,4.8354,4.8149,4.7937,4.7721,4.7468,4.6979,4.6555,4.6178,4.5887,4.5608,6.8687,6.8064,6.7498,6.7089,6.6816,6.6796,6.6796,6.6796,6.6796,6.6796,6.6796,6.6796,6.6796,6.6796,6.6796,6.6796,6.6796,6.6796,6.6539,6.597,6.5193,6.4805,6.4669,6.3888,6.3239,6.2649,6.2337,6.2158,6.2133,6.1845,6.1711,6.171,6.1697,6.1646,6.1595,6.1588,6.1582,6.1588,6.1588,6.154,6.1494,6.1391,6.1299,6.12,6.113,6.1099,6.1055,6.0596,6.0214,5.9827,5.9072,5.8337,5.7772,5.7288,5.723,5.7614,5.7738,5.7862,5.8315,5.8245,5.8467,5.864,5.8742,5.9108,5.9781,5.9992,6.0281,6.0575,6.0319,6.0065,6.0025,5.9675,5.8661,5.7513,5.6925,5.6131,5.5289,5.5007,5.4944,5.4847,5.4855,5.4864,5.4822,5.481,5.4767,5.4697,5.4641,5.4557,5.4513,5.4426,5.4441,5.4351,5.4002,5.3683,5.3564,5.2941,5.2115,5.1289,5.0556,4.9884,4.938,4.8909,4.8697,4.856,4.8382,4.8247,4.8068,4.7976,4.7785,4.7513,4.7306,4.7159,4.6853,4.6555,4.632,6.9722,6.8316,6.8121,6.7615,6.6972,6.6855,6.6796,6.6796,6.6796,6.6796,6.6796,6.6796,6.6796,6.6796,6.6796,6.6796,6.6796,6.6796,6.6769,6.6528,6.6005,6.562,6.5344,6.4679,6.4205,6.3904,6.3357,6.2979,6.2733,6.2179,6.1736,6.1696,6.1643,6.1595,6.1586,6.1593,6.159,6.1583,6.1542,6.1495,6.1491,6.134,6.1224,6.1188,6.1145,6.1094,6.1079,6.1002,6.0692,6.0001,5.9246,5.8782,5.8666,5.8647,5.8453,5.8618,5.8563,5.8591,5.8555,5.8765,5.8915,5.9511,5.9608,5.9877,6.0531,6.0627,6.0666,6.0781,6.0704,6.0411,5.9948,5.9924,5.9185,5.7206,5.6488,5.589,5.5223,5.5022,5.4909,5.4894,5.4886,5.4875,5.4775,5.476,5.4728,5.4673,5.4633,5.4565,5.4505,5.4447,5.4439,5.4357,5.4248,5.4158,5.3953,5.3589,5.2815,5.2308,5.1472,5.0639,4.9852,4.9289,4.8578,4.8418,4.8405,4.8229,4.8006,4.7884,4.7811,4.765,4.7601,4.7681,4.747,4.7071,4.6802,7.0424,6.9899,6.8648,6.7966,6.7673,6.7107,6.6816,6.6796,6.6796,6.6796,6.6796,6.6796,6.6796,6.6796,6.6796,6.6796,6.6796,6.6796,6.6808,6.6775,6.6621,6.6088,6.5627,6.5313,6.4863,6.4313,6.4038,6.3549,6.2941,6.2671,6.2226,6.1641,6.1623,6.1594,6.1586,6.1584,6.159,6.1588,6.1576,6.1501,6.1421,6.1377,6.1271,6.114,6.1108,6.1094,6.1094,6.1094,6.1041,6.077,6.002,5.9556,5.9498,5.9034,5.8976,5.9441,5.9456,5.9656,6.0103,6.0132,6.0229,6.0402,6.0358,6.0537,6.0742,6.08,6.08,6.08,6.08,6.0643,6.0258,5.9881,5.8866,5.7567,5.6421,5.5727,5.5746,5.5295,5.4898,5.4837,5.4886,5.4767,5.4729,5.4606,5.4573,5.4508,5.4501,5.4493,5.4449,5.4441,5.4424,5.4434,5.4363,5.4347,5.4231,5.3967,5.3618,5.3245,5.2472,5.1533,5.0688,4.9911,4.904,4.8332,4.8606,4.8541,4.8086,4.7767,4.7717,4.787,4.7707,4.7696,4.7561,4.727,4.707,7.1029,7.0619,6.9605,6.8767,6.8083,6.7537,6.7146,6.6855,6.6796,6.6796,6.6796,6.6796,6.6796,6.6796,6.6796,6.6796,6.6796,6.6796,6.6808,6.6811,6.6755,6.6473,6.6118,6.604,6.5763,6.5266,6.4917,6.4482,6.391,6.3292,6.2633,6.2185,6.1783,6.1601,6.1582,6.158,6.1588,6.1583,6.1568,6.1487,6.1414,6.1352,6.1247,6.1126,6.1094,6.1094,6.1094,6.1094,6.1094,6.0997,6.0654,6.0402,6.0344,5.9962,5.9899,6.0398,6.0282,6.0491,6.0817,6.0869,6.0806,6.0781,6.08,6.08,6.08,6.08,6.08,6.08,6.0763,6.0524,6.0009,5.9256,5.8785,5.8513,5.7105,5.631,5.6698,5.5924,5.5628,5.5582,5.5251,5.4875,5.4955,5.4731,5.4493,5.4424,5.4426,5.4426,5.4417,5.4409,5.4409,5.4409,5.44,5.4357,5.4271,5.4043,5.3795,5.3485,5.3091,5.2215,5.141,5.053,4.9703,4.9023,4.8971,4.8787,4.8312,4.8069,4.8286,4.8286,4.7978,4.7817,4.78,4.7334,4.7149,7.1538,7.0834,7.0737,6.9761,6.8375,6.8121,6.7556,6.6894,6.6796,6.6796,6.6796,6.6796,6.6796,6.6796,6.6796,6.6796,6.6796,6.6796,6.6807,6.6787,6.674,6.6644,6.6658,6.6613,6.6564,6.6377,6.591,6.5508,6.4936,6.3832,6.3213,6.2884,6.2219,6.1812,6.1805,6.1694,6.159,6.1578,6.154,6.1463,6.1388,6.1299,6.1191,6.1122,6.1094,6.1094,6.1094,6.1094,6.1094,6.1094,6.1094,6.1021,6.1021,6.1036,6.1036,6.0988,6.0915,6.0911,6.0957,6.088,6.0806,6.0787,6.08,6.08,6.08,6.08,6.08,6.0783,6.0747,6.0372,5.9767,5.8776,5.896,5.9427,5.8565,5.7912,5.7506,5.6772,5.6452,5.7052,5.5767,5.5346,5.5321,5.511,5.4464,5.4407,5.4409,5.4409,5.4409,5.4409,5.4409,5.4409,5.4392,5.4357,5.4234,5.4063,5.3833,5.3585,5.3314,5.2681,5.1946,5.1149,5.0424,4.99,4.969,4.9237,4.864,4.8612,4.8829,4.8663,4.8355,4.8345,4.8301,4.7449,4.7014,7.187,7.1675,7.0971,7.0094,6.9098,6.8394,6.7615,6.6816,6.6796,6.6796,6.6796,6.6796,6.6796,6.6796,6.6796,6.6796,6.6796,6.6796,6.6808,6.681,6.673,6.6713,6.6733,6.6741,6.6727,6.6622,6.6544,6.6074,6.5409,6.5002,6.4479,6.3777,6.3058,6.2608,6.2511,6.1963,6.1588,6.1578,6.1534,6.1476,6.1407,6.1291,6.1167,6.1108,6.1094,6.1094,6.1094,6.1094,6.1094,6.1094,6.1094,6.1094,6.1094,6.1094,6.1094,6.1084,6.1041,6.1,6.0987,6.0908,6.0852,6.0787,6.08,6.08,6.08,6.08,6.0777,6.0728,6.0697,6.0514,6.0175,5.9992,5.9934,6.0005,5.9767,5.9387,5.9181,5.8006,5.7259,5.6946,5.6303,5.5626,5.5597,5.494,5.4528,5.4446,5.4409,5.4409,5.4409,5.4409,5.4409,5.4409,5.4349,5.4278,5.4118,5.3954,5.3737,5.3552,5.3336,5.3159,5.2435,5.1888,5.1227,5.0694,5.0289,4.9777,4.9289,4.9101,4.93,4.9007,4.8819,4.8738,4.8486,4.7623,4.7043,7.1987,7.1948,7.1499,7.0582,6.943,6.8884,6.7987,6.6972,6.6796,6.6796,6.6796,6.6796,6.6796,6.6796,6.6796,6.6796,6.6796,6.6796,6.6808,6.679,6.6762,6.6741,6.6707,6.6705,6.6709,6.6709,6.669,6.6378,6.6027,6.5579,6.5095,6.4683,6.3887,6.3227,6.2932,6.2445,6.2016,6.1644,6.158,6.1506,6.1414,6.1329,6.1212,6.1126,6.1094,6.1094,6.1094,6.1094,6.1094,6.1094,6.1094,6.1094,6.1094,6.1094,6.1094,6.1089,6.1032,6.0996,6.0978,6.0938,6.0883,6.0793,6.08,6.0763,6.0752,6.074,6.071,6.0673,6.0629,6.0571,6.0472,6.0405,6.0373,6.0294,6.0174,6.0061,5.9793,5.8753,5.7856,5.7479,5.6602,5.5944,5.5437,5.4849,5.4521,5.4409,5.4409,5.4409,5.4409,5.4409,5.4409,5.4392,5.4287,5.4171,5.4,5.3795,5.3582,5.343,5.3303,5.3217,5.2902,5.2491,5.2105,5.1578,5.1041,5.0668,5.0235,5.0039,4.9934,5.0067,4.9928,4.9411,4.8966,4.8633,4.7956,7.199,7.1987,7.1987,7.1011,6.9547,6.9352,6.8358,6.6933,6.6796,6.6796,6.6796,6.6796,6.6796,6.6796,6.6796,6.6796,6.6796,6.6796,6.6809,6.6796,6.68,6.6777,6.6737,6.6715,6.6714,6.6712,6.6709,6.6631,6.6437,6.6027,6.5716,6.5443,6.4722,6.4121,6.3497,6.3088,6.2718,6.2053,6.1919,6.1673,6.144,6.1343,6.1251,6.1136,6.1094,6.1094,6.1094,6.1094,6.1094,6.1094,6.1094,6.1094,6.1094,6.1094,6.1094,6.1094,6.1041,6.1016,6.0985,6.0941,6.088,6.0823,6.0787,6.0771,6.0716,6.0691,6.0654,6.0585,6.0532,6.0472,6.0403,6.0396,6.0387,6.0316,6.0197,6.0087,5.985,5.9127,5.8513,5.814,5.7111,5.6254,5.5558,5.4926,5.4653,5.4409,5.4409,5.4409,5.4409,5.4409,5.4409,5.4366,5.4269,5.4055,5.3851,5.3661,5.3432,5.3378,5.3251,5.3206,5.3164,5.2819,5.244,5.2255,5.1806,5.1423,5.1117,5.0854,5.0904,5.1183,5.066,4.9786,4.9584,4.9638,4.886,7.1997,7.1987,7.1987,7.0993,6.9528,6.9391,6.8377,6.6972,6.6796,6.6796,6.6796,6.6796,6.6796,6.6796,6.6796,6.6796,6.6796,6.6796,6.6815,6.6808,6.6814,6.6796,6.6773,6.6711,6.671,6.6714,6.6709,6.6709,6.669,6.6534,6.6339,6.6261,6.5618,6.5017,6.4686,6.4276,6.3514,6.2788,6.2624,6.2269,6.165,6.1314,6.1203,6.1103,6.1094,6.1094,6.1094,6.1094,6.1094,6.1094,6.1094,6.1094,6.1094,6.1094,6.1094,6.1094,6.1065,6.1051,6.0991,6.0983,6.0955,6.088,6.0823,6.0771,6.0729,6.0679,6.0629,6.0545,6.0465,6.041,6.0403,6.0396,6.0396,6.0347,6.0253,6.0072,5.9855,5.9272,5.8451,5.7989,5.7222,5.6382,5.5519,5.4851,5.4597,5.4409,5.4409,5.4409,5.4409,5.4409,5.4409,5.4349,5.4243,5.3972,5.3709,5.3512,5.3328,5.3326,5.3241,5.3146,5.3071,5.2923,5.2678,5.2459,5.2374,5.2182,5.1896,5.1604,5.1665,5.1817,5.0987,5.0041,5.0158,5.023,4.9424,7.1984,7.1939,7.1521,7.0582,6.945,6.8903,6.7986,6.6913,6.6796,6.6796,6.6796,6.6796,6.6796,6.6796,6.6796,6.6796,6.6796,6.6796,6.6796,6.6813,6.6801,6.6803,6.6803,6.6722,6.6717,6.6717,6.6709,6.6709,6.6709,6.669,6.6709,6.6612,6.6222,6.5872,6.5424,6.4958,6.4313,6.3702,6.3434,6.3006,6.2044,6.1523,6.1164,6.1132,6.1113,6.1094,6.1094,6.1094,6.1094,6.1094,6.1094,6.1094,6.1094,6.1094,6.1094,6.1094,6.1094,6.1061,6.1016,6.1003,6.0955,6.0852,6.0788,6.071,6.0667,6.0617,6.0558,6.0479,6.0431,6.0396,6.0396,6.0396,6.0396,6.0375,6.0244,5.9953,5.9513,5.9014,5.827,5.7458,5.6635,5.5817,5.509,5.4634,5.4465,5.4409,5.4409,5.4409,5.4409,5.4409,5.4409,5.4269,5.4127,5.3841,5.3572,5.34,5.3274,5.3243,5.323,5.3135,5.3028,5.2872,5.2754,5.2603,5.2597,5.2554,5.2429,5.2082,5.2263,5.2348,5.1656,5.1078,5.098,5.0661,4.9918,7.1894,7.1675,7.1002,7.0098,6.9102,6.8415,6.7615,6.6913,6.6796,6.6796,6.6796,6.6796,6.6796,6.6796,6.6796,6.6796,6.6796,6.6796,6.6796,6.6813,6.6805,6.6808,6.6783,6.6746,6.6704,6.6712,6.6709,6.6709,6.6709,6.6709,6.6709,6.669,6.669,6.6417,6.5813,6.5716,6.5112,6.4637,6.434,6.3835,6.2885,6.1951,6.1379,6.1311,6.1215,6.1094,6.1094,6.1094,6.1094,6.1094,6.1094,6.1094,6.1094,6.1094,6.1094,6.1094,6.1089,6.1051,6.102,6.0976,6.0933,6.0846,6.0759,6.0667,6.061,6.0545,6.0458,6.041,6.0396,6.0396,6.0396,6.0396,6.0396,6.0325,6.0127,5.9762,5.9078,5.8365,5.7422,5.6644,5.595,5.5394,5.4837,5.4559,5.4428,5.4409,5.4409,5.4409,5.4409,5.4409,5.4375,5.4189,5.4,5.3678,5.3459,5.3314,5.322,5.3209,5.3177,5.3143,5.3006,5.2861,5.2761,5.262,5.2565,5.2503,5.2498,5.2498,5.2462,5.2386,5.2228,5.1976,5.1571,5.1213,5.0671,7.1556,7.0826,7.0739,6.976,6.8371,6.8107,6.7595,6.6855,6.6796,6.6796,6.6796,6.6796,6.6796,6.6796,6.6796,6.6796,6.6796,6.6796,6.6796,6.6795,6.6812,6.6796,6.6808,6.6801,6.6752,6.6722,6.6712,6.6709,6.6709,6.6709,6.6709,6.6709,6.6709,6.6612,6.6417,6.6359,6.6086,6.5379,6.5217,6.4711,6.3787,6.2823,6.2383,6.2075,6.1601,6.121,6.1229,6.1191,6.1094,6.1094,6.1094,6.1094,6.1094,6.1094,6.1094,6.1084,6.1061,6.1007,6.0991,6.0943,6.0922,6.0846,6.0746,6.0667,6.0584,6.0485,6.0417,6.0403,6.0396,6.0396,6.0396,6.0396,6.0396,6.0088,5.9703,5.9254,5.866,5.8026,5.7039,5.6401,5.5891,5.535,5.481,5.4595,5.4409,5.4409,5.4409,5.4428,5.44,5.4392,5.4287,5.409,5.3917,5.362,5.3408,5.3269,5.3206,5.3196,5.3164,5.3121,5.2955,5.2806,5.2701,5.2599,5.2526,5.2498,5.2498,5.2498,5.2498,5.2399,5.2257,5.2102,5.1883,5.1554,5.1171,7.076,6.9935,6.9436,6.8824,6.808,6.7602,6.7166,6.6874,6.6796,6.6796,6.6796,6.6796,6.6796,6.6796,6.6796,6.6796,6.6796,6.6796,6.6796,6.6796,6.6815,6.6804,6.6803,6.6789,6.6763,6.6719,6.6719,6.6709,6.6709,6.6709,6.6709,6.6709,6.6709,6.6709,6.6709,6.6709,6.6504,6.6048,6.5573,6.5013,6.4452,6.3726,6.3158,6.3115,6.2278,6.1868,6.1693,6.1287,6.1133,6.1094,6.1094,6.1094,6.1094,6.1094,6.1094,6.1094,6.1041,6.0995,6.0999,6.0935,6.0886,6.0818,6.0729,6.0604,6.0505,6.0444,6.0396,6.0396,6.0396,6.0396,6.0396,6.0396,6.0071,5.9726,5.9278,5.8468,5.797,5.7627,5.6956,5.6387,5.5925,5.5674,5.5326,5.4962,5.4822,5.4709,5.4615,5.4484,5.4412,5.434,5.418,5.3963,5.3785,5.3563,5.34,5.3251,5.3206,5.3185,5.3203,5.3111,5.2901,5.275,5.2667,5.2583,5.2503,5.2498,5.2498,5.2498,5.2498,5.2387,5.2281,5.2114,5.1932,5.1564,5.1206,6.9569,6.8727,6.8287,6.7986,6.7729,6.7055,6.6816,6.6796,6.6796,6.6796,6.6796,6.6796,6.6796,6.6796,6.6796,6.6796,6.6796,6.6796,6.6796,6.6796,6.6815,6.6807,6.681,6.6792,6.6752,6.6711,6.6722,6.6712,6.6709,6.6709,6.6709,6.6709,6.6709,6.6709,6.6709,6.6707,6.6599,6.6518,6.5922,6.5576,6.528,6.452,6.414,6.3705,6.3091,6.2409,6.2278,6.1558,6.1113,6.1094,6.1094,6.1094,6.1094,6.1094,6.1094,6.1099,6.1045,6.1003,6.0976,6.0933,6.0871,6.0783,6.068,6.0558,6.0438,6.0396,6.0396,6.0396,6.0396,6.0396,6.0339,6.0224,5.9759,5.9312,5.8885,5.7905,5.7166,5.7293,5.7225,5.6782,5.653,5.6644,5.6217,5.5581,5.5272,5.5085,5.4859,5.4653,5.4506,5.4425,5.4227,5.4027,5.3795,5.3621,5.3477,5.3332,5.3277,5.3193,5.3211,5.3089,5.2868,5.2739,5.2638,5.2565,5.2491,5.2498,5.2498,5.2498,5.2486,5.2399,5.2305,5.2138,5.1907,5.1538,5.1228,6.7868,6.7126,6.7823,6.762,6.6928,6.684,6.6796,6.6796,6.6796,6.6796,6.6796,6.6796,6.6796,6.6796,6.6796,6.6796,6.6796,6.6796,6.6796,6.6796,6.6795,6.6808,6.6813,6.6794,6.6773,6.6713,6.6705,6.6712,6.6709,6.6709,6.6709,6.6709,6.6709,6.6709,6.6704,6.6679,6.6658,6.6613,6.6307,6.6248,6.5985,6.5443,6.4995,6.4561,6.342,6.239,6.237,6.1674,6.1133,6.1133,6.1094,6.1094,6.1094,6.1094,6.1094,6.1094,6.1035,6.0997,6.0995,6.0905,6.0818,6.0765,6.066,6.0526,6.0417,6.0396,6.0396,6.0396,6.0396,6.0396,6.0167,5.9778,5.9548,5.9121,5.8783,5.8141,5.7611,5.7604,5.751,5.7154,5.7192,5.75,5.7514,5.6952,5.6249,5.6042,5.5667,5.5433,5.4823,5.4658,5.4392,5.4156,5.3898,5.3716,5.3603,5.347,5.333,5.3253,5.325,5.305,5.2824,5.2705,5.2597,5.2542,5.2498,5.2498,5.2498,5.2498,5.2486,5.2422,5.2305,5.209,5.1845,5.1513,5.1202,6.7691,6.6946,6.7192,6.7089,6.6811,6.6801,6.6796,6.6796,6.6796,6.6796,6.6796,6.6796,6.6796,6.6796,6.6796,6.6796,6.6796,6.6796,6.6796,6.6796,6.6795,6.6812,6.6799,6.6801,6.6799,6.6763,6.6734,6.6709,6.6709,6.6709,6.6709,6.6709,6.6709,6.6709,6.6704,6.6661,6.6626,6.6591,6.6523,6.6434,6.6345,6.6112,6.5795,6.5596,6.4759,6.3734,6.3207,6.2356,6.1713,6.1249,6.1133,6.1094,6.1094,6.1094,6.1094,6.1084,6.1035,6.1003,6.099,6.0888,6.0757,6.068,6.0617,6.0539,6.041,6.0396,6.0396,6.0396,6.0396,6.0396,6.03,6.0083,5.9835,5.9255,5.8743,5.8268,5.808,5.8091,5.8139,5.7922,5.8274,5.8667,5.8594,5.8427,5.7676,5.7,5.6587,5.6127,5.5537,5.5079,5.4925,5.4622,5.4373,5.4329,5.4252,5.3862,5.3424,5.3414,5.3426,5.3167,5.2984,5.2676,5.2586,5.2531,5.2498,5.2498,5.2498,5.2498,5.2475,5.244,5.2234,5.198,5.1733,5.1479,5.1176,6.7433,6.6899,6.6831,6.6808,6.6807,6.68,6.6796,6.6796,6.6796,6.6796,6.6796,6.6796,6.6796,6.6796,6.6796,6.6796,6.6796,6.6796,6.6796,6.6796,6.6796,6.6796,6.6805,6.6806,6.6801,6.6771,6.6739,6.6709,6.6709,6.6709,6.6709,6.6709,6.6709,6.6709,6.6696,6.6638,6.6598,6.6565,6.6504,6.6413,6.639,6.6335,6.6216,6.6026,6.5262,6.4682,6.3869,6.3013,6.2119,6.1616,6.1311,6.1113,6.1094,6.1094,6.1094,6.108,6.1045,6.1017,6.0965,6.0869,6.0728,6.0642,6.0629,6.0525,6.0438,6.0396,6.0396,6.0396,6.0396,6.0396,6.0358,6.0033,5.9682,5.9102,5.9022,5.8654,5.8629,5.8631,5.8765,5.8792,5.9131,5.925,5.9111,5.8877,5.837,5.7732,5.7423,5.6897,5.6277,5.5896,5.5722,5.537,5.4968,5.5006,5.5028,5.4691,5.4378,5.4287,5.4148,5.3558,5.3235,5.289,5.2581,5.2508,5.2498,5.2498,5.2498,5.2498,5.2463,5.2428,5.2192,5.1919,5.1607,5.1333,5.1079,6.69,6.6811,6.6801,6.6798,6.6798,6.6796,6.6796,6.6796,6.6796,6.6796,6.6796,6.6796,6.6796,6.6796,6.6796,6.6796,6.6796,6.6796,6.6796,6.6796,6.6796,6.6796,6.6807,6.6808,6.6806,6.6773,6.6743,6.6717,6.6709,6.6709,6.6709,6.6707,6.6707,6.6704,6.6682,6.6615,6.6588,6.659,6.6527,6.6461,6.6398,6.6391,6.6317,6.6056,6.561,6.5107,6.4488,6.3613,6.2738,6.2138,6.1577,6.1307,6.1118,6.1094,6.1094,6.1089,6.1035,6.1003,6.1001,6.0863,6.0741,6.0629,6.0617,6.0539,6.0438,6.0396,6.0396,6.0396,6.0396,6.0396,6.0129,5.9778,5.9472,5.9323,5.9281,5.9216,5.9201,5.9174,5.9311,5.9252,5.9357,5.9447,5.9345,5.9178,5.8802,5.8417,5.8173,5.7685,5.7056,5.6712,5.6509,5.5968,5.5544,5.5707,5.5744,5.5561,5.5354,5.5243,5.4759,5.3981,5.339,5.2985,5.2724,5.2546,5.2498,5.2498,5.2498,5.2498,5.2417,5.2323,5.2126,5.1858,5.1531,5.1215,5.0972,6.686,6.6811,6.6801,6.6796,6.6796,6.6796,6.6796,6.6796,6.6796,6.6796,6.6796,6.6796,6.6796,6.6796,6.6796,6.6796,6.6796,6.6796,6.6796,6.6796,6.6796,6.6796,6.6809,6.6795,6.6796,6.6779,6.6752,6.6705,6.6709,6.6709,6.6709,6.6707,6.6716,6.6705,6.6688,6.6646,6.6597,6.6583,6.6547,6.6473,6.6418,6.6396,6.6336,6.621,6.5876,6.5533,6.5107,6.4193,6.3555,6.2738,6.2104,6.1776,6.1389,6.1253,6.1157,6.1128,6.106,6.0994,6.0924,6.0812,6.0685,6.0636,6.0584,6.0532,6.0424,6.0403,6.0396,6.0396,6.0396,6.0396,6.0262,6.0205,6.0031,5.9987,5.9936,5.9832,5.9779,5.9782,5.9796,5.9587,5.9563,5.9465,5.9355,5.9299,5.9027,5.8933,5.8727,5.8399,5.7826,5.7528,5.7267,5.6565,5.6148,5.6354,5.6422,5.6283,5.6223,5.6156,5.5226,5.4045,5.3527,5.3223,5.2773,5.2552,5.2516,5.2498,5.2486,5.2463,5.2305,5.2174,5.2054,5.182,5.1479,5.1193,5.0936,6.6835,6.6806,6.68,6.6796,6.6796,6.6796,6.6796,6.6796,6.6796,6.6796,6.6796,6.6796,6.6796,6.6796,6.6796,6.6796,6.6796,6.6796,6.6796,6.6796,6.6796,6.6796,6.6812,6.6801,6.6801,6.6783,6.6741,6.6717,6.6712,6.6709,6.6709,6.6704,6.6705,6.6669,6.6665,6.6624,6.6579,6.6565,6.6508,6.6469,6.6431,6.6391,6.6331,6.6235,6.6089,6.5953,6.5489,6.5011,6.4488,6.3497,6.2936,6.2588,6.2085,6.1718,6.1621,6.1529,6.1181,6.1036,6.0869,6.0763,6.0667,6.061,6.0584,6.0512,6.0424,6.0403,6.0396,6.0396,6.0396,6.0396,6.0396,6.0396,6.034,6.0294,6.0182,6.0057,5.9995,5.9979,5.9874,5.9702,5.9562,5.9464,5.9336,5.9318,5.9215,5.9234,5.9253,5.8896,5.8558,5.8297,5.8024,5.743,5.698,5.717,5.7198,5.7015,5.7012,5.7061,5.5953,5.4624,5.4084,5.3828,5.3184,5.257,5.2534,5.2498,5.2475,5.2399,5.2317,5.221,5.2096,5.1815,5.1454,5.118,5.0941,6.6806,6.6798,6.6796,6.6796,6.6796,6.6796,6.6796,6.6796,6.6796,6.6796,6.6796,6.6796,6.6796,6.6796,6.6796,6.6796,6.6796,6.6796,6.6796,6.6796,6.6796,6.6796,6.6812,6.6802,6.6805,6.6785,6.6763,6.6724,6.6714,6.6709,6.6709,6.6704,6.6705,6.666,6.6627,6.661,6.6553,6.6527,6.6508,6.6461,6.6403,6.64,6.6326,6.624,6.6166,6.6147,6.5837,6.5475,6.5107,6.4566,6.4121,6.3792,6.3386,6.2878,6.2583,6.2129,6.1474,6.1051,6.0829,6.0728,6.0642,6.0584,6.0525,6.0465,6.0424,6.0396,6.0396,6.0396,6.0396,6.0396,6.0396,6.0347,6.0316,6.0223,6.0122,6.0041,5.9986,5.9926,5.9811,5.9693,5.9589,5.9473,5.9336,5.929,5.929,5.929,5.929,5.9234,5.8962,5.8925,5.8659,5.8468,5.8132,5.8093,5.7973,5.758,5.7531,5.7499,5.6739,5.562,5.5071,5.4396,5.3728,5.3132,5.2679,5.2516,5.2486,5.2434,5.2364,5.2269,5.215,5.1864,5.1518,5.1233,5.0981,6.6806,6.6796,6.6796,6.6796,6.6796,6.6796,6.6796,6.6796,6.6796,6.6796,6.6796,6.6796,6.6796,6.6796,6.6796,6.6796,6.6796,6.6796,6.6796,6.6796,6.6796,6.6796,6.6815,6.6809,6.6811,6.6792,6.6771,6.675,6.6717,6.6709,6.6709,6.6707,6.6708,6.6657,6.6604,6.6588,6.6549,6.652,6.6508,6.6461,6.6407,6.6405,6.6322,6.624,6.6205,6.6205,6.605,6.5953,6.5586,6.4991,6.4798,6.445,6.3637,6.34,6.3163,6.2278,6.155,6.0944,6.0793,6.0698,6.0623,6.0558,6.0472,6.0431,6.0403,6.0396,6.0396,6.0396,6.0396,6.0396,6.0389,6.0347,6.0275,6.0167,6.0099,6.0037,5.9963,5.991,5.9795,5.9659,5.9563,5.9428,5.9299,5.929,5.929,5.929,5.929,5.929,5.9244,5.9168,5.9041,5.8848,5.858,5.8345,5.8212,5.7893,5.7902,5.7808,5.7092,5.6446,5.5865,5.5122,5.4308,5.3621,5.3059,5.2697,5.2498,5.2452,5.2417,5.2293,5.2162,5.1895,5.1607,5.1311,5.1021,6.6802,6.6796,6.6796,6.6796,6.6796,6.6796,6.6796,6.6796,6.6796,6.6796,6.6796,6.6796,6.6796,6.6796,6.6796,6.6796,6.6796,6.6796,6.6796,6.6796,6.6796,6.6796,6.6796,6.6813,6.6796,6.6796,6.6797,6.6759,6.6722,6.6709,6.6709,6.6709,6.671,6.6663,6.661,6.6581,6.6563,6.6531,6.6497,6.6457,6.642,6.64,6.6322,6.6235,6.621,6.6205,6.6205,6.6205,6.5895,6.5533,6.5494,6.5281,6.4508,6.4179,6.3534,6.2699,6.1998,6.1507,6.1286,6.1154,6.0878,6.0575,6.0418,6.041,6.0396,6.0396,6.0396,6.0396,6.0396,6.0396,6.0382,6.0342,6.0229,6.0133,6.0072,6.001,5.9966,5.991,5.9778,5.9624,5.9482,5.9364,5.929,5.929,5.929,5.929,5.929,5.929,5.9225,5.912,5.9032,5.8889,5.8601,5.8342,5.8219,5.8118,5.8031,5.7914,5.7519,5.6932,5.6483,5.5788,5.4919,5.4092,5.3349,5.3059,5.2806,5.2559,5.2452,5.2437,5.2408,5.2118,5.1772,5.1311,5.103,6.6796,6.6796,6.6796,6.6796,6.6796,6.6796,6.6796,6.6796,6.6796,6.6796,6.6796,6.6796,6.6796,6.6796,6.6796,6.6796,6.6796,6.6796,6.6796,6.6796,6.6796,6.6796,6.6796,6.6815,6.6798,6.6796,6.6797,6.678,6.6724,6.6709,6.6709,6.6709,6.6707,6.6683,6.6642,6.6601,6.6561,6.652,6.6481,6.6454,6.6416,6.6376,6.634,6.6235,6.621,6.6205,6.6205,6.6205,6.6185,6.6185,6.6147,6.6069,6.5566,6.4541,6.374,6.3205,6.2502,6.1917,6.1659,6.1541,6.1086,6.074,6.0418,6.041,6.0396,6.0396,6.0396,6.0396,6.0396,6.0396,6.0389,6.0332,6.0245,6.0144,6.0057,5.9986,5.9934,5.9861,5.9736,5.9589,5.9446,5.9318,5.929,5.929,5.929,5.929,5.929,5.929,5.9225,5.912,5.9013,5.8901,5.8643,5.8378,5.8253,5.8152,5.8042,5.7861,5.7653,5.7394,5.6908,5.6231,5.548,5.4725,5.4001,5.3494,5.3168,5.3023,5.297,5.308,5.2931,5.2485,5.2064,5.1747,5.1136,6.6796,6.6796,6.6796,6.6796,6.6796,6.6796,6.6796,6.6796,6.6796,6.6777,6.6796,6.6796,6.6757,6.6699,6.6777,6.6777,6.6718,6.6777,6.6796,6.6796,6.6796,6.6796,6.6796,6.6795,6.6796,6.6814,6.6797,6.6757,6.6722,6.6709,6.6709,6.6709,6.6709,6.6691,6.6657,6.662,6.6568,6.6524,6.6478,6.6458,6.6413,6.639,6.6349,6.6269,6.624,6.621,6.6205,6.6205,6.6205,6.6185,6.6185,6.6185,6.6108,6.4585,6.4093,6.4014,6.3026,6.2259,6.1908,6.1724,6.123,6.0724,6.041,6.0403,6.0396,6.0396,6.0396,6.0396,6.0396,6.0396,6.0382,6.033,6.0257,6.0144,6.0041,5.9982,5.9902,5.9786,5.9676,5.9535,5.9391,5.9336,5.9299,5.929,5.929,5.929,5.929,5.9281,5.9225,5.914,5.9053,5.8933,5.8677,5.8454,5.832,5.8163,5.8024,5.7909,5.772,5.7491,5.7273,5.6625,5.5939,5.5377,5.4744,5.4255,5.3874,5.3729,5.3712,5.3773,5.3761,5.3446,5.3145,5.2836,5.1874,6.6825,6.6798,6.6796,6.6582,6.6386,6.664,6.6796,6.6738,6.6425,6.6269,6.6347,6.6582,6.6621,6.6445,6.6621,6.6504,6.6445,6.6679,6.6757,6.6796,6.6796,6.6796,6.6796,6.6796,6.6814,6.681,6.6761,6.6734,6.6712,6.6709,6.6709,6.6709,6.6709,6.6699,6.6691,6.6639,6.6575,6.6558,6.6485,6.6427,6.6398,6.6379,6.6358,6.6307,6.624,6.621,6.6205,6.6205,6.6205,6.6205,6.6205,6.6205,6.5943,6.498,6.4728,6.4548,6.3767,6.2503,6.2206,6.1804,6.1279,6.0697,6.0396,6.0396,6.0396,6.0396,6.0396,6.0396,6.0396,6.0396,6.0375,6.0337,6.0238,6.0144,6.0052,5.9974,5.9853,5.9738,5.9643,5.9538,5.9401,5.9318,5.929,5.929,5.929,5.929,5.929,5.929,5.9234,5.9177,5.9091,5.8934,5.8679,5.8497,5.8364,5.8197,5.8001,5.7886,5.7786,5.7516,5.7255,5.6896,5.6422,5.5866,5.5395,5.5033,5.4707,5.4508,5.4418,5.4454,5.4508,5.4512,5.4202,5.3794,5.2808,6.6856,6.68,6.6682,6.6329,6.5878,6.6347,6.6621,6.6504,6.5936,6.5526,6.5507,6.6094,6.5977,6.5918,6.623,6.5975,6.6034,6.6543,6.6738,6.6796,6.6796,6.6796,6.6796,6.6815,6.6813,6.6785,6.675,6.6729,6.6709,6.6709,6.6709,6.6709,6.6704,6.6718,6.6691,6.6639,6.6578,6.6535,6.6466,6.6402,6.6377,6.6375,6.6349,6.6303,6.624,6.621,6.6205,6.6205,6.6205,6.6205,6.62,6.6194,6.5928,6.5278,6.5162,6.4879,6.3955,6.3021,6.2555,6.191,6.1213,6.0644,6.0472,6.0415,6.0415,6.0396,6.0396,6.0396,6.0396,6.0389,6.0387,6.0304,6.0204,6.0129,6.0037,5.9942,5.9822,5.9686,5.9599,5.9511,5.9411,5.9318,5.929,5.929,5.929,5.929,5.929,5.929,5.9281,5.9187,5.9119,5.8922,5.8658,5.8526,5.8404,5.8208,5.7978,5.7862,5.7751,5.7504,5.7252,5.7009,5.6736,5.6391,5.5957,5.5613,5.545,5.5287,5.5214,5.5251,5.5509,5.5609,5.5115,5.4615,5.3678,6.6878,6.675,6.6107,6.6083,6.6388,6.6053,6.5839,6.58,6.5643,6.5214,6.4688,6.461,6.463,6.4591,6.5448,6.5663,6.5819,6.6425,6.6718,6.6796,6.6796,6.6796,6.6795,6.6812,6.6795,6.6787,6.6752,6.6715,6.6714,6.6709,6.6709,6.6709,6.6709,6.6696,6.6691,6.6633,6.6565,6.6497,6.6438,6.6377,6.6311,6.6312,6.6326,6.6288,6.6235,6.6215,6.6205,6.6205,6.6205,6.6205,6.62,6.6174,6.591,6.5467,6.5238,6.4876,6.3931,6.3027,6.2395,6.1884,6.1198,6.0549,6.0434,6.0492,6.0472,6.0396,6.0396,6.0396,6.0396,6.0396,6.0361,6.0207,6.0099,6.0064,5.9986,5.9885,5.9772,5.9678,5.9572,5.9483,5.9392,5.9327,5.929,5.929,5.929,5.929,5.929,5.929,5.93,5.9225,5.9138,5.8892,5.8656,5.8526,5.8404,5.8174,5.7955,5.7857,5.7697,5.7467,5.7289,5.7213,5.6953,5.6699,5.6482,5.6174,5.6047,5.6011,5.6192,5.6283,5.6663,5.6725,5.6155,5.5405,5.4438]}]]